Time,TemperatureF,DewpointF,PressureIn,WindDirection,WindDirectionDegrees,WindSpeedMPH,WindSpeedGustMPH,Humidity,HourlyPrecipIn,Conditions,Clouds,dailyrainin,SolarRadiationWatts/m^2,SoftwareType,DateUTC
2013-05-10 00:00:00,46.2,46.2,29.43,NW,315,3.0,6.0,100,0.00,,,0.00,0,MyOwnSoftware,2013-05-09 23:00:00,
2013-05-10 00:01:00,46.2,46.2,29.43,NW,315,3.0,6.0,100,0.00,,,0.00,0,MyOwnSoftware,2013-05-09 23:01:00,
2013-05-10 00:02:00,46.2,46.0,29.43,North,0,0.0,-999.0,100,-99.99,,,0.00,0,weatherlink.com 1.10,2013-05-09 23:02:00,
2013-05-10 00:03:00,46.2,46.2,29.43,North,0,1.0,3.0,100,0.00,,,0.00,0,MyOwnSoftware,2013-05-09 23:03:00,
2013-05-10 00:04:00,46.2,46.2,29.43,North,0,4.0,10.0,100,0.00,,,0.00,0,MyOwnSoftware,2013-05-09 23:04:00,
2013-05-10 00:05:00,46.2,46.2,29.43,North,0,0.0,1.0,100,0.00,,,0.00,0,MyOwnSoftware,2013-05-09 23:05:00,
2013-05-10 00:06:00,46.2,46.2,29.43,NW,315,2.0,2.0,100,0.00,,,0.00,0,MyOwnSoftware,2013-05-09 23:06:00,
2013-05-10 00:07:00,46.2,46.2,29.43,North,0,2.0,5.0,100,0.00,,,0.00,0,MyOwnSoftware,2013-05-09 23:07:00,
2013-05-10 00:08:00,46.2,46.2,29.43,North,0,0.0,2.0,100,0.00,,,0.00,0,MyOwnSoftware,2013-05-09 23:08:00,
2013-05-10 00:09:00,46.2,46.2,29.43,North,0,0.0,1.0,100,0.00,,,0.00,0,MyOwnSoftware,2013-05-09 23:09:00,
2013-05-10 00:10:00,46.2,46.2,29.43,North,0,1.0,2.0,100,0.00,,,0.00,0,MyOwnSoftware,2013-05-09 23:10:00,
2013-05-10 00:11:00,46.2,46.2,29.43,North,0,2.0,3.0,100,0.00,,,0.00,0,MyOwnSoftware,2013-05-09 23:11:00,
2013-05-10 00:12:00,46.2,46.2,29.43,North,0,1.0,3.0,100,0.00,,,0.00,0,MyOwnSoftware,2013-05-09 23:12:00,
2013-05-10 00:13:00,46.2,46.2,29.43,North,0,1.0,2.0,100,0.00,,,0.00,0,MyOwnSoftware,2013-05-09 23:13:00,
2013-05-10 00:14:00,46.4,46.4,29.43,North,0,1.0,5.0,100,0.00,,,0.00,0,MyOwnSoftware,2013-05-09 23:14:00,
2013-05-10 00:15:00,46.4,46.4,29.43,NNW,338,1.0,2.0,100,0.00,,,0.00,0,MyOwnSoftware,2013-05-09 23:15:00,
2013-05-10 00:16:00,46.4,46.4,29.43,North,0,0.0,0.0,100,0.00,,,0.00,0,MyOwnSoftware,2013-05-09 23:16:00,
2013-05-10 00:17:00,46.4,46.0,29.43,NNW,337,0.0,-999.0,100,-99.99,,,0.00,0,weatherlink.com 1.10,2013-05-09 23:17:00,
2013-05-10 00:18:00,46.4,46.4,29.43,North,0,0.0,0.0,100,0.00,,,0.00,0,MyOwnSoftware,2013-05-09 23:18:00,
2013-05-10 00:19:00,46.4,46.4,29.43,North,0,0.0,0.0,100,0.00,,,0.00,0,MyOwnSoftware,2013-05-09 23:19:00,
2013-05-10 00:20:00,46.4,46.4,29.43,NW,315,0.0,1.0,100,0.00,,,0.00,0,MyOwnSoftware,2013-05-09 23:20:00,
2013-05-10 00:21:00,46.4,46.4,29.43,NW,315,1.0,3.0,100,0.00,,,0.00,0,MyOwnSoftware,2013-05-09 23:21:00,
2013-05-10 00:22:00,46.4,46.4,29.43,WNW,292,1.0,2.0,100,0.00,,,0.00,0,MyOwnSoftware,2013-05-09 23:22:00,
2013-05-10 00:23:00,46.4,46.4,29.43,WNW,292,1.0,2.0,100,0.00,,,0.00,0,MyOwnSoftware,2013-05-09 23:23:00,
2013-05-10 00:24:00,46.4,46.4,29.43,West,270,1.0,4.0,100,0.00,,,0.00,0,MyOwnSoftware,2013-05-09 23:24:00,
2013-05-10 00:25:00,46.4,46.4,29.43,North,0,0.0,0.0,100,0.00,,,0.00,0,MyOwnSoftware,2013-05-09 23:25:00,
2013-05-10 00:26:00,46.4,46.4,29.43,West,270,0.0,2.0,100,0.00,,,0.00,0,MyOwnSoftware,2013-05-09 23:26:00,
2013-05-10 00:27:00,46.4,46.4,29.43,West,270,1.0,2.0,100,0.00,,,0.00,0,MyOwnSoftware,2013-05-09 23:27:00,
2013-05-10 00:28:00,46.4,46.4,29.43,West,270,1.0,2.0,100,0.00,,,0.00,0,MyOwnSoftware,2013-05-09 23:28:00,
2013-05-10 00:29:00,46.5,46.5,29.43,WNW,292,1.0,3.0,100,0.00,,,0.00,0,MyOwnSoftware,2013-05-09 23:29:00,
2013-05-10 00:30:00,46.5,46.5,29.43,WNW,292,1.0,3.0,100,0.00,,,0.00,0,MyOwnSoftware,2013-05-09 23:30:00,
2013-05-10 00:31:00,46.5,46.5,29.43,WNW,292,1.0,3.0,100,0.00,,,0.00,0,MyOwnSoftware,2013-05-09 23:31:00,
2013-05-10 00:32:00,46.5,47.0,29.43,WNW,298,0.0,-999.0,100,-99.99,,,0.00,0,weatherlink.com 1.10,2013-05-09 23:32:00,
2013-05-10 00:33:00,46.5,46.5,29.43,North,0,0.0,0.0,100,0.00,,,0.00,0,MyOwnSoftware,2013-05-09 23:33:00,
2013-05-10 00:34:00,46.5,46.5,29.43,North,0,0.0,0.0,100,0.00,,,0.00,0,MyOwnSoftware,2013-05-09 23:34:00,
2013-05-10 00:35:00,46.5,46.5,29.43,WNW,292,1.0,3.0,100,0.00,,,0.00,0,MyOwnSoftware,2013-05-09 23:35:00,
2013-05-10 00:36:00,46.5,46.5,29.43,North,0,0.0,0.0,100,0.00,,,0.00,0,MyOwnSoftware,2013-05-09 23:36:00,
2013-05-10 00:37:00,46.5,46.5,29.43,WNW,292,0.0,1.0,100,0.00,,,0.00,0,MyOwnSoftware,2013-05-09 23:37:00,
2013-05-10 00:38:00,46.5,46.5,29.43,North,0,0.0,0.0,100,0.00,,,0.00,0,MyOwnSoftware,2013-05-09 23:38:00,
2013-05-10 00:39:00,46.5,46.5,29.43,WNW,292,0.0,1.0,100,0.00,,,0.00,0,MyOwnSoftware,2013-05-09 23:39:00,
2013-05-10 00:40:00,46.5,46.5,29.43,WNW,292,1.0,2.0,100,0.00,,,0.00,0,MyOwnSoftware,2013-05-09 23:40:00,
2013-05-10 00:41:00,46.5,46.5,29.43,WNW,292,1.0,2.0,100,0.00,,,0.00,0,MyOwnSoftware,2013-05-09 23:41:00,
2013-05-10 00:42:00,46.5,46.5,29.43,West,270,2.0,3.0,100,0.00,,,0.00,0,MyOwnSoftware,2013-05-09 23:42:00,
2013-05-10 00:43:00,46.5,46.5,29.43,WNW,292,1.0,4.0,100,0.00,,,0.00,0,MyOwnSoftware,2013-05-09 23:43:00,
2013-05-10 00:44:00,46.5,46.5,29.43,WNW,292,1.0,3.0,100,0.00,,,0.00,0,MyOwnSoftware,2013-05-09 23:44:00,
2013-05-10 00:45:00,46.5,46.5,29.43,WNW,292,0.0,1.0,100,0.00,,,0.00,0,MyOwnSoftware,2013-05-09 23:45:00,
2013-05-10 00:46:00,46.5,46.5,29.43,North,0,0.0,0.0,100,0.00,,,0.00,0,MyOwnSoftware,2013-05-09 23:46:00,
2013-05-10 00:47:00,46.5,47.0,29.43,WNW,285,0.0,-999.0,100,-99.99,,,0.00,0,weatherlink.com 1.10,2013-05-09 23:47:00,
2013-05-10 00:48:00,46.5,46.5,29.43,North,0,1.0,3.0,100,0.00,,,0.00,0,MyOwnSoftware,2013-05-09 23:48:00,
2013-05-10 00:49:00,46.5,46.5,29.43,North,0,0.0,0.0,100,0.00,,,0.00,0,MyOwnSoftware,2013-05-09 23:49:00,
2013-05-10 00:50:00,46.5,46.5,29.43,NNW,338,0.0,1.0,100,0.00,,,0.00,0,MyOwnSoftware,2013-05-09 23:50:00,
2013-05-10 00:51:00,46.5,46.5,29.43,NW,315,1.0,2.0,100,0.00,,,0.00,0,MyOwnSoftware,2013-05-09 23:51:00,
2013-05-10 00:52:00,46.5,46.5,29.43,WNW,292,1.0,3.0,100,0.00,,,0.00,0,MyOwnSoftware,2013-05-09 23:52:00,
2013-05-10 00:53:00,46.5,46.5,29.43,WNW,292,1.0,2.0,100,0.00,,,0.00,0,MyOwnSoftware,2013-05-09 23:53:00,
2013-05-10 00:54:00,46.5,46.5,29.43,WNW,292,0.0,3.0,100,0.00,,,0.00,0,MyOwnSoftware,2013-05-09 23:54:00,
2013-05-10 00:55:00,46.5,46.5,29.43,WNW,292,0.0,1.0,100,0.00,,,0.00,0,MyOwnSoftware,2013-05-09 23:55:00,
2013-05-10 00:56:00,46.5,46.5,29.43,WNW,292,0.0,2.0,100,0.00,,,0.00,0,MyOwnSoftware,2013-05-09 23:56:00,
2013-05-10 00:57:00,46.5,46.5,29.43,WNW,292,0.0,2.0,100,0.00,,,0.00,0,MyOwnSoftware,2013-05-09 23:57:00,
2013-05-10 00:58:00,46.7,46.7,29.43,WNW,292,0.0,1.0,100,0.00,,,0.00,0,MyOwnSoftware,2013-05-09 23:58:00,
2013-05-10 00:59:00,46.7,46.7,29.43,North,0,0.0,0.0,100,0.00,,,0.00,0,MyOwnSoftware,2013-05-09 23:59:00,
2013-05-10 01:00:00,46.7,46.7,29.43,North,0,0.0,0.0,100,0.00,,,0.00,0,MyOwnSoftware,2013-05-10 00:00:00,
2013-05-10 01:01:00,46.7,46.7,29.43,WNW,292,0.0,1.0,100,0.00,,,0.00,0,MyOwnSoftware,2013-05-10 00:01:00,
2013-05-10 01:02:00,46.7,47.0,29.43,WNW,285,0.0,-999.0,100,-99.99,,,0.00,0,weatherlink.com 1.10,2013-05-10 00:02:00,
2013-05-10 01:03:00,46.7,46.7,29.43,North,0,0.0,0.0,100,0.00,,,0.00,0,MyOwnSoftware,2013-05-10 00:03:00,
2013-05-10 01:04:00,46.7,46.7,29.43,North,0,0.0,0.0,100,0.00,,,0.00,0,MyOwnSoftware,2013-05-10 00:04:00,
2013-05-10 01:05:00,46.7,46.7,29.43,WNW,292,0.0,1.0,100,0.00,,,0.00,0,MyOwnSoftware,2013-05-10 00:05:00,
2013-05-10 01:06:00,46.7,46.7,29.43,WNW,292,1.0,2.0,100,0.00,,,0.00,0,MyOwnSoftware,2013-05-10 00:06:00,
2013-05-10 01:07:00,46.7,46.7,29.43,WNW,292,0.0,1.0,100,0.00,,,0.00,0,MyOwnSoftware,2013-05-10 00:07:00,
2013-05-10 01:08:00,46.7,46.7,29.43,WNW,292,0.0,1.0,100,0.00,,,0.00,0,MyOwnSoftware,2013-05-10 00:08:00,
2013-05-10 01:09:00,46.7,46.7,29.43,North,0,0.0,0.0,100,0.00,,,0.00,0,MyOwnSoftware,2013-05-10 00:09:00,
2013-05-10 01:10:00,46.7,46.7,29.43,West,270,2.0,5.0,100,0.00,,,0.00,0,MyOwnSoftware,2013-05-10 00:10:00,
2013-05-10 01:11:00,46.7,46.7,29.43,West,270,1.0,3.0,100,0.00,,,0.00,0,MyOwnSoftware,2013-05-10 00:11:00,
2013-05-10 01:12:00,46.7,46.7,29.43,West,270,1.0,3.0,100,0.00,,,0.00,0,MyOwnSoftware,2013-05-10 00:12:00,
2013-05-10 01:13:00,46.7,46.7,29.43,NW,315,1.0,3.0,100,0.00,,,0.00,0,MyOwnSoftware,2013-05-10 00:13:00,
2013-05-10 01:14:00,46.7,46.7,29.43,NW,315,0.0,1.0,100,0.00,,,0.00,0,MyOwnSoftware,2013-05-10 00:14:00,
2013-05-10 01:15:00,46.7,46.7,29.44,NW,315,0.0,2.0,100,0.00,,,0.00,0,MyOwnSoftware,2013-05-10 00:15:00,
2013-05-10 01:16:00,46.7,46.7,29.44,North,0,0.0,0.0,100,0.00,,,0.00,0,MyOwnSoftware,2013-05-10 00:16:00,
2013-05-10 01:17:00,46.7,47.0,29.44,NW,313,0.0,-999.0,100,-99.99,,,0.00,0,weatherlink.com 1.10,2013-05-10 00:17:00,
2013-05-10 01:18:00,46.7,46.7,29.44,North,0,0.0,0.0,100,0.00,,,0.00,0,MyOwnSoftware,2013-05-10 00:18:00,
2013-05-10 01:19:00,46.7,46.7,29.44,WNW,292,0.0,2.0,100,0.00,,,0.00,0,MyOwnSoftware,2013-05-10 00:19:00,
2013-05-10 01:20:00,46.7,46.7,29.44,West,270,2.0,3.0,100,0.00,,,0.00,0,MyOwnSoftware,2013-05-10 00:20:00,
2013-05-10 01:21:00,46.7,46.7,29.44,West,270,1.0,3.0,100,0.00,,,0.00,0,MyOwnSoftware,2013-05-10 00:21:00,
2013-05-10 01:22:00,46.7,46.7,29.44,WNW,292,0.0,1.0,100,0.00,,,0.00,0,MyOwnSoftware,2013-05-10 00:22:00,
2013-05-10 01:23:00,46.7,46.7,29.44,WNW,292,1.0,2.0,100,0.00,,,0.00,0,MyOwnSoftware,2013-05-10 00:23:00,
2013-05-10 01:24:00,46.7,46.7,29.44,WNW,292,0.0,1.0,100,0.00,,,0.00,0,MyOwnSoftware,2013-05-10 00:24:00,
2013-05-10 01:25:00,46.7,46.7,29.44,WNW,292,0.0,1.0,100,0.00,,,0.01,0,MyOwnSoftware,2013-05-10 00:25:00,
2013-05-10 01:26:00,46.7,46.7,29.44,West,270,1.0,3.0,100,0.00,,,0.01,0,MyOwnSoftware,2013-05-10 00:26:00,
2013-05-10 01:27:00,46.7,46.7,29.44,West,270,1.0,3.0,100,0.00,,,0.01,0,MyOwnSoftware,2013-05-10 00:27:00,
2013-05-10 01:28:00,46.7,46.7,29.44,North,0,0.0,0.0,100,0.00,,,0.01,0,MyOwnSoftware,2013-05-10 00:28:00,
2013-05-10 01:29:00,46.7,46.7,29.44,North,0,0.0,0.0,100,0.00,,,0.01,0,MyOwnSoftware,2013-05-10 00:29:00,
2013-05-10 01:30:00,46.7,46.7,29.44,West,270,0.0,1.0,100,0.00,,,0.01,0,MyOwnSoftware,2013-05-10 00:30:00,
2013-05-10 01:31:00,46.7,46.7,29.44,West,270,0.0,1.0,100,0.00,,,0.01,0,MyOwnSoftware,2013-05-10 00:31:00,
2013-05-10 01:32:00,46.7,47.0,29.44,West,278,2.0,-999.0,100,-99.99,,,0.01,0,weatherlink.com 1.10,2013-05-10 00:32:00,
2013-05-10 01:33:00,46.7,46.7,29.44,West,270,0.0,2.0,100,0.00,,,0.01,0,MyOwnSoftware,2013-05-10 00:33:00,
2013-05-10 01:34:00,46.7,46.7,29.44,North,0,0.0,0.0,100,0.00,,,0.01,0,MyOwnSoftware,2013-05-10 00:34:00,
2013-05-10 01:35:00,46.7,46.7,29.44,North,0,0.0,0.0,100,0.00,,,0.01,0,MyOwnSoftware,2013-05-10 00:35:00,
2013-05-10 01:36:00,46.7,46.7,29.44,West,270,0.0,1.0,100,0.00,,,0.01,0,MyOwnSoftware,2013-05-10 00:36:00,
2013-05-10 01:37:00,46.7,46.7,29.44,West,270,1.0,3.0,100,0.00,,,0.01,0,MyOwnSoftware,2013-05-10 00:37:00,
2013-05-10 01:38:00,46.7,46.7,29.44,West,270,0.0,1.0,100,0.00,,,0.01,0,MyOwnSoftware,2013-05-10 00:38:00,
2013-05-10 01:39:00,46.7,46.7,29.44,West,270,2.0,5.0,100,0.00,,,0.01,0,MyOwnSoftware,2013-05-10 00:39:00,
2013-05-10 01:40:00,46.7,46.7,29.44,West,270,0.0,1.0,100,0.00,,,0.01,0,MyOwnSoftware,2013-05-10 00:40:00,
2013-05-10 01:41:00,46.7,46.7,29.44,North,0,0.0,0.0,100,0.00,,,0.01,0,MyOwnSoftware,2013-05-10 00:41:00,
2013-05-10 01:42:00,46.7,46.7,29.44,West,270,0.0,3.0,100,0.00,,,0.01,0,MyOwnSoftware,2013-05-10 00:42:00,
2013-05-10 01:43:00,46.7,46.7,29.44,North,0,0.0,0.0,100,0.00,,,0.01,0,MyOwnSoftware,2013-05-10 00:43:00,
2013-05-10 01:44:00,46.7,46.7,29.44,North,0,0.0,0.0,100,0.00,,,0.02,0,MyOwnSoftware,2013-05-10 00:44:00,
2013-05-10 01:45:00,46.7,46.7,29.45,West,270,0.0,1.0,100,0.00,,,0.02,0,MyOwnSoftware,2013-05-10 00:45:00,
2013-05-10 01:46:00,46.7,46.7,29.45,North,0,0.0,0.0,100,0.00,,,0.02,0,MyOwnSoftware,2013-05-10 00:46:00,
2013-05-10 01:47:00,46.7,47.0,29.45,West,278,0.0,-999.0,100,-99.99,,,0.02,0,weatherlink.com 1.10,2013-05-10 00:47:00,
2013-05-10 01:48:00,46.7,46.7,29.45,West,270,0.0,1.0,100,0.00,,,0.02,0,MyOwnSoftware,2013-05-10 00:48:00,
2013-05-10 01:49:00,46.7,46.7,29.45,West,270,0.0,2.0,100,0.00,,,0.02,0,MyOwnSoftware,2013-05-10 00:49:00,
2013-05-10 01:50:00,46.7,46.7,29.45,North,0,0.0,0.0,100,0.00,,,0.02,0,MyOwnSoftware,2013-05-10 00:50:00,
2013-05-10 01:51:00,46.7,46.7,29.45,North,0,0.0,0.0,100,0.00,,,0.02,0,MyOwnSoftware,2013-05-10 00:51:00,
2013-05-10 01:52:00,46.8,46.8,29.45,West,270,0.0,1.0,100,0.00,,,0.02,0,MyOwnSoftware,2013-05-10 00:52:00,
2013-05-10 01:53:00,46.8,46.8,29.45,West,270,0.0,2.0,100,0.00,,,0.02,0,MyOwnSoftware,2013-05-10 00:53:00,
2013-05-10 01:54:00,46.8,46.8,29.45,West,270,0.0,1.0,100,0.00,,,0.02,0,MyOwnSoftware,2013-05-10 00:54:00,
2013-05-10 01:55:00,46.8,46.8,29.45,West,270,0.0,1.0,100,0.00,,,0.02,0,MyOwnSoftware,2013-05-10 00:55:00,
2013-05-10 01:56:00,46.8,46.8,29.45,WNW,292,0.0,3.0,100,0.00,,,0.02,0,MyOwnSoftware,2013-05-10 00:56:00,
2013-05-10 01:57:00,46.8,46.8,29.45,WNW,292,1.0,2.0,100,0.00,,,0.02,0,MyOwnSoftware,2013-05-10 00:57:00,
2013-05-10 01:58:00,46.8,46.8,29.45,NW,315,0.0,2.0,100,0.00,,,0.02,0,MyOwnSoftware,2013-05-10 00:58:00,
2013-05-10 01:59:00,46.8,46.8,29.45,WNW,292,0.0,1.0,100,0.00,,,0.02,0,MyOwnSoftware,2013-05-10 00:59:00,
2013-05-10 02:00:00,46.8,46.8,29.45,North,0,0.0,0.0,100,0.00,,,0.02,0,MyOwnSoftware,2013-05-10 01:00:00,
2013-05-10 02:01:00,46.8,46.8,29.45,WNW,292,0.0,1.0,100,0.00,,,0.02,0,MyOwnSoftware,2013-05-10 01:01:00,
2013-05-10 02:02:00,46.8,47.0,29.45,WNW,298,0.0,-999.0,100,-99.99,,,0.02,0,weatherlink.com 1.10,2013-05-10 01:02:00,
2013-05-10 02:03:00,46.8,46.8,29.45,WNW,292,0.0,1.0,100,0.00,,,0.02,0,MyOwnSoftware,2013-05-10 01:03:00,
2013-05-10 02:04:00,46.8,46.8,29.45,WNW,292,0.0,2.0,100,0.00,,,0.02,0,MyOwnSoftware,2013-05-10 01:04:00,
2013-05-10 02:05:00,46.8,46.8,29.45,WNW,292,0.0,2.0,100,0.00,,,0.03,0,MyOwnSoftware,2013-05-10 01:05:00,
2013-05-10 02:06:00,46.8,46.8,29.45,West,270,1.0,2.0,100,0.00,,,0.03,0,MyOwnSoftware,2013-05-10 01:06:00,
2013-05-10 02:07:00,46.8,46.8,29.45,West,270,1.0,2.0,100,0.00,,,0.03,0,MyOwnSoftware,2013-05-10 01:07:00,
2013-05-10 02:08:00,46.8,46.8,29.45,North,0,0.0,0.0,100,0.00,,,0.03,0,MyOwnSoftware,2013-05-10 01:08:00,
2013-05-10 02:09:00,46.8,46.8,29.45,WNW,292,1.0,3.0,100,0.00,,,0.03,0,MyOwnSoftware,2013-05-10 01:09:00,
2013-05-10 02:10:00,46.8,46.8,29.45,WNW,292,2.0,3.0,100,0.00,,,0.03,0,MyOwnSoftware,2013-05-10 01:10:00,
2013-05-10 02:11:00,46.8,46.8,29.45,West,270,1.0,2.0,100,0.00,,,0.03,0,MyOwnSoftware,2013-05-10 01:11:00,
2013-05-10 02:12:00,46.8,46.8,29.45,West,270,1.0,2.0,100,0.00,,,0.03,0,MyOwnSoftware,2013-05-10 01:12:00,
2013-05-10 02:13:00,46.8,46.8,29.45,WNW,292,1.0,3.0,100,0.00,,,0.03,0,MyOwnSoftware,2013-05-10 01:13:00,
2013-05-10 02:14:00,46.8,46.8,29.45,WNW,292,0.0,2.0,100,0.00,,,0.03,0,MyOwnSoftware,2013-05-10 01:14:00,
2013-05-10 02:15:00,46.8,46.8,29.45,North,0,0.0,0.0,100,0.00,,,0.03,0,MyOwnSoftware,2013-05-10 01:15:00,
2013-05-10 02:16:00,46.8,46.8,29.45,WNW,292,0.0,2.0,100,0.00,,,0.03,0,MyOwnSoftware,2013-05-10 01:16:00,
2013-05-10 02:17:00,46.8,47.0,29.45,WNW,288,0.0,-999.0,100,-99.99,,,0.03,0,weatherlink.com 1.10,2013-05-10 01:17:00,
2013-05-10 02:18:00,46.8,46.8,29.45,WNW,292,0.0,1.0,100,0.00,,,0.03,0,MyOwnSoftware,2013-05-10 01:18:00,
2013-05-10 02:19:00,46.8,46.8,29.45,WNW,292,0.0,1.0,100,0.00,,,0.03,0,MyOwnSoftware,2013-05-10 01:19:00,
2013-05-10 02:20:00,46.8,46.8,29.45,North,0,0.0,0.0,100,0.00,,,0.03,0,MyOwnSoftware,2013-05-10 01:20:00,
2013-05-10 02:21:00,46.8,46.8,29.45,North,0,0.0,0.0,100,0.00,,,0.03,0,MyOwnSoftware,2013-05-10 01:21:00,
2013-05-10 02:22:00,46.8,46.8,29.45,WNW,292,0.0,1.0,100,0.00,,,0.03,0,MyOwnSoftware,2013-05-10 01:22:00,
2013-05-10 02:23:00,46.8,46.8,29.45,West,270,3.0,6.0,100,0.00,,,0.03,0,MyOwnSoftware,2013-05-10 01:23:00,
2013-05-10 02:24:00,46.8,46.8,29.45,West,270,0.0,1.0,100,0.00,,,0.03,0,MyOwnSoftware,2013-05-10 01:24:00,
2013-05-10 02:25:00,46.8,46.8,29.45,West,270,1.0,3.0,100,0.00,,,0.03,0,MyOwnSoftware,2013-05-10 01:25:00,
2013-05-10 02:26:00,46.8,46.8,29.45,West,270,0.0,1.0,100,0.00,,,0.03,0,MyOwnSoftware,2013-05-10 01:26:00,
2013-05-10 02:27:00,46.8,46.8,29.45,West,270,0.0,1.0,100,0.00,,,0.03,0,MyOwnSoftware,2013-05-10 01:27:00,
2013-05-10 02:28:00,46.7,46.7,29.45,West,270,0.0,1.0,100,0.00,,,0.03,0,MyOwnSoftware,2013-05-10 01:28:00,
2013-05-10 02:29:00,46.7,46.7,29.45,West,270,0.0,1.0,100,0.00,,,0.03,0,MyOwnSoftware,2013-05-10 01:29:00,
2013-05-10 02:30:00,46.7,46.7,29.45,West,270,0.0,2.0,100,0.00,,,0.03,0,MyOwnSoftware,2013-05-10 01:30:00,
2013-05-10 02:31:00,46.7,46.7,29.45,WNW,292,0.0,2.0,100,0.00,,,0.03,0,MyOwnSoftware,2013-05-10 01:31:00,
2013-05-10 02:32:00,46.7,47.0,29.45,West,281,0.0,-999.0,100,-99.99,,,0.03,0,weatherlink.com 1.10,2013-05-10 01:32:00,
2013-05-10 02:33:00,46.7,46.7,29.45,North,0,0.0,0.0,100,0.00,,,0.03,0,MyOwnSoftware,2013-05-10 01:33:00,
2013-05-10 02:34:00,46.7,46.7,29.45,West,270,0.0,1.0,100,0.00,,,0.03,0,MyOwnSoftware,2013-05-10 01:34:00,
2013-05-10 02:35:00,46.7,46.7,29.45,West,270,0.0,1.0,100,0.00,,,0.04,0,MyOwnSoftware,2013-05-10 01:35:00,
2013-05-10 02:36:00,46.7,46.7,29.45,North,0,0.0,0.0,100,0.00,,,0.04,0,MyOwnSoftware,2013-05-10 01:36:00,
2013-05-10 02:37:00,46.7,46.7,29.45,West,270,0.0,1.0,100,0.00,,,0.04,0,MyOwnSoftware,2013-05-10 01:37:00,
2013-05-10 02:38:00,46.7,46.7,29.45,West,270,0.0,2.0,100,0.00,,,0.04,0,MyOwnSoftware,2013-05-10 01:38:00,
2013-05-10 02:39:00,46.7,46.7,29.45,North,0,0.0,0.0,100,0.00,,,0.04,0,MyOwnSoftware,2013-05-10 01:39:00,
2013-05-10 02:40:00,46.7,46.7,29.45,North,0,0.0,0.0,100,0.00,,,0.04,0,MyOwnSoftware,2013-05-10 01:40:00,
2013-05-10 02:41:00,46.7,46.7,29.45,North,0,0.0,0.0,100,0.00,,,0.04,0,MyOwnSoftware,2013-05-10 01:41:00,
2013-05-10 02:42:00,46.7,46.7,29.45,North,0,0.0,0.0,100,0.00,,,0.04,0,MyOwnSoftware,2013-05-10 01:42:00,
2013-05-10 02:43:00,46.7,46.7,29.45,West,270,0.0,1.0,100,0.00,,,0.04,0,MyOwnSoftware,2013-05-10 01:43:00,
2013-05-10 02:44:00,46.7,46.7,29.45,WNW,292,0.0,1.0,100,0.00,,,0.04,0,MyOwnSoftware,2013-05-10 01:44:00,
2013-05-10 02:45:00,46.7,46.7,29.46,North,0,0.0,0.0,100,0.00,,,0.04,0,MyOwnSoftware,2013-05-10 01:45:00,
2013-05-10 02:46:00,46.7,46.7,29.46,WNW,292,0.0,1.0,100,0.00,,,0.04,0,MyOwnSoftware,2013-05-10 01:46:00,
2013-05-10 02:47:00,46.7,47.0,29.46,West,280,0.0,-999.0,100,-99.99,,,0.04,0,weatherlink.com 1.10,2013-05-10 01:47:00,
2013-05-10 02:48:00,46.7,46.7,29.46,West,270,0.0,1.0,100,0.00,,,0.04,0,MyOwnSoftware,2013-05-10 01:48:00,
2013-05-10 02:49:00,46.7,46.7,29.46,West,270,0.0,1.0,100,0.00,,,0.04,0,MyOwnSoftware,2013-05-10 01:49:00,
2013-05-10 02:50:00,46.7,46.7,29.46,West,270,1.0,5.0,100,0.00,,,0.04,0,MyOwnSoftware,2013-05-10 01:50:00,
2013-05-10 02:51:00,46.5,46.5,29.46,North,0,0.0,0.0,100,0.00,,,0.04,0,MyOwnSoftware,2013-05-10 01:51:00,
2013-05-10 02:52:00,46.5,46.5,29.46,North,0,0.0,0.0,100,0.00,,,0.04,0,MyOwnSoftware,2013-05-10 01:52:00,
2013-05-10 02:53:00,46.5,46.5,29.46,West,270,0.0,2.0,100,0.00,,,0.04,0,MyOwnSoftware,2013-05-10 01:53:00,
2013-05-10 02:54:00,46.5,46.5,29.46,WNW,292,0.0,2.0,100,0.00,,,0.04,0,MyOwnSoftware,2013-05-10 01:54:00,
2013-05-10 02:55:00,46.5,46.5,29.46,NW,315,0.0,2.0,100,0.00,,,0.04,0,MyOwnSoftware,2013-05-10 01:55:00,
2013-05-10 02:56:00,46.5,46.5,29.46,North,0,0.0,0.0,100,0.00,,,0.04,0,MyOwnSoftware,2013-05-10 01:56:00,
2013-05-10 02:57:00,46.5,46.5,29.46,WNW,292,0.0,2.0,100,0.00,,,0.04,0,MyOwnSoftware,2013-05-10 01:57:00,
2013-05-10 02:58:00,46.5,46.5,29.46,WNW,292,0.0,1.0,100,0.00,,,0.04,0,MyOwnSoftware,2013-05-10 01:58:00,
2013-05-10 02:59:00,46.5,46.5,29.46,WNW,292,0.0,2.0,100,0.00,,,0.04,0,MyOwnSoftware,2013-05-10 01:59:00,
2013-05-10 03:00:00,46.5,46.5,29.46,WNW,292,0.0,1.0,100,0.00,,,0.04,0,MyOwnSoftware,2013-05-10 02:00:00,
2013-05-10 03:01:00,46.5,46.5,29.46,WNW,292,0.0,1.0,100,0.00,,,0.04,0,MyOwnSoftware,2013-05-10 02:01:00,
2013-05-10 03:02:00,46.5,47.0,29.46,WNW,292,1.0,-999.0,100,-99.99,,,0.04,0,weatherlink.com 1.10,2013-05-10 02:02:00,
2013-05-10 03:03:00,46.5,46.5,29.46,WNW,292,0.0,1.0,100,0.00,,,0.04,0,MyOwnSoftware,2013-05-10 02:03:00,
2013-05-10 03:04:00,46.5,46.5,29.46,WNW,292,0.0,2.0,100,0.00,,,0.04,0,MyOwnSoftware,2013-05-10 02:04:00,
2013-05-10 03:05:00,46.5,46.5,29.46,North,0,0.0,0.0,100,0.00,,,0.04,0,MyOwnSoftware,2013-05-10 02:05:00,
2013-05-10 03:06:00,46.5,46.5,29.46,WNW,292,0.0,1.0,100,0.00,,,0.04,0,MyOwnSoftware,2013-05-10 02:06:00,
2013-05-10 03:07:00,46.5,46.5,29.46,WNW,292,0.0,1.0,100,0.00,,,0.04,0,MyOwnSoftware,2013-05-10 02:07:00,
2013-05-10 03:08:00,46.5,46.5,29.46,WNW,292,0.0,2.0,100,0.00,,,0.04,0,MyOwnSoftware,2013-05-10 02:08:00,
2013-05-10 03:09:00,46.5,46.5,29.46,WNW,292,0.0,1.0,100,0.00,,,0.04,0,MyOwnSoftware,2013-05-10 02:09:00,
2013-05-10 03:10:00,46.5,46.5,29.46,WNW,292,0.0,2.0,100,0.00,,,0.04,0,MyOwnSoftware,2013-05-10 02:10:00,
2013-05-10 03:11:00,46.5,46.5,29.46,West,270,0.0,2.0,100,0.00,,,0.04,0,MyOwnSoftware,2013-05-10 02:11:00,
2013-05-10 03:12:00,46.5,46.5,29.46,NW,315,0.0,2.0,100,0.00,,,0.04,0,MyOwnSoftware,2013-05-10 02:12:00,
2013-05-10 03:13:00,46.5,46.5,29.46,North,0,0.0,0.0,100,0.00,,,0.04,0,MyOwnSoftware,2013-05-10 02:13:00,
2013-05-10 03:14:00,46.5,46.5,29.46,WNW,292,0.0,1.0,100,0.00,,,0.04,0,MyOwnSoftware,2013-05-10 02:14:00,
2013-05-10 03:15:00,46.5,46.5,29.47,NW,315,1.0,3.0,100,0.00,,,0.04,0,MyOwnSoftware,2013-05-10 02:15:00,
2013-05-10 03:16:00,46.5,46.5,29.47,NW,315,0.0,2.0,100,0.00,,,0.04,0,MyOwnSoftware,2013-05-10 02:16:00,
2013-05-10 03:17:00,46.5,47.0,29.47,WNW,301,0.0,-999.0,100,-99.99,,,0.04,0,weatherlink.com 1.10,2013-05-10 02:17:00,
2013-05-10 03:18:00,46.5,46.5,29.47,WNW,292,0.0,1.0,100,0.00,,,0.04,0,MyOwnSoftware,2013-05-10 02:18:00,
2013-05-10 03:19:00,46.5,46.5,29.47,West,270,1.0,3.0,100,0.00,,,0.04,0,MyOwnSoftware,2013-05-10 02:19:00,
2013-05-10 03:20:00,46.5,46.5,29.47,West,270,0.0,1.0,100,0.00,,,0.04,0,MyOwnSoftware,2013-05-10 02:20:00,
2013-05-10 03:21:00,46.5,46.5,29.47,WNW,292,1.0,3.0,100,0.00,,,0.04,0,MyOwnSoftware,2013-05-10 02:21:00,
2013-05-10 03:22:00,46.5,46.5,29.47,West,270,1.0,2.0,100,0.00,,,0.04,0,MyOwnSoftware,2013-05-10 02:22:00,
2013-05-10 03:23:00,46.5,46.5,29.47,WNW,292,1.0,3.0,100,0.00,,,0.04,0,MyOwnSoftware,2013-05-10 02:23:00,
2013-05-10 03:24:00,46.5,46.5,29.47,WNW,292,0.0,1.0,100,0.00,,,0.04,0,MyOwnSoftware,2013-05-10 02:24:00,
2013-05-10 03:25:00,46.5,46.5,29.47,WNW,292,0.0,1.0,100,0.00,,,0.04,0,MyOwnSoftware,2013-05-10 02:25:00,
2013-05-10 03:26:00,46.5,46.5,29.47,West,270,1.0,3.0,100,0.00,,,0.04,0,MyOwnSoftware,2013-05-10 02:26:00,
2013-05-10 03:27:00,46.5,46.5,29.47,WNW,292,0.0,3.0,100,0.00,,,0.04,0,MyOwnSoftware,2013-05-10 02:27:00,
2013-05-10 03:28:00,46.5,46.5,29.47,West,270,1.0,3.0,100,0.00,,,0.04,0,MyOwnSoftware,2013-05-10 02:28:00,
2013-05-10 03:29:00,46.5,46.5,29.47,West,270,0.0,1.0,100,0.00,,,0.04,0,MyOwnSoftware,2013-05-10 02:29:00,
2013-05-10 03:30:00,46.5,46.5,29.47,North,0,0.0,0.0,100,0.00,,,0.04,0,MyOwnSoftware,2013-05-10 02:30:00,
2013-05-10 03:31:00,46.5,46.5,29.47,West,270,1.0,2.0,100,0.00,,,0.04,0,MyOwnSoftware,2013-05-10 02:31:00,
2013-05-10 03:32:00,46.5,47.0,29.47,WNW,284,0.0,-999.0,100,-99.99,,,0.04,0,weatherlink.com 1.10,2013-05-10 02:32:00,
2013-05-10 03:33:00,46.4,46.4,29.47,WNW,292,0.0,1.0,100,0.00,,,0.04,0,MyOwnSoftware,2013-05-10 02:33:00,
2013-05-10 03:34:00,46.4,46.4,29.47,WNW,292,0.0,2.0,100,0.00,,,0.04,0,MyOwnSoftware,2013-05-10 02:34:00,
2013-05-10 03:35:00,46.4,46.4,29.47,WNW,292,1.0,2.0,100,0.00,,,0.04,0,MyOwnSoftware,2013-05-10 02:35:00,
2013-05-10 03:36:00,46.4,46.4,29.47,NNW,338,1.0,2.0,100,0.00,,,0.04,0,MyOwnSoftware,2013-05-10 02:36:00,
2013-05-10 03:37:00,46.4,46.4,29.47,NW,315,0.0,1.0,100,0.00,,,0.04,0,MyOwnSoftware,2013-05-10 02:37:00,
2013-05-10 03:38:00,46.4,46.4,29.47,WNW,292,0.0,2.0,100,0.00,,,0.04,0,MyOwnSoftware,2013-05-10 02:38:00,
2013-05-10 03:39:00,46.4,46.4,29.47,North,0,0.0,0.0,100,0.00,,,0.04,0,MyOwnSoftware,2013-05-10 02:39:00,
2013-05-10 03:40:00,46.4,46.4,29.47,WNW,292,0.0,2.0,100,0.00,,,0.04,0,MyOwnSoftware,2013-05-10 02:40:00,
2013-05-10 03:41:00,46.4,46.4,29.47,WNW,292,0.0,1.0,100,0.00,,,0.04,0,MyOwnSoftware,2013-05-10 02:41:00,
2013-05-10 03:42:00,46.4,46.4,29.47,WNW,292,0.0,1.0,100,0.00,,,0.04,0,MyOwnSoftware,2013-05-10 02:42:00,
2013-05-10 03:43:00,46.4,46.4,29.47,WNW,292,0.0,2.0,100,0.00,,,0.04,0,MyOwnSoftware,2013-05-10 02:43:00,
2013-05-10 03:44:00,46.4,46.4,29.47,WNW,292,0.0,1.0,100,0.00,,,0.04,0,MyOwnSoftware,2013-05-10 02:44:00,
2013-05-10 03:45:00,46.4,46.4,29.47,WNW,292,0.0,1.0,100,0.00,,,0.04,0,MyOwnSoftware,2013-05-10 02:45:00,
2013-05-10 03:46:00,46.4,46.4,29.47,North,0,0.0,0.0,100,0.00,,,0.04,0,MyOwnSoftware,2013-05-10 02:46:00,
2013-05-10 03:47:00,46.5,47.0,29.47,West,270,0.0,-999.0,100,-99.99,,,0.04,0,weatherlink.com 1.10,2013-05-10 02:47:00,
2013-05-10 03:48:00,46.5,46.5,29.47,West,270,0.0,1.0,100,0.00,,,0.04,0,MyOwnSoftware,2013-05-10 02:48:00,
2013-05-10 03:49:00,46.5,46.5,29.47,West,270,0.0,2.0,100,0.00,,,0.04,0,MyOwnSoftware,2013-05-10 02:49:00,
2013-05-10 03:50:00,46.5,46.5,29.47,NW,315,0.0,2.0,100,0.00,,,0.04,0,MyOwnSoftware,2013-05-10 02:50:00,
2013-05-10 03:51:00,46.5,46.5,29.47,WNW,292,0.0,3.0,100,0.00,,,0.04,0,MyOwnSoftware,2013-05-10 02:51:00,
2013-05-10 03:52:00,46.5,46.5,29.47,WNW,292,0.0,2.0,100,0.00,,,0.04,0,MyOwnSoftware,2013-05-10 02:52:00,
2013-05-10 03:53:00,46.5,46.5,29.47,SSW,202,0.0,1.0,100,0.00,,,0.04,0,MyOwnSoftware,2013-05-10 02:53:00,
2013-05-10 03:54:00,46.5,46.5,29.47,WNW,292,0.0,1.0,100,0.00,,,0.04,0,MyOwnSoftware,2013-05-10 02:54:00,
2013-05-10 03:55:00,46.5,46.5,29.47,WNW,292,1.0,3.0,100,0.00,,,0.05,0,MyOwnSoftware,2013-05-10 02:55:00,
2013-05-10 03:56:00,46.5,46.5,29.47,WNW,292,0.0,2.0,100,0.00,,,0.05,0,MyOwnSoftware,2013-05-10 02:56:00,
2013-05-10 03:57:00,46.5,46.5,29.47,WNW,292,0.0,2.0,100,0.00,,,0.05,0,MyOwnSoftware,2013-05-10 02:57:00,
2013-05-10 03:58:00,46.5,46.5,29.47,West,270,0.0,2.0,100,0.00,,,0.05,0,MyOwnSoftware,2013-05-10 02:58:00,
2013-05-10 03:59:00,46.5,46.5,29.47,SSW,202,0.0,1.0,100,0.00,,,0.05,0,MyOwnSoftware,2013-05-10 02:59:00,
2013-05-10 04:00:00,46.5,46.5,29.48,SW,225,0.0,2.0,100,0.00,,,0.05,0,MyOwnSoftware,2013-05-10 03:00:00,
2013-05-10 04:01:00,46.5,46.5,29.48,West,270,0.0,1.0,100,0.00,,,0.05,0,MyOwnSoftware,2013-05-10 03:01:00,
2013-05-10 04:02:00,46.5,47.0,29.48,West,265,0.0,-999.0,100,-99.99,,,0.05,0,weatherlink.com 1.10,2013-05-10 03:02:00,
2013-05-10 04:03:00,46.5,46.5,29.48,North,0,0.0,0.0,100,0.00,,,0.05,0,MyOwnSoftware,2013-05-10 03:03:00,
2013-05-10 04:04:00,46.5,46.5,29.48,WNW,292,0.0,1.0,100,0.00,,,0.05,0,MyOwnSoftware,2013-05-10 03:04:00,
2013-05-10 04:05:00,46.5,46.5,29.48,WNW,292,0.0,1.0,100,0.00,,,0.05,0,MyOwnSoftware,2013-05-10 03:05:00,
2013-05-10 04:06:00,46.4,46.4,29.48,North,0,0.0,0.0,100,0.00,,,0.05,0,MyOwnSoftware,2013-05-10 03:06:00,
2013-05-10 04:07:00,46.5,46.5,29.48,WNW,292,0.0,1.0,100,0.00,,,0.05,0,MyOwnSoftware,2013-05-10 03:07:00,
2013-05-10 04:08:00,46.5,46.5,29.48,WNW,292,0.0,1.0,100,0.00,,,0.05,0,MyOwnSoftware,2013-05-10 03:08:00,
2013-05-10 04:09:00,46.5,46.5,29.48,WSW,248,1.0,3.0,100,0.00,,,0.05,0,MyOwnSoftware,2013-05-10 03:09:00,
2013-05-10 04:10:00,46.5,46.5,29.48,North,0,0.0,0.0,100,0.00,,,0.05,0,MyOwnSoftware,2013-05-10 03:10:00,
2013-05-10 04:11:00,46.5,46.5,29.48,WSW,248,0.0,2.0,100,0.00,,,0.05,0,MyOwnSoftware,2013-05-10 03:11:00,
2013-05-10 04:12:00,46.5,46.5,29.48,WSW,248,0.0,1.0,100,0.00,,,0.05,0,MyOwnSoftware,2013-05-10 03:12:00,
2013-05-10 04:13:00,46.5,46.5,29.48,SSW,202,0.0,2.0,100,0.00,,,0.05,0,MyOwnSoftware,2013-05-10 03:13:00,
2013-05-10 04:14:00,46.5,46.5,29.48,North,0,0.0,0.0,100,0.00,,,0.05,0,MyOwnSoftware,2013-05-10 03:14:00,
2013-05-10 04:15:00,46.5,46.5,29.48,SSW,202,0.0,2.0,100,0.00,,,0.05,0,MyOwnSoftware,2013-05-10 03:15:00,
2013-05-10 04:16:00,46.5,46.5,29.48,North,0,0.0,0.0,100,0.00,,,0.05,0,MyOwnSoftware,2013-05-10 03:16:00,
2013-05-10 04:17:00,46.5,47.0,29.48,SW,220,3.0,-999.0,100,-99.99,,,0.05,0,weatherlink.com 1.10,2013-05-10 03:17:00,
2013-05-10 04:18:00,46.5,46.5,29.48,SW,225,1.0,6.0,100,0.00,,,0.05,0,MyOwnSoftware,2013-05-10 03:18:00,
2013-05-10 04:19:00,46.5,46.5,29.48,SSW,202,2.0,4.0,100,0.00,,,0.05,0,MyOwnSoftware,2013-05-10 03:19:00,
2013-05-10 04:20:00,46.5,46.5,29.48,SW,225,2.0,3.0,100,0.00,,,0.05,0,MyOwnSoftware,2013-05-10 03:20:00,
2013-05-10 04:21:00,46.5,46.5,29.48,South,180,0.0,1.0,100,0.00,,,0.05,0,MyOwnSoftware,2013-05-10 03:21:00,
2013-05-10 04:22:00,46.5,46.5,29.48,South,180,1.0,2.0,100,0.00,,,0.05,0,MyOwnSoftware,2013-05-10 03:22:00,
2013-05-10 04:23:00,46.5,46.5,29.48,SSW,202,1.0,3.0,100,0.00,,,0.05,0,MyOwnSoftware,2013-05-10 03:23:00,
2013-05-10 04:24:00,46.5,46.5,29.48,SW,225,2.0,3.0,100,0.00,,,0.05,0,MyOwnSoftware,2013-05-10 03:24:00,
2013-05-10 04:25:00,46.5,46.5,29.48,SW,225,2.0,6.0,100,0.00,,,0.05,0,MyOwnSoftware,2013-05-10 03:25:00,
2013-05-10 04:26:00,46.5,46.5,29.48,SSW,202,2.0,3.0,100,0.00,,,0.05,0,MyOwnSoftware,2013-05-10 03:26:00,
2013-05-10 04:27:00,46.5,46.5,29.48,SW,225,1.0,3.0,100,0.00,,,0.05,0,MyOwnSoftware,2013-05-10 03:27:00,
2013-05-10 04:28:00,46.5,46.5,29.48,WSW,248,0.0,2.0,100,0.00,,,0.05,0,MyOwnSoftware,2013-05-10 03:28:00,
2013-05-10 04:29:00,46.5,46.5,29.48,WSW,248,1.0,3.0,100,0.00,,,0.05,0,MyOwnSoftware,2013-05-10 03:29:00,
2013-05-10 04:30:00,46.5,46.5,29.48,SW,225,2.0,5.0,100,0.00,,,0.05,0,MyOwnSoftware,2013-05-10 03:30:00,
2013-05-10 04:31:00,46.5,46.5,29.48,WSW,248,0.0,1.0,100,0.00,,,0.05,0,MyOwnSoftware,2013-05-10 03:31:00,
2013-05-10 04:32:00,46.5,47.0,29.48,WSW,243,2.0,-999.0,100,-99.99,,,0.05,0,weatherlink.com 1.10,2013-05-10 03:32:00,
2013-05-10 04:33:00,46.5,46.5,29.48,SW,225,1.0,2.0,100,0.00,,,0.05,0,MyOwnSoftware,2013-05-10 03:33:00,
2013-05-10 04:34:00,46.5,46.5,29.48,SSW,202,1.0,3.0,100,0.00,,,0.05,0,MyOwnSoftware,2013-05-10 03:34:00,
2013-05-10 04:35:00,46.5,46.5,29.48,WSW,248,2.0,3.0,100,0.00,,,0.05,0,MyOwnSoftware,2013-05-10 03:35:00,
2013-05-10 04:36:00,46.5,46.5,29.48,SW,225,2.0,3.0,100,0.00,,,0.05,0,MyOwnSoftware,2013-05-10 03:36:00,
2013-05-10 04:37:00,46.5,46.5,29.48,SSW,202,3.0,6.0,100,0.00,,,0.05,0,MyOwnSoftware,2013-05-10 03:37:00,
2013-05-10 04:38:00,46.5,46.5,29.48,SSW,202,3.0,7.0,100,0.00,,,0.05,0,MyOwnSoftware,2013-05-10 03:38:00,
2013-05-10 04:39:00,46.5,46.5,29.48,WSW,248,0.0,3.0,100,0.00,,,0.05,0,MyOwnSoftware,2013-05-10 03:39:00,
2013-05-10 04:40:00,46.5,46.5,29.48,WSW,248,0.0,1.0,100,0.00,,,0.05,0,MyOwnSoftware,2013-05-10 03:40:00,
2013-05-10 04:41:00,46.5,46.5,29.48,WSW,248,1.0,2.0,100,0.00,,,0.05,0,MyOwnSoftware,2013-05-10 03:41:00,
2013-05-10 04:42:00,46.5,46.5,29.48,SW,225,1.0,3.0,100,0.00,,,0.05,0,MyOwnSoftware,2013-05-10 03:42:00,
2013-05-10 04:43:00,46.5,46.5,29.48,SW,225,3.0,6.0,100,0.00,,,0.05,0,MyOwnSoftware,2013-05-10 03:43:00,
2013-05-10 04:44:00,46.5,46.5,29.48,SW,225,1.0,3.0,100,0.00,,,0.05,0,MyOwnSoftware,2013-05-10 03:44:00,
2013-05-10 04:45:00,46.5,46.5,29.48,SSW,202,1.0,3.0,100,0.00,,,0.05,0,MyOwnSoftware,2013-05-10 03:45:00,
2013-05-10 04:46:00,46.5,46.5,29.48,West,270,1.0,2.0,100,0.00,,,0.05,0,MyOwnSoftware,2013-05-10 03:46:00,
2013-05-10 04:47:00,46.5,47.0,29.48,West,267,2.0,-999.0,100,-99.99,,,0.05,0,weatherlink.com 1.10,2013-05-10 03:47:00,
2013-05-10 04:48:00,46.5,46.5,29.48,WNW,292,1.0,3.0,100,0.00,,,0.05,0,MyOwnSoftware,2013-05-10 03:48:00,
2013-05-10 04:49:00,46.4,46.4,29.48,West,270,1.0,5.0,100,0.00,,,0.05,0,MyOwnSoftware,2013-05-10 03:49:00,
2013-05-10 04:50:00,46.4,46.4,29.48,WSW,248,0.0,2.0,100,0.00,,,0.05,0,MyOwnSoftware,2013-05-10 03:50:00,
2013-05-10 04:51:00,46.4,46.4,29.48,WSW,248,1.0,1.0,100,0.00,,,0.05,0,MyOwnSoftware,2013-05-10 03:51:00,
2013-05-10 04:52:00,46.4,46.4,29.48,WNW,292,1.0,2.0,100,0.00,,,0.05,0,MyOwnSoftware,2013-05-10 03:52:00,
2013-05-10 04:53:00,46.4,46.4,29.48,WNW,292,0.0,1.0,100,0.00,,,0.05,0,MyOwnSoftware,2013-05-10 03:53:00,
2013-05-10 04:54:00,46.4,46.4,29.48,North,0,0.0,0.0,100,0.00,,,0.05,0,MyOwnSoftware,2013-05-10 03:54:00,
2013-05-10 04:55:00,46.4,46.4,29.48,North,0,0.0,0.0,100,0.00,,,0.05,0,MyOwnSoftware,2013-05-10 03:55:00,
2013-05-10 04:56:00,46.4,46.4,29.48,WNW,292,0.0,1.0,100,0.00,,,0.05,0,MyOwnSoftware,2013-05-10 03:56:00,
2013-05-10 04:57:00,46.4,46.4,29.48,WNW,292,0.0,1.0,100,0.00,,,0.05,0,MyOwnSoftware,2013-05-10 03:57:00,
2013-05-10 04:58:00,46.4,46.4,29.48,SW,225,2.0,3.0,100,0.00,,,0.05,0,MyOwnSoftware,2013-05-10 03:58:00,
2013-05-10 04:59:00,46.4,46.4,29.48,South,180,1.0,5.0,100,0.00,,,0.05,0,MyOwnSoftware,2013-05-10 03:59:00,
2013-05-10 05:00:00,46.4,46.4,29.48,SSW,202,1.0,2.0,100,0.00,,,0.05,0,MyOwnSoftware,2013-05-10 04:00:00,
2013-05-10 05:01:00,46.4,46.4,29.48,SW,225,1.0,3.0,100,0.00,,,0.05,0,MyOwnSoftware,2013-05-10 04:01:00,
2013-05-10 05:02:00,46.2,46.0,29.48,SSW,200,2.0,-999.0,100,-99.99,,,0.05,0,weatherlink.com 1.10,2013-05-10 04:02:00,
2013-05-10 05:03:00,46.2,46.2,29.48,SSW,202,2.0,5.0,100,0.00,,,0.05,0,MyOwnSoftware,2013-05-10 04:03:00,
2013-05-10 05:04:00,46.2,46.2,29.48,SSW,202,1.0,3.0,100,0.00,,,0.05,0,MyOwnSoftware,2013-05-10 04:04:00,
2013-05-10 05:05:00,46.2,46.2,29.48,SW,225,2.0,3.0,100,0.00,,,0.05,0,MyOwnSoftware,2013-05-10 04:05:00,
2013-05-10 05:06:00,46.2,46.2,29.48,SSW,202,1.0,2.0,100,0.00,,,0.05,0,MyOwnSoftware,2013-05-10 04:06:00,
2013-05-10 05:07:00,46.2,46.2,29.48,SW,225,1.0,2.0,100,0.00,,,0.05,0,MyOwnSoftware,2013-05-10 04:07:00,
2013-05-10 05:08:00,46.2,46.2,29.48,SW,225,1.0,3.0,100,0.00,,,0.05,0,MyOwnSoftware,2013-05-10 04:08:00,
2013-05-10 05:09:00,46.2,46.2,29.48,SW,225,0.0,1.0,100,0.00,,,0.05,0,MyOwnSoftware,2013-05-10 04:09:00,
2013-05-10 05:10:00,46.2,46.2,29.48,West,270,0.0,2.0,100,0.00,,,0.05,0,MyOwnSoftware,2013-05-10 04:10:00,
2013-05-10 05:11:00,46.2,46.2,29.48,SSW,202,1.0,3.0,100,0.00,,,0.05,0,MyOwnSoftware,2013-05-10 04:11:00,
2013-05-10 05:12:00,46.2,46.2,29.48,SW,225,1.0,3.0,100,0.00,,,0.05,0,MyOwnSoftware,2013-05-10 04:12:00,
2013-05-10 05:13:00,46.2,46.2,29.48,SW,225,2.0,6.0,100,0.00,,,0.05,0,MyOwnSoftware,2013-05-10 04:13:00,
2013-05-10 05:14:00,46.2,46.2,29.48,WSW,248,1.0,3.0,100,0.00,,,0.05,0,MyOwnSoftware,2013-05-10 04:14:00,
2013-05-10 05:15:00,46.2,46.2,29.49,SW,225,1.0,3.0,100,0.00,,,0.05,0,MyOwnSoftware,2013-05-10 04:15:00,
2013-05-10 05:16:00,46.1,46.1,29.49,SW,225,2.0,4.0,100,0.00,,,0.05,0,MyOwnSoftware,2013-05-10 04:16:00,
2013-05-10 05:17:00,46.1,46.0,29.49,SSW,198,1.0,-999.0,100,-99.99,,,0.05,0,weatherlink.com 1.10,2013-05-10 04:17:00,
2013-05-10 05:18:00,46.1,46.1,29.49,SSW,202,2.0,3.0,100,0.00,,,0.05,0,MyOwnSoftware,2013-05-10 04:18:00,
2013-05-10 05:19:00,46.1,46.1,29.49,SW,225,1.0,2.0,100,0.00,,,0.05,5,MyOwnSoftware,2013-05-10 04:19:00,
2013-05-10 05:20:00,46.1,46.1,29.49,SSW,202,1.0,3.0,100,0.00,,,0.05,5,MyOwnSoftware,2013-05-10 04:20:00,
2013-05-10 05:21:00,46.1,46.1,29.49,SSW,202,0.0,1.0,100,0.00,,,0.05,5,MyOwnSoftware,2013-05-10 04:21:00,
2013-05-10 05:22:00,46.1,46.1,29.49,SW,225,2.0,3.0,100,0.00,,,0.05,5,MyOwnSoftware,2013-05-10 04:22:00,
2013-05-10 05:23:00,46.1,46.1,29.49,SSW,202,2.0,5.0,100,0.00,,,0.05,5,MyOwnSoftware,2013-05-10 04:23:00,
2013-05-10 05:24:00,46.1,46.1,29.49,South,180,1.0,4.0,100,0.00,,,0.05,5,MyOwnSoftware,2013-05-10 04:24:00,
2013-05-10 05:25:00,46.1,46.1,29.49,North,0,0.0,0.0,100,0.00,,,0.05,5,MyOwnSoftware,2013-05-10 04:25:00,
2013-05-10 05:26:00,46.1,46.1,29.49,SSW,202,2.0,3.0,100,0.00,,,0.05,5,MyOwnSoftware,2013-05-10 04:26:00,
2013-05-10 05:27:00,46.1,46.1,29.49,SSW,202,1.0,3.0,100,0.00,,,0.05,5,MyOwnSoftware,2013-05-10 04:27:00,
2013-05-10 05:28:00,46.1,46.1,29.49,SW,225,1.0,2.0,100,0.00,,,0.05,5,MyOwnSoftware,2013-05-10 04:28:00,
2013-05-10 05:29:00,46.1,46.1,29.49,WSW,248,2.0,4.0,100,0.00,,,0.05,5,MyOwnSoftware,2013-05-10 04:29:00,
2013-05-10 05:30:00,46.1,46.1,29.49,SW,225,1.0,4.0,100,0.00,,,0.05,5,MyOwnSoftware,2013-05-10 04:30:00,
2013-05-10 05:31:00,46.1,46.1,29.49,SW,225,2.0,3.0,100,0.00,,,0.05,5,MyOwnSoftware,2013-05-10 04:31:00,
2013-05-10 05:32:00,46.1,46.0,29.49,SW,219,0.0,-999.0,100,-99.99,,,0.05,7,weatherlink.com 1.10,2013-05-10 04:32:00,
2013-05-10 05:33:00,46.1,46.1,29.49,SSW,202,2.0,6.0,100,0.00,,,0.05,7,MyOwnSoftware,2013-05-10 04:33:00,
2013-05-10 05:34:00,46.0,46.0,29.49,SSW,202,1.0,3.0,100,0.00,,,0.05,7,MyOwnSoftware,2013-05-10 04:34:00,
2013-05-10 05:35:00,46.0,46.0,29.49,SW,225,2.0,3.0,100,0.00,,,0.05,7,MyOwnSoftware,2013-05-10 04:35:00,
2013-05-10 05:36:00,46.0,46.0,29.49,SSW,202,1.0,5.0,100,0.00,,,0.05,7,MyOwnSoftware,2013-05-10 04:36:00,
2013-05-10 05:37:00,46.0,46.0,29.49,SSW,202,2.0,6.0,100,0.00,,,0.05,7,MyOwnSoftware,2013-05-10 04:37:00,
2013-05-10 05:38:00,46.0,46.0,29.49,SW,225,2.0,3.0,100,0.00,,,0.05,7,MyOwnSoftware,2013-05-10 04:38:00,
2013-05-10 05:39:00,46.0,46.0,29.49,SW,225,1.0,3.0,100,0.00,,,0.05,7,MyOwnSoftware,2013-05-10 04:39:00,
2013-05-10 05:40:00,46.0,46.0,29.49,SSW,202,1.0,3.0,100,0.00,,,0.05,12,MyOwnSoftware,2013-05-10 04:40:00,
2013-05-10 05:41:00,46.0,46.0,29.49,SSW,202,1.0,3.0,100,0.00,,,0.05,12,MyOwnSoftware,2013-05-10 04:41:00,
2013-05-10 05:42:00,46.1,46.1,29.49,SW,225,3.0,5.0,100,0.00,,,0.05,12,MyOwnSoftware,2013-05-10 04:42:00,
2013-05-10 05:43:00,46.0,46.0,29.49,SSW,202,1.0,6.0,100,0.00,,,0.05,12,MyOwnSoftware,2013-05-10 04:43:00,
2013-05-10 05:44:00,46.0,46.0,29.49,SSW,202,1.0,3.0,100,0.00,,,0.05,16,MyOwnSoftware,2013-05-10 04:44:00,
2013-05-10 05:45:00,46.0,46.0,29.50,SW,225,1.0,3.0,100,0.00,,,0.05,16,MyOwnSoftware,2013-05-10 04:45:00,
2013-05-10 05:46:00,46.0,46.0,29.50,SW,225,0.0,3.0,100,0.00,,,0.05,16,MyOwnSoftware,2013-05-10 04:46:00,
2013-05-10 05:47:00,46.0,46.0,29.50,SW,216,0.0,-999.0,100,-99.99,,,0.05,16,weatherlink.com 1.10,2013-05-10 04:47:00,
2013-05-10 05:48:00,46.0,46.0,29.50,SW,225,1.0,4.0,100,0.00,,,0.05,17,MyOwnSoftware,2013-05-10 04:48:00,
2013-05-10 05:49:00,46.0,46.0,29.50,SW,225,1.0,3.0,100,0.00,,,0.05,18,MyOwnSoftware,2013-05-10 04:49:00,
2013-05-10 05:50:00,46.0,46.0,29.50,SW,225,1.0,5.0,100,0.00,,,0.05,18,MyOwnSoftware,2013-05-10 04:50:00,
2013-05-10 05:51:00,46.0,46.0,29.50,SSW,202,2.0,4.0,100,0.00,,,0.05,18,MyOwnSoftware,2013-05-10 04:51:00,
2013-05-10 05:52:00,46.0,46.0,29.50,WSW,248,1.0,6.0,100,0.00,,,0.05,18,MyOwnSoftware,2013-05-10 04:52:00,
2013-05-10 05:53:00,46.0,46.0,29.50,SW,225,1.0,2.0,100,0.00,,,0.05,21,MyOwnSoftware,2013-05-10 04:53:00,
2013-05-10 05:54:00,46.0,46.0,29.50,SW,225,2.0,6.0,100,0.00,,,0.05,21,MyOwnSoftware,2013-05-10 04:54:00,
2013-05-10 05:55:00,46.0,46.0,29.50,SW,225,2.0,5.0,100,0.00,,,0.05,21,MyOwnSoftware,2013-05-10 04:55:00,
2013-05-10 05:56:00,46.0,46.0,29.50,SW,225,2.0,5.0,100,0.00,,,0.05,21,MyOwnSoftware,2013-05-10 04:56:00,
2013-05-10 05:57:00,46.0,46.0,29.50,SW,225,1.0,3.0,100,0.00,,,0.05,25,MyOwnSoftware,2013-05-10 04:57:00,
2013-05-10 05:58:00,46.0,46.0,29.50,South,180,1.0,3.0,100,0.00,,,0.05,25,MyOwnSoftware,2013-05-10 04:58:00,
2013-05-10 05:59:00,46.0,46.0,29.50,SW,225,1.0,3.0,100,0.00,,,0.05,25,MyOwnSoftware,2013-05-10 04:59:00,
2013-05-10 06:00:00,46.0,46.0,29.50,SSW,202,2.0,5.0,100,0.00,,,0.05,25,MyOwnSoftware,2013-05-10 05:00:00,
2013-05-10 06:01:00,46.0,46.0,29.50,WSW,248,1.0,5.0,100,0.00,,,0.05,26,MyOwnSoftware,2013-05-10 05:01:00,
2013-05-10 06:02:00,46.0,46.0,29.50,SSW,209,4.0,-999.0,100,-99.99,,,0.05,26,weatherlink.com 1.10,2013-05-10 05:02:00,
2013-05-10 06:03:00,46.0,46.0,29.50,SSW,202,1.0,5.0,100,0.00,,,0.05,26,MyOwnSoftware,2013-05-10 05:03:00,
2013-05-10 06:04:00,46.0,46.0,29.50,SSW,202,1.0,2.0,100,0.00,,,0.05,26,MyOwnSoftware,2013-05-10 05:04:00,
2013-05-10 06:05:00,46.0,46.0,29.50,SW,225,1.0,3.0,100,0.00,,,0.05,30,MyOwnSoftware,2013-05-10 05:05:00,
2013-05-10 06:06:00,46.0,46.0,29.50,SSW,202,2.0,4.0,100,0.00,,,0.05,30,MyOwnSoftware,2013-05-10 05:06:00,
2013-05-10 06:07:00,46.0,46.0,29.50,West,270,1.0,3.0,100,0.00,,,0.05,30,MyOwnSoftware,2013-05-10 05:07:00,
2013-05-10 06:08:00,46.0,46.0,29.50,WSW,248,0.0,1.0,100,0.00,,,0.05,30,MyOwnSoftware,2013-05-10 05:08:00,
2013-05-10 06:09:00,46.0,46.0,29.50,SW,225,2.0,6.0,100,0.00,,,0.05,32,MyOwnSoftware,2013-05-10 05:09:00,
2013-05-10 06:10:00,46.0,46.0,29.50,WSW,248,1.0,2.0,100,0.00,,,0.05,32,MyOwnSoftware,2013-05-10 05:10:00,
2013-05-10 06:11:00,46.0,46.0,29.50,SW,225,1.0,4.0,100,0.00,,,0.05,32,MyOwnSoftware,2013-05-10 05:11:00,
2013-05-10 06:12:00,46.0,46.0,29.50,SW,225,1.0,3.0,100,0.00,,,0.05,32,MyOwnSoftware,2013-05-10 05:12:00,
2013-05-10 06:13:00,46.0,46.0,29.50,SSW,202,1.0,2.0,100,0.00,,,0.05,32,MyOwnSoftware,2013-05-10 05:13:00,
2013-05-10 06:14:00,46.1,46.1,29.50,SW,225,1.0,3.0,100,0.00,,,0.05,32,MyOwnSoftware,2013-05-10 05:14:00,
2013-05-10 06:15:00,46.1,46.1,29.51,North,0,0.0,0.0,100,0.00,,,0.05,32,MyOwnSoftware,2013-05-10 05:15:00,
2013-05-10 06:16:00,46.1,46.1,29.51,WSW,248,0.0,1.0,100,0.00,,,0.05,32,MyOwnSoftware,2013-05-10 05:16:00,
2013-05-10 06:17:00,46.1,46.0,29.51,South,189,0.0,-999.0,100,-99.99,,,0.05,35,weatherlink.com 1.10,2013-05-10 05:17:00,
2013-05-10 06:18:00,46.1,46.1,29.51,South,180,1.0,4.0,100,0.00,,,0.05,35,MyOwnSoftware,2013-05-10 05:18:00,
2013-05-10 06:19:00,46.1,46.1,29.51,SW,225,1.0,3.0,100,0.00,,,0.05,35,MyOwnSoftware,2013-05-10 05:19:00,
2013-05-10 06:20:00,46.1,46.1,29.51,WSW,248,2.0,4.0,100,0.00,,,0.05,35,MyOwnSoftware,2013-05-10 05:20:00,
2013-05-10 06:21:00,46.1,46.1,29.51,WNW,292,1.0,2.0,100,0.00,,,0.05,35,MyOwnSoftware,2013-05-10 05:21:00,
2013-05-10 06:22:00,46.1,46.1,29.51,SW,225,2.0,5.0,100,0.00,,,0.05,37,MyOwnSoftware,2013-05-10 05:22:00,
2013-05-10 06:23:00,46.0,45.7,29.51,SW,225,2.0,6.0,99,0.00,,,0.05,37,MyOwnSoftware,2013-05-10 05:23:00,
2013-05-10 06:24:00,46.0,45.7,29.51,WSW,248,1.0,3.0,99,0.00,,,0.05,37,MyOwnSoftware,2013-05-10 05:24:00,
2013-05-10 06:25:00,46.0,45.7,29.51,SW,225,1.0,3.0,99,0.00,,,0.05,37,MyOwnSoftware,2013-05-10 05:25:00,
2013-05-10 06:26:00,46.0,45.7,29.51,WSW,248,1.0,3.0,99,0.00,,,0.05,48,MyOwnSoftware,2013-05-10 05:26:00,
2013-05-10 06:27:00,46.1,45.8,29.51,SW,225,2.0,7.0,99,0.00,,,0.05,48,MyOwnSoftware,2013-05-10 05:27:00,
2013-05-10 06:28:00,46.1,45.8,29.51,WSW,248,2.0,3.0,99,0.00,,,0.05,48,MyOwnSoftware,2013-05-10 05:28:00,
2013-05-10 06:29:00,46.1,45.8,29.51,SW,225,3.0,6.0,99,0.00,,,0.05,48,MyOwnSoftware,2013-05-10 05:29:00,
2013-05-10 06:30:00,46.1,45.8,29.52,SW,225,2.0,3.0,99,0.00,,,0.05,56,MyOwnSoftware,2013-05-10 05:30:00,
2013-05-10 06:31:00,46.1,45.8,29.52,WSW,248,3.0,6.0,99,0.00,,,0.05,56,MyOwnSoftware,2013-05-10 05:31:00,
2013-05-10 06:32:00,46.1,46.0,29.52,SSW,200,0.0,-999.0,99,-99.99,,,0.05,56,weatherlink.com 1.10,2013-05-10 05:32:00,
2013-05-10 06:33:00,46.1,45.8,29.52,SSW,202,1.0,3.0,99,0.00,,,0.05,57,MyOwnSoftware,2013-05-10 05:33:00,
2013-05-10 06:34:00,46.1,45.8,29.52,SW,225,1.0,2.0,99,0.00,,,0.05,58,MyOwnSoftware,2013-05-10 05:34:00,
2013-05-10 06:35:00,46.1,45.6,29.52,West,270,2.0,6.0,98,0.00,,,0.05,60,MyOwnSoftware,2013-05-10 05:35:00,
2013-05-10 06:36:00,46.1,45.6,29.52,WSW,248,2.0,6.0,98,0.00,,,0.05,58,MyOwnSoftware,2013-05-10 05:36:00,
2013-05-10 06:37:00,46.1,45.6,29.52,SW,225,1.0,3.0,98,0.00,,,0.05,60,MyOwnSoftware,2013-05-10 05:37:00,
2013-05-10 06:38:00,46.1,45.6,29.52,SSW,202,2.0,5.0,98,0.00,,,0.05,64,MyOwnSoftware,2013-05-10 05:38:00,
2013-05-10 06:39:00,46.1,45.6,29.52,SW,225,3.0,5.0,98,0.00,,,0.05,65,MyOwnSoftware,2013-05-10 05:39:00,
2013-05-10 06:40:00,46.1,45.6,29.52,SSW,202,1.0,4.0,98,0.00,,,0.05,65,MyOwnSoftware,2013-05-10 05:40:00,
2013-05-10 06:41:00,46.1,45.6,29.52,SSW,202,2.0,4.0,98,0.00,,,0.05,63,MyOwnSoftware,2013-05-10 05:41:00,
2013-05-10 06:42:00,46.1,45.6,29.52,SSW,202,3.0,6.0,98,0.00,,,0.05,67,MyOwnSoftware,2013-05-10 05:42:00,
2013-05-10 06:43:00,46.1,45.6,29.52,WNW,292,2.0,4.0,98,0.00,,,0.05,65,MyOwnSoftware,2013-05-10 05:43:00,
2013-05-10 06:44:00,46.1,45.6,29.52,South,180,2.0,5.0,98,0.00,,,0.05,65,MyOwnSoftware,2013-05-10 05:44:00,
2013-05-10 06:45:00,46.1,45.6,29.52,South,180,3.0,6.0,98,0.00,,,0.05,88,MyOwnSoftware,2013-05-10 05:45:00,
2013-05-10 06:46:00,46.1,45.3,29.52,SSW,202,1.0,2.0,97,0.00,,,0.05,88,MyOwnSoftware,2013-05-10 05:46:00,
2013-05-10 06:47:00,46.1,46.0,29.52,SW,234,4.0,-999.0,98,-99.99,,,0.05,81,weatherlink.com 1.10,2013-05-10 05:47:00,
2013-05-10 06:48:00,46.1,45.6,29.52,SW,225,3.0,7.0,98,0.00,,,0.05,74,MyOwnSoftware,2013-05-10 05:48:00,
2013-05-10 06:49:00,46.1,45.3,29.52,South,180,1.0,2.0,97,0.00,,,0.05,65,MyOwnSoftware,2013-05-10 05:49:00,
2013-05-10 06:50:00,46.1,45.3,29.52,SW,225,1.0,2.0,97,0.00,,,0.05,65,MyOwnSoftware,2013-05-10 05:50:00,
2013-05-10 06:51:00,46.1,45.3,29.52,SW,225,2.0,5.0,97,0.00,,,0.05,63,MyOwnSoftware,2013-05-10 05:51:00,
2013-05-10 06:52:00,46.1,45.3,29.52,WSW,248,1.0,2.0,97,0.00,,,0.05,83,MyOwnSoftware,2013-05-10 05:52:00,
2013-05-10 06:53:00,46.2,45.4,29.52,SW,225,1.0,3.0,97,0.00,,,0.05,183,MyOwnSoftware,2013-05-10 05:53:00,
2013-05-10 06:54:00,46.2,45.4,29.52,SSW,202,1.0,3.0,97,0.00,,,0.05,192,MyOwnSoftware,2013-05-10 05:54:00,
2013-05-10 06:55:00,46.4,45.6,29.52,SW,225,2.0,5.0,97,0.00,,,0.05,192,MyOwnSoftware,2013-05-10 05:55:00,
2013-05-10 06:56:00,46.5,45.7,29.52,SW,225,2.0,4.0,97,0.00,,,0.05,181,MyOwnSoftware,2013-05-10 05:56:00,
2013-05-10 06:57:00,46.7,45.9,29.52,WSW,248,4.0,6.0,97,0.00,,,0.05,188,MyOwnSoftware,2013-05-10 05:57:00,
2013-05-10 06:58:00,46.8,46.0,29.52,SSW,202,1.0,3.0,97,0.00,,,0.05,187,MyOwnSoftware,2013-05-10 05:58:00,
2013-05-10 06:59:00,47.0,46.2,29.52,SSW,202,1.0,3.0,97,0.00,,,0.05,187,MyOwnSoftware,2013-05-10 05:59:00,
2013-05-10 07:00:00,47.1,46.3,29.53,WSW,248,0.0,3.0,97,0.00,,,0.05,206,MyOwnSoftware,2013-05-10 06:00:00,
2013-05-10 07:01:00,47.3,46.2,29.53,North,0,0.0,0.0,96,0.00,,,0.05,208,MyOwnSoftware,2013-05-10 06:01:00,
2013-05-10 07:02:00,47.4,46.0,29.53,SSW,193,1.0,-999.0,96,-99.99,,,0.05,213,weatherlink.com 1.10,2013-05-10 06:02:00,
2013-05-10 07:03:00,47.6,46.5,29.53,SW,225,0.0,1.0,96,0.00,,,0.05,212,MyOwnSoftware,2013-05-10 06:03:00,
2013-05-10 07:04:00,47.7,46.6,29.53,SSW,202,0.0,2.0,96,0.00,,,0.05,211,MyOwnSoftware,2013-05-10 06:04:00,
2013-05-10 07:05:00,47.9,46.8,29.53,NW,315,2.0,5.0,96,0.00,,,0.05,209,MyOwnSoftware,2013-05-10 06:05:00,
2013-05-10 07:06:00,48.0,46.6,29.53,SSW,202,2.0,5.0,95,0.00,,,0.05,208,MyOwnSoftware,2013-05-10 06:06:00,
2013-05-10 07:07:00,48.2,46.8,29.53,SSW,202,0.0,2.0,95,0.00,,,0.05,208,MyOwnSoftware,2013-05-10 06:07:00,
2013-05-10 07:08:00,48.3,46.7,29.53,SSW,202,1.0,6.0,94,0.00,,,0.05,206,MyOwnSoftware,2013-05-10 06:08:00,
2013-05-10 07:09:00,48.5,46.9,29.53,SSW,202,2.0,4.0,94,0.00,,,0.05,208,MyOwnSoftware,2013-05-10 06:09:00,
2013-05-10 07:10:00,48.6,47.0,29.53,WSW,248,1.0,3.0,94,0.00,,,0.05,209,MyOwnSoftware,2013-05-10 06:10:00,
2013-05-10 07:11:00,48.8,47.1,29.53,West,270,1.0,4.0,94,0.00,,,0.05,211,MyOwnSoftware,2013-05-10 06:11:00,
2013-05-10 07:12:00,48.9,47.0,29.53,WSW,248,1.0,3.0,93,0.00,,,0.05,215,MyOwnSoftware,2013-05-10 06:12:00,
2013-05-10 07:13:00,49.2,47.3,29.53,SW,225,0.0,2.0,93,0.00,,,0.05,218,MyOwnSoftware,2013-05-10 06:13:00,
2013-05-10 07:14:00,49.4,47.2,29.53,SW,225,1.0,3.0,92,0.00,,,0.05,220,MyOwnSoftware,2013-05-10 06:14:00,
2013-05-10 07:15:00,49.5,47.3,29.53,WSW,248,1.0,3.0,92,0.00,,,0.05,222,MyOwnSoftware,2013-05-10 06:15:00,
2013-05-10 07:16:00,49.5,47.0,29.53,SW,225,1.0,3.0,91,0.00,,,0.05,225,MyOwnSoftware,2013-05-10 06:16:00,
2013-05-10 07:17:00,49.6,47.1,29.53,SW,225,1.0,3.0,91,0.00,,,0.05,227,MyOwnSoftware,2013-05-10 06:17:00,
2013-05-10 07:18:00,49.8,47.0,29.53,SW,229,2.0,-999.0,90,-99.99,,,0.05,229,weatherlink.com 1.10,2013-05-10 06:18:00,
2013-05-10 07:19:00,49.9,47.1,29.53,SW,225,0.0,2.0,90,0.00,,,0.05,230,MyOwnSoftware,2013-05-10 06:19:00,
2013-05-10 07:20:00,50.1,47.3,29.53,South,180,0.0,3.0,90,0.00,,,0.05,232,MyOwnSoftware,2013-05-10 06:20:00,
2013-05-10 07:21:00,50.2,47.1,29.53,SSW,202,1.0,3.0,89,0.00,,,0.05,236,MyOwnSoftware,2013-05-10 06:21:00,
2013-05-10 07:22:00,50.4,47.3,29.53,SSW,202,0.0,1.0,89,0.00,,,0.05,238,MyOwnSoftware,2013-05-10 06:22:00,
2013-05-10 07:23:00,50.5,47.1,29.53,SSW,202,1.0,5.0,88,0.00,,,0.05,239,MyOwnSoftware,2013-05-10 06:23:00,
2013-05-10 07:24:00,50.7,47.0,29.53,SW,225,2.0,7.0,87,0.00,,,0.05,241,MyOwnSoftware,2013-05-10 06:24:00,
2013-05-10 07:25:00,50.7,47.0,29.53,SW,225,0.0,1.0,87,0.00,,,0.05,243,MyOwnSoftware,2013-05-10 06:25:00,
2013-05-10 07:26:00,50.8,47.1,29.53,SSW,202,0.0,2.0,87,0.00,,,0.05,246,MyOwnSoftware,2013-05-10 06:26:00,
2013-05-10 07:27:00,51.0,47.0,29.53,North,0,0.0,0.0,86,0.00,,,0.05,248,MyOwnSoftware,2013-05-10 06:27:00,
2013-05-10 07:28:00,51.1,46.7,29.53,WNW,292,0.0,1.0,85,0.00,,,0.05,254,MyOwnSoftware,2013-05-10 06:28:00,
2013-05-10 07:29:00,51.3,46.9,29.53,SW,225,2.0,5.0,85,0.00,,,0.05,259,MyOwnSoftware,2013-05-10 06:29:00,
2013-05-10 07:30:00,51.4,47.0,29.54,WSW,248,0.0,1.0,85,0.00,,,0.05,260,MyOwnSoftware,2013-05-10 06:30:00,
2013-05-10 07:31:00,51.4,46.7,29.54,WSW,248,0.0,1.0,84,0.00,,,0.05,266,MyOwnSoftware,2013-05-10 06:31:00,
2013-05-10 07:32:00,51.6,46.9,29.54,WSW,248,0.0,1.0,84,0.00,,,0.05,269,MyOwnSoftware,2013-05-10 06:32:00,
2013-05-10 07:33:00,51.7,47.0,29.54,SE,131,0.0,-999.0,83,-99.99,,,0.05,271,weatherlink.com 1.10,2013-05-10 06:33:00,
2013-05-10 07:34:00,51.7,46.7,29.54,SW,225,1.0,2.0,83,0.00,,,0.05,276,MyOwnSoftware,2013-05-10 06:34:00,
2013-05-10 07:35:00,51.9,46.9,29.54,SSE,158,2.0,8.0,83,0.00,,,0.05,280,MyOwnSoftware,2013-05-10 06:35:00,
2013-05-10 07:36:00,51.9,46.6,29.54,SSW,202,4.0,10.0,82,0.00,,,0.05,280,MyOwnSoftware,2013-05-10 06:36:00,
2013-05-10 07:37:00,51.9,46.6,29.54,SE,135,1.0,2.0,82,0.00,,,0.05,280,MyOwnSoftware,2013-05-10 06:37:00,
2013-05-10 07:38:00,51.9,46.3,29.54,WSW,248,2.0,5.0,81,0.00,,,0.05,279,MyOwnSoftware,2013-05-10 06:38:00,
2013-05-10 07:39:00,51.9,46.3,29.54,SSW,202,1.0,3.0,81,0.00,,,0.05,278,MyOwnSoftware,2013-05-10 06:39:00,
2013-05-10 07:40:00,51.9,46.3,29.54,SSW,202,0.0,1.0,81,0.00,,,0.00,274,MyOwnSoftware,2013-05-10 06:40:00,
2013-05-10 07:41:00,52.0,46.4,29.54,WNW,292,1.0,1.0,81,0.00,,,0.00,274,MyOwnSoftware,2013-05-10 06:41:00,
2013-05-10 07:42:00,52.0,46.7,29.54,SW,225,2.0,5.0,82,0.00,,,0.00,283,MyOwnSoftware,2013-05-10 06:42:00,
2013-05-10 07:43:00,52.2,46.9,29.54,SW,225,2.0,5.0,82,0.00,,,0.00,287,MyOwnSoftware,2013-05-10 06:43:00,
2013-05-10 07:44:00,52.2,46.9,29.54,SSW,202,2.0,4.0,82,0.00,,,0.00,292,MyOwnSoftware,2013-05-10 06:44:00,
2013-05-10 07:45:00,52.3,47.0,29.54,WSW,248,0.0,2.0,82,0.00,,,0.00,292,MyOwnSoftware,2013-05-10 06:45:00,
2013-05-10 07:46:00,52.5,47.2,29.54,North,0,0.0,0.0,82,0.00,,,0.00,294,MyOwnSoftware,2013-05-10 06:46:00,
2013-05-10 07:47:00,52.5,46.8,29.54,West,270,1.0,4.0,81,0.00,,,0.00,296,MyOwnSoftware,2013-05-10 06:47:00,
2013-05-10 07:48:00,52.6,46.9,29.54,SW,225,2.0,6.0,81,0.00,,,0.00,301,MyOwnSoftware,2013-05-10 06:48:00,
2013-05-10 07:49:00,52.8,47.0,29.54,SW,222,2.0,-999.0,80,-99.99,,,0.05,304,weatherlink.com 1.10,2013-05-10 06:49:00,
2013-05-10 07:50:00,52.8,46.8,29.54,SW,225,2.0,5.0,80,0.00,,,0.00,306,MyOwnSoftware,2013-05-10 06:50:00,
2013-05-10 07:51:00,52.9,46.9,29.54,SSE,158,2.0,5.0,80,0.00,,,0.00,308,MyOwnSoftware,2013-05-10 06:51:00,
2013-05-10 07:52:00,53.1,46.8,29.54,WSW,248,1.0,2.0,79,0.00,,,0.00,310,MyOwnSoftware,2013-05-10 06:52:00,
2013-05-10 07:53:00,53.2,46.9,29.54,SW,225,0.0,6.0,79,0.00,,,0.00,313,MyOwnSoftware,2013-05-10 06:53:00,
2013-05-10 07:54:00,53.3,47.0,29.54,South,180,2.0,7.0,79,0.00,,,0.00,315,MyOwnSoftware,2013-05-10 06:54:00,
2013-05-10 07:55:00,53.5,46.8,29.54,SSW,202,1.0,5.0,78,0.00,,,0.00,317,MyOwnSoftware,2013-05-10 06:55:00,
2013-05-10 07:56:00,53.5,46.8,29.54,WNW,292,2.0,5.0,78,0.00,,,0.00,318,MyOwnSoftware,2013-05-10 06:56:00,
2013-05-10 07:57:00,53.6,46.6,29.54,SSW,202,2.0,5.0,77,0.00,,,0.00,320,MyOwnSoftware,2013-05-10 06:57:00,
2013-05-10 07:58:00,52.8,46.8,29.54,SW,225,1.0,2.0,80,0.00,,,0.00,304,MyOwnSoftware,2013-05-10 06:58:00,
2013-05-10 07:59:00,53.8,46.8,29.54,West,270,1.0,4.0,77,0.00,,,0.00,326,MyOwnSoftware,2013-05-10 06:59:00,
2013-05-10 08:00:00,53.8,46.8,29.54,WSW,248,2.0,8.0,77,0.00,,,0.00,327,MyOwnSoftware,2013-05-10 07:00:00,
2013-05-10 08:01:00,53.9,46.9,29.54,SSW,202,1.0,7.0,77,0.00,,,0.00,327,MyOwnSoftware,2013-05-10 07:01:00,
2013-05-10 08:02:00,53.9,46.9,29.54,SSW,202,3.0,5.0,77,0.00,,,0.00,329,MyOwnSoftware,2013-05-10 07:02:00,
2013-05-10 08:03:00,54.1,47.0,29.54,SSW,202,1.0,5.0,77,0.00,,,0.00,329,MyOwnSoftware,2013-05-10 07:03:00,
2013-05-10 08:04:00,54.1,46.7,29.54,SSW,202,3.0,8.0,76,0.00,,,0.00,331,MyOwnSoftware,2013-05-10 07:04:00,
2013-05-10 08:05:00,54.2,46.8,29.54,SSE,158,4.0,8.0,76,0.00,,,0.00,336,MyOwnSoftware,2013-05-10 07:05:00,
2013-05-10 08:06:00,54.2,46.8,29.54,North,0,1.0,3.0,76,0.00,,,0.00,340,MyOwnSoftware,2013-05-10 07:06:00,
2013-05-10 08:07:00,54.2,46.4,29.54,South,180,2.0,6.0,75,0.00,,,0.00,341,MyOwnSoftware,2013-05-10 07:07:00,
2013-05-10 08:08:00,54.4,46.6,29.54,SW,225,0.0,2.0,75,0.00,,,0.00,346,MyOwnSoftware,2013-05-10 07:08:00,
2013-05-10 08:09:00,54.4,46.6,29.54,WSW,248,1.0,2.0,75,0.00,,,0.00,350,MyOwnSoftware,2013-05-10 07:09:00,
2013-05-10 08:10:00,54.5,46.7,29.54,SW,225,1.0,3.0,75,0.00,,,0.00,354,MyOwnSoftware,2013-05-10 07:10:00,
2013-05-10 08:11:00,54.7,46.9,29.54,SW,225,2.0,7.0,75,0.00,,,0.00,355,MyOwnSoftware,2013-05-10 07:11:00,
2013-05-10 08:12:00,54.7,46.9,29.54,SSW,202,1.0,4.0,75,0.00,,,0.00,357,MyOwnSoftware,2013-05-10 07:12:00,
2013-05-10 08:13:00,54.8,47.0,29.54,WSW,248,1.0,2.0,75,0.00,,,0.00,358,MyOwnSoftware,2013-05-10 07:13:00,
2013-05-10 08:14:00,55.0,47.2,29.54,WSW,248,2.0,3.0,75,0.00,,,0.00,362,MyOwnSoftware,2013-05-10 07:14:00,
2013-05-10 08:15:00,55.1,47.3,29.55,WSW,248,1.0,6.0,75,0.00,,,0.00,364,MyOwnSoftware,2013-05-10 07:15:00,
2013-05-10 08:16:00,54.2,46.4,29.54,South,180,2.0,6.0,75,0.00,,,0.00,341,MyOwnSoftware,2013-05-10 07:16:00,
2013-05-10 08:17:00,55.3,47.2,29.55,SW,225,0.0,1.0,74,0.00,,,0.00,370,MyOwnSoftware,2013-05-10 07:17:00,
2013-05-10 08:18:00,55.4,47.3,29.55,WSW,248,2.0,5.0,74,0.00,,,0.00,372,MyOwnSoftware,2013-05-10 07:18:00,
2013-05-10 08:19:00,55.4,46.5,29.55,SW,225,0.0,2.0,72,0.00,,,0.00,375,MyOwnSoftware,2013-05-10 07:19:00,
2013-05-10 08:20:00,55.6,46.7,29.55,SW,225,1.0,2.0,72,0.00,,,0.00,378,MyOwnSoftware,2013-05-10 07:20:00,
2013-05-10 08:21:00,55.7,47.2,29.55,West,270,2.0,6.0,73,0.00,,,0.00,380,MyOwnSoftware,2013-05-10 07:21:00,
2013-05-10 08:22:00,55.7,46.8,29.55,SSW,202,0.0,2.0,72,0.00,,,0.00,380,MyOwnSoftware,2013-05-10 07:22:00,
2013-05-10 08:23:00,55.9,47.0,29.55,WNW,292,0.0,1.0,72,0.00,,,0.00,384,MyOwnSoftware,2013-05-10 07:23:00,
2013-05-10 08:24:00,55.9,46.6,29.55,WNW,292,0.0,1.0,71,0.00,,,0.00,387,MyOwnSoftware,2013-05-10 07:24:00,
2013-05-10 08:25:00,56.0,47.1,29.55,SW,225,2.0,5.0,72,0.00,,,0.00,389,MyOwnSoftware,2013-05-10 07:25:00,
2013-05-10 08:26:00,56.2,46.9,29.55,WNW,292,1.0,4.0,71,0.00,,,0.00,391,MyOwnSoftware,2013-05-10 07:26:00,
2013-05-10 08:27:00,56.2,46.5,29.55,SW,225,2.0,5.0,70,0.00,,,0.00,391,MyOwnSoftware,2013-05-10 07:27:00,
2013-05-10 08:28:00,56.3,46.6,29.55,WSW,248,2.0,5.0,70,0.00,,,0.00,394,MyOwnSoftware,2013-05-10 07:28:00,
2013-05-10 08:29:00,56.3,46.3,29.55,SW,225,3.0,7.0,69,0.00,,,0.00,396,MyOwnSoftware,2013-05-10 07:29:00,
2013-05-10 08:30:00,56.3,46.3,29.55,WSW,248,1.0,4.0,69,0.00,,,0.00,398,MyOwnSoftware,2013-05-10 07:30:00,
2013-05-10 08:31:00,56.5,46.1,29.55,SW,225,1.0,3.0,68,0.00,,,0.00,399,MyOwnSoftware,2013-05-10 07:31:00,
2013-05-10 08:32:00,56.5,45.7,29.55,SW,225,3.0,6.0,67,0.00,,,0.00,405,MyOwnSoftware,2013-05-10 07:32:00,
2013-05-10 08:33:00,56.5,46.0,29.55,SSW,206,5.0,-999.0,67,-99.99,,,0.05,410,weatherlink.com 1.10,2013-05-10 07:33:00,
2013-05-10 08:34:00,56.5,45.7,29.55,West,270,3.0,6.0,67,0.00,,,0.00,408,MyOwnSoftware,2013-05-10 07:34:00,
2013-05-10 08:35:00,56.5,45.3,29.55,SW,225,2.0,7.0,66,0.00,,,0.00,413,MyOwnSoftware,2013-05-10 07:35:00,
2013-05-10 08:36:00,56.6,45.4,29.55,SW,225,3.0,6.0,66,0.00,,,0.00,415,MyOwnSoftware,2013-05-10 07:36:00,
2013-05-10 08:37:00,56.6,45.8,29.55,SW,225,2.0,4.0,67,0.00,,,0.00,417,MyOwnSoftware,2013-05-10 07:37:00,
2013-05-10 08:38:00,56.6,45.8,29.55,WSW,248,2.0,7.0,67,0.00,,,0.00,421,MyOwnSoftware,2013-05-10 07:38:00,
2013-05-10 08:39:00,56.7,45.9,29.55,North,0,0.0,0.0,67,0.00,,,0.00,424,MyOwnSoftware,2013-05-10 07:39:00,
2013-05-10 08:40:00,56.7,45.5,29.55,WSW,248,0.0,2.0,66,0.00,,,0.00,424,MyOwnSoftware,2013-05-10 07:40:00,
2013-05-10 08:41:00,56.7,45.5,29.55,SSW,202,2.0,6.0,66,0.00,,,0.00,426,MyOwnSoftware,2013-05-10 07:41:00,
2013-05-10 08:42:00,56.9,45.7,29.55,SW,225,3.0,10.0,66,0.00,,,0.00,428,MyOwnSoftware,2013-05-10 07:42:00,
2013-05-10 08:43:00,56.9,45.3,29.55,SSW,202,3.0,7.0,65,0.00,,,0.00,431,MyOwnSoftware,2013-05-10 07:43:00,
2013-05-10 08:44:00,56.9,45.3,29.55,SW,225,3.0,6.0,65,0.00,,,0.00,433,MyOwnSoftware,2013-05-10 07:44:00,
2013-05-10 08:45:00,56.9,44.8,29.55,SSW,202,3.0,6.0,64,0.00,,,0.00,436,MyOwnSoftware,2013-05-10 07:45:00,
2013-05-10 08:46:00,56.6,45.8,29.55,SW,225,2.0,4.0,67,0.00,,,0.00,417,MyOwnSoftware,2013-05-10 07:46:00,
2013-05-10 08:47:00,57.0,44.9,29.55,South,180,1.0,6.0,64,0.00,,,0.00,438,MyOwnSoftware,2013-05-10 07:47:00,
2013-05-10 08:48:00,57.0,45.4,29.55,SW,225,1.0,3.0,65,0.00,,,0.00,442,MyOwnSoftware,2013-05-10 07:48:00,
2013-05-10 08:49:00,57.2,45.1,29.55,WSW,248,1.0,3.0,64,0.00,,,0.00,449,MyOwnSoftware,2013-05-10 07:49:00,
2013-05-10 08:50:00,57.2,45.1,29.55,SW,225,3.0,6.0,64,0.00,,,0.00,454,MyOwnSoftware,2013-05-10 07:50:00,
2013-05-10 08:51:00,57.2,45.1,29.55,SE,135,1.0,3.0,64,0.00,,,0.00,459,MyOwnSoftware,2013-05-10 07:51:00,
2013-05-10 08:52:00,57.2,45.1,29.55,SW,225,2.0,3.0,64,0.00,,,0.00,473,MyOwnSoftware,2013-05-10 07:52:00,
2013-05-10 08:53:00,57.2,45.1,29.55,WSW,248,2.0,6.0,64,0.00,,,0.00,481,MyOwnSoftware,2013-05-10 07:53:00,
2013-05-10 08:54:00,57.3,45.2,29.55,South,180,2.0,4.0,64,0.00,,,0.00,479,MyOwnSoftware,2013-05-10 07:54:00,
2013-05-10 08:55:00,57.3,45.2,29.55,SW,225,2.0,6.0,64,0.00,,,0.00,491,MyOwnSoftware,2013-05-10 07:55:00,
2013-05-10 08:56:00,57.0,44.9,29.55,South,180,1.0,6.0,64,0.00,,,0.00,438,MyOwnSoftware,2013-05-10 07:56:00,
2013-05-10 08:57:00,57.3,44.8,29.55,SW,225,1.0,3.0,63,0.00,,,0.00,484,MyOwnSoftware,2013-05-10 07:57:00,
2013-05-10 08:58:00,57.5,45.4,29.55,SSW,202,2.0,4.0,64,0.00,,,0.00,481,MyOwnSoftware,2013-05-10 07:58:00,
2013-05-10 08:59:00,57.5,45.0,29.55,SW,225,3.0,6.0,63,0.00,,,0.00,484,MyOwnSoftware,2013-05-10 07:59:00,
2013-05-10 09:00:00,57.5,45.0,29.56,WSW,248,3.0,6.0,63,0.00,,,0.00,480,MyOwnSoftware,2013-05-10 08:00:00,
2013-05-10 09:01:00,57.6,45.1,29.56,SSW,202,4.0,10.0,63,0.00,,,0.00,468,MyOwnSoftware,2013-05-10 08:01:00,
2013-05-10 09:02:00,57.6,44.7,29.56,WNW,292,3.0,6.0,62,0.00,,,0.00,477,MyOwnSoftware,2013-05-10 08:02:00,
2013-05-10 09:03:00,57.6,44.0,29.56,SSE,164,1.0,-999.0,62,-99.99,,,0.05,477,weatherlink.com 1.10,2013-05-10 08:03:00,
2013-05-10 09:04:00,57.6,44.7,29.56,SW,225,3.0,6.0,62,0.00,,,0.00,493,MyOwnSoftware,2013-05-10 08:04:00,
2013-05-10 09:05:00,57.8,44.9,29.56,SW,225,2.0,4.0,62,0.00,,,0.00,494,MyOwnSoftware,2013-05-10 08:05:00,
2013-05-10 09:06:00,57.8,44.4,29.56,WSW,248,1.0,3.0,61,0.00,,,0.00,494,MyOwnSoftware,2013-05-10 08:06:00,
2013-05-10 09:07:00,57.8,44.4,29.56,SW,225,4.0,12.0,61,0.00,,,0.00,494,MyOwnSoftware,2013-05-10 08:07:00,
2013-05-10 09:08:00,57.8,44.4,29.56,SSW,202,2.0,7.0,61,0.00,,,0.00,575,MyOwnSoftware,2013-05-10 08:08:00,
2013-05-10 09:09:00,57.8,44.4,29.56,West,270,3.0,7.0,61,0.00,,,0.00,582,MyOwnSoftware,2013-05-10 08:09:00,
2013-05-10 09:10:00,57.8,44.0,29.56,SSW,202,4.0,10.0,60,0.00,,,0.00,582,MyOwnSoftware,2013-05-10 08:10:00,
2013-05-10 09:11:00,57.8,44.0,29.56,WSW,248,0.0,2.0,60,0.00,,,0.00,582,MyOwnSoftware,2013-05-10 08:11:00,
2013-05-10 09:12:00,57.8,44.0,29.56,SW,225,5.0,10.0,60,0.00,,,0.00,582,MyOwnSoftware,2013-05-10 08:12:00,
2013-05-10 09:13:00,57.8,44.0,29.56,West,270,2.0,5.0,60,0.00,,,0.00,517,MyOwnSoftware,2013-05-10 08:13:00,
2013-05-10 09:14:00,58.0,44.2,29.56,WNW,292,1.0,2.0,60,0.00,,,0.00,510,MyOwnSoftware,2013-05-10 08:14:00,
2013-05-10 09:15:00,58.0,44.2,29.57,NW,315,1.0,2.0,60,0.00,,,0.00,509,MyOwnSoftware,2013-05-10 08:15:00,
2013-05-10 09:16:00,57.8,44.4,29.56,SW,225,4.0,12.0,61,0.00,,,0.00,494,MyOwnSoftware,2013-05-10 08:16:00,
2013-05-10 09:17:00,58.0,43.3,29.57,WSW,248,2.0,5.0,58,0.00,,,0.00,516,MyOwnSoftware,2013-05-10 08:17:00,
2013-05-10 09:18:00,58.0,43.3,29.57,SW,225,3.0,7.0,58,0.00,,,0.00,517,MyOwnSoftware,2013-05-10 08:18:00,
2013-05-10 09:19:00,58.0,42.9,29.57,SW,225,3.0,10.0,57,0.00,,,0.00,519,MyOwnSoftware,2013-05-10 08:19:00,
2013-05-10 09:20:00,58.1,43.4,29.57,SW,225,4.0,7.0,58,0.00,,,0.00,519,MyOwnSoftware,2013-05-10 08:20:00,
2013-05-10 09:21:00,58.1,43.4,29.57,West,270,2.0,6.0,58,0.00,,,0.00,521,MyOwnSoftware,2013-05-10 08:21:00,
2013-05-10 09:22:00,58.1,43.4,29.57,West,270,2.0,3.0,58,0.00,,,0.00,523,MyOwnSoftware,2013-05-10 08:22:00,
2013-05-10 09:23:00,58.1,43.8,29.57,SSW,202,3.0,7.0,59,0.00,,,0.00,519,MyOwnSoftware,2013-05-10 08:23:00,
2013-05-10 09:24:00,58.3,44.0,29.57,West,270,3.0,6.0,59,0.00,,,0.00,519,MyOwnSoftware,2013-05-10 08:24:00,
2013-05-10 09:25:00,58.3,43.6,29.57,West,270,1.0,3.0,58,0.00,,,0.00,519,MyOwnSoftware,2013-05-10 08:25:00,
2013-05-10 09:26:00,58.4,44.1,29.57,WSW,248,4.0,11.0,59,0.00,,,0.00,521,MyOwnSoftware,2013-05-10 08:26:00,
2013-05-10 09:27:00,58.4,43.7,29.57,WSW,248,3.0,6.0,58,0.00,,,0.00,519,MyOwnSoftware,2013-05-10 08:27:00,
2013-05-10 09:28:00,58.6,44.3,29.57,North,0,2.0,6.0,59,0.00,,,0.00,523,MyOwnSoftware,2013-05-10 08:28:00,
2013-05-10 09:29:00,58.6,44.3,29.57,South,180,2.0,6.0,59,0.00,,,0.00,528,MyOwnSoftware,2013-05-10 08:29:00,
2013-05-10 09:30:00,58.6,43.9,29.57,SSW,202,3.0,6.0,58,0.00,,,0.00,531,MyOwnSoftware,2013-05-10 08:30:00,
2013-05-10 09:31:00,58.6,43.9,29.57,West,270,4.0,8.0,58,0.00,,,0.00,533,MyOwnSoftware,2013-05-10 08:31:00,
2013-05-10 09:32:00,58.6,43.9,29.57,East,90,3.0,5.0,58,0.00,,,0.00,535,MyOwnSoftware,2013-05-10 08:32:00,
2013-05-10 09:33:00,58.6,44.0,29.57,SSE,165,5.0,-999.0,58,-99.99,,,0.05,540,weatherlink.com 1.10,2013-05-10 08:33:00,
2013-05-10 09:34:00,58.6,43.9,29.57,SW,225,1.0,6.0,58,0.00,,,0.00,540,MyOwnSoftware,2013-05-10 08:34:00,
2013-05-10 09:35:00,58.6,43.9,29.57,SSW,202,4.0,6.0,58,0.00,,,0.00,540,MyOwnSoftware,2013-05-10 08:35:00,
2013-05-10 09:36:00,58.6,43.4,29.57,WSW,248,4.0,6.0,57,0.00,,,0.00,540,MyOwnSoftware,2013-05-10 08:36:00,
2013-05-10 09:37:00,58.7,43.5,29.57,SW,225,5.0,10.0,57,0.00,,,0.00,544,MyOwnSoftware,2013-05-10 08:37:00,
2013-05-10 09:38:00,58.7,43.0,29.57,South,180,4.0,8.0,56,0.00,,,0.00,545,MyOwnSoftware,2013-05-10 08:38:00,
2013-05-10 09:39:00,58.7,43.5,29.57,West,270,2.0,3.0,57,0.00,,,0.00,549,MyOwnSoftware,2013-05-10 08:39:00,
2013-05-10 09:40:00,58.7,43.5,29.57,SSW,202,6.0,12.0,57,0.00,,,0.00,551,MyOwnSoftware,2013-05-10 08:40:00,
2013-05-10 09:41:00,58.7,42.6,29.57,SSW,202,5.0,10.0,55,0.00,,,0.00,554,MyOwnSoftware,2013-05-10 08:41:00,
2013-05-10 09:42:00,58.7,42.6,29.57,SSW,202,3.0,7.0,55,0.00,,,0.00,556,MyOwnSoftware,2013-05-10 08:42:00,
2013-05-10 09:43:00,58.7,42.6,29.57,SW,225,4.0,10.0,55,0.00,,,0.00,562,MyOwnSoftware,2013-05-10 08:43:00,
2013-05-10 09:44:00,58.7,42.6,29.57,SSW,202,5.0,7.0,55,0.00,,,0.00,561,MyOwnSoftware,2013-05-10 08:44:00,
2013-05-10 09:45:00,58.7,42.6,29.57,West,270,3.0,8.0,55,0.00,,,0.00,563,MyOwnSoftware,2013-05-10 08:45:00,
2013-05-10 09:46:00,58.7,43.5,29.57,SW,225,5.0,10.0,57,0.00,,,0.00,544,MyOwnSoftware,2013-05-10 08:46:00,
2013-05-10 09:47:00,58.7,42.1,29.57,NW,315,4.0,10.0,54,0.00,,,0.00,563,MyOwnSoftware,2013-05-10 08:47:00,
2013-05-10 09:48:00,58.7,42.1,29.57,SW,225,8.0,12.0,54,0.00,,,0.00,565,MyOwnSoftware,2013-05-10 08:48:00,
2013-05-10 09:49:00,58.7,42.1,29.57,North,0,4.0,8.0,54,0.00,,,0.00,565,MyOwnSoftware,2013-05-10 08:49:00,
2013-05-10 09:50:00,58.7,42.6,29.57,SW,225,4.0,11.0,55,0.00,,,0.00,570,MyOwnSoftware,2013-05-10 08:50:00,
2013-05-10 09:51:00,58.7,42.6,29.57,SSW,202,3.0,7.0,55,0.00,,,0.00,572,MyOwnSoftware,2013-05-10 08:51:00,
2013-05-10 09:52:00,58.7,43.0,29.57,West,270,2.0,6.0,56,0.00,,,0.00,572,MyOwnSoftware,2013-05-10 08:52:00,
2013-05-10 09:53:00,58.9,43.2,29.57,West,270,1.0,6.0,56,0.00,,,0.00,575,MyOwnSoftware,2013-05-10 08:53:00,
2013-05-10 09:54:00,58.9,43.2,29.57,South,180,2.0,5.0,56,0.00,,,0.00,581,MyOwnSoftware,2013-05-10 08:54:00,
2013-05-10 09:55:00,59.0,43.8,29.57,West,270,2.0,6.0,57,0.00,,,0.00,581,MyOwnSoftware,2013-05-10 08:55:00,
2013-05-10 09:56:00,58.7,42.1,29.57,NW,315,4.0,10.0,54,0.00,,,0.00,563,MyOwnSoftware,2013-05-10 08:56:00,
2013-05-10 09:57:00,59.0,42.9,29.57,SSW,202,3.0,8.0,55,0.00,,,0.00,586,MyOwnSoftware,2013-05-10 08:57:00,
2013-05-10 09:58:00,59.0,42.9,29.57,SW,225,2.0,6.0,55,0.00,,,0.00,589,MyOwnSoftware,2013-05-10 08:58:00,
2013-05-10 09:59:00,59.0,42.9,29.57,West,270,2.0,5.0,55,0.00,,,0.00,589,MyOwnSoftware,2013-05-10 08:59:00,
2013-05-10 10:00:00,59.2,43.5,29.57,SSW,202,2.0,6.0,56,0.00,,,0.00,589,MyOwnSoftware,2013-05-10 09:00:00,
2013-05-10 10:01:00,59.2,43.5,29.57,West,270,1.0,3.0,56,0.00,,,0.00,593,MyOwnSoftware,2013-05-10 09:01:00,
2013-05-10 10:02:00,59.2,43.5,29.57,WNW,292,1.0,3.0,56,0.00,,,0.00,593,MyOwnSoftware,2013-05-10 09:02:00,
2013-05-10 10:03:00,59.3,43.6,29.57,North,0,2.0,4.0,56,0.00,,,0.00,593,MyOwnSoftware,2013-05-10 09:03:00,
2013-05-10 10:04:00,59.2,43.0,29.57,SSW,199,8.0,-999.0,56,-99.99,,,0.05,595,weatherlink.com 1.10,2013-05-10 09:04:00,
2013-05-10 10:05:00,59.3,43.6,29.57,NW,315,2.0,6.0,56,0.00,,,0.00,596,MyOwnSoftware,2013-05-10 09:05:00,
2013-05-10 10:06:00,59.3,43.6,29.57,SW,225,3.0,7.0,56,0.00,,,0.00,598,MyOwnSoftware,2013-05-10 09:06:00,
2013-05-10 10:07:00,59.3,43.1,29.57,SSW,202,3.0,8.0,55,0.00,,,0.00,602,MyOwnSoftware,2013-05-10 09:07:00,
2013-05-10 10:08:00,59.5,43.8,29.57,WSW,248,3.0,6.0,56,0.00,,,0.00,605,MyOwnSoftware,2013-05-10 09:08:00,
2013-05-10 10:09:00,59.6,43.9,29.57,SW,225,5.0,10.0,56,0.00,,,0.00,609,MyOwnSoftware,2013-05-10 09:09:00,
2013-05-10 10:10:00,59.6,42.9,29.57,SSW,202,3.0,10.0,54,0.00,,,0.00,616,MyOwnSoftware,2013-05-10 09:10:00,
2013-05-10 10:11:00,59.8,43.1,29.57,SSW,202,3.0,8.0,54,0.00,,,0.00,623,MyOwnSoftware,2013-05-10 09:11:00,
2013-05-10 10:12:00,59.8,43.6,29.57,SSW,202,3.0,11.0,55,0.00,,,0.00,639,MyOwnSoftware,2013-05-10 09:12:00,
2013-05-10 10:13:00,59.8,43.1,29.57,SW,225,4.0,6.0,54,0.00,,,0.00,670,MyOwnSoftware,2013-05-10 09:13:00,
2013-05-10 10:14:00,59.9,43.2,29.57,WNW,292,3.0,8.0,54,0.00,,,0.00,686,MyOwnSoftware,2013-05-10 09:14:00,
2013-05-10 10:15:00,59.9,43.2,29.57,SSW,202,5.0,9.0,54,0.00,,,0.00,684,MyOwnSoftware,2013-05-10 09:15:00,
2013-05-10 10:16:00,59.3,43.1,29.57,SSW,202,3.0,8.0,55,0.00,,,0.00,602,MyOwnSoftware,2013-05-10 09:16:00,
2013-05-10 10:17:00,59.9,43.7,29.57,WSW,248,4.0,8.0,55,0.00,,,0.00,639,MyOwnSoftware,2013-05-10 09:17:00,
2013-05-10 10:18:00,59.9,43.2,29.57,SW,225,2.0,6.0,54,0.00,,,0.00,656,MyOwnSoftware,2013-05-10 09:18:00,
2013-05-10 10:19:00,59.9,43.2,29.57,NNW,338,2.0,5.0,54,0.00,,,0.00,656,MyOwnSoftware,2013-05-10 09:19:00,
2013-05-10 10:20:00,59.9,43.2,29.57,NW,315,3.0,4.0,54,0.00,,,0.00,648,MyOwnSoftware,2013-05-10 09:20:00,
2013-05-10 10:21:00,59.9,43.7,29.57,WNW,292,1.0,2.0,55,0.00,,,0.00,658,MyOwnSoftware,2013-05-10 09:21:00,
2013-05-10 10:22:00,59.9,43.7,29.57,WSW,248,1.0,4.0,55,0.00,,,0.00,663,MyOwnSoftware,2013-05-10 09:22:00,
2013-05-10 10:23:00,59.9,43.7,29.57,WSW,248,4.0,7.0,55,0.00,,,0.00,651,MyOwnSoftware,2013-05-10 09:23:00,
2013-05-10 10:24:00,59.9,43.2,29.57,SSW,202,3.0,7.0,54,0.00,,,0.00,667,MyOwnSoftware,2013-05-10 09:24:00,
2013-05-10 10:25:00,59.9,43.2,29.57,WNW,292,1.0,6.0,54,0.00,,,0.00,656,MyOwnSoftware,2013-05-10 09:25:00,
2013-05-10 10:26:00,59.9,43.2,29.57,SW,225,3.0,6.0,54,0.00,,,0.00,653,MyOwnSoftware,2013-05-10 09:26:00,
2013-05-10 10:27:00,60.1,42.9,29.57,SW,225,1.0,3.0,53,0.00,,,0.00,662,MyOwnSoftware,2013-05-10 09:27:00,
2013-05-10 10:28:00,60.1,43.4,29.57,SW,225,1.0,3.0,54,0.00,,,0.00,682,MyOwnSoftware,2013-05-10 09:28:00,
2013-05-10 10:29:00,60.2,43.5,29.57,WSW,248,3.0,5.0,54,0.00,,,0.00,688,MyOwnSoftware,2013-05-10 09:29:00,
2013-05-10 10:30:00,60.2,43.5,29.58,WSW,248,4.0,8.0,54,0.00,,,0.00,688,MyOwnSoftware,2013-05-10 09:30:00,
2013-05-10 10:31:00,60.1,42.9,29.58,WSW,248,3.0,8.0,53,0.00,,,0.00,688,MyOwnSoftware,2013-05-10 09:31:00,
2013-05-10 10:32:00,60.1,42.9,29.58,SW,225,4.0,7.0,53,0.00,,,0.00,699,MyOwnSoftware,2013-05-10 09:32:00,
2013-05-10 10:33:00,60.1,42.9,29.58,WSW,248,2.0,5.0,53,0.00,,,0.00,668,MyOwnSoftware,2013-05-10 09:33:00,
2013-05-10 10:34:00,60.1,43.0,29.58,WSW,240,1.0,-999.0,54,-99.99,,,0.05,670,weatherlink.com 1.10,2013-05-10 09:34:00,
2013-05-10 10:35:00,60.1,42.4,29.58,SSW,202,3.0,5.0,52,0.00,,,0.00,670,MyOwnSoftware,2013-05-10 09:35:00,
2013-05-10 10:36:00,60.1,43.4,29.58,SSW,202,2.0,3.0,54,0.00,,,0.00,672,MyOwnSoftware,2013-05-10 09:36:00,
2013-05-10 10:37:00,60.1,42.9,29.58,SW,225,2.0,5.0,53,0.00,,,0.00,670,MyOwnSoftware,2013-05-10 09:37:00,
2013-05-10 10:38:00,60.1,42.9,29.58,WNW,292,3.0,10.0,53,0.00,,,0.00,677,MyOwnSoftware,2013-05-10 09:38:00,
2013-05-10 10:39:00,60.1,42.9,29.58,WSW,248,6.0,12.0,53,0.00,,,0.00,699,MyOwnSoftware,2013-05-10 09:39:00,
2013-05-10 10:40:00,60.1,42.9,29.58,West,270,2.0,3.0,53,0.00,,,0.00,699,MyOwnSoftware,2013-05-10 09:40:00,
2013-05-10 10:41:00,60.1,42.9,29.58,SSW,202,4.0,10.0,53,0.00,,,0.00,699,MyOwnSoftware,2013-05-10 09:41:00,
2013-05-10 10:42:00,60.1,42.9,29.58,North,0,3.0,5.0,53,0.00,,,0.00,676,MyOwnSoftware,2013-05-10 09:42:00,
2013-05-10 10:43:00,60.1,43.4,29.58,SW,225,1.0,4.0,54,0.00,,,0.00,687,MyOwnSoftware,2013-05-10 09:43:00,
2013-05-10 10:44:00,59.9,43.2,29.58,West,270,1.0,7.0,54,0.00,,,0.00,718,MyOwnSoftware,2013-05-10 09:44:00,
2013-05-10 10:45:00,59.9,43.2,29.58,WNW,292,3.0,6.0,54,0.00,,,0.00,727,MyOwnSoftware,2013-05-10 09:45:00,
2013-05-10 10:46:00,60.1,42.9,29.58,SW,225,2.0,5.0,53,0.00,,,0.00,670,MyOwnSoftware,2013-05-10 09:46:00,
2013-05-10 10:47:00,59.9,43.7,29.58,North,0,2.0,6.0,55,0.00,,,0.00,762,MyOwnSoftware,2013-05-10 09:47:00,
2013-05-10 10:48:00,59.9,43.7,29.58,NW,315,4.0,7.0,55,0.00,,,0.00,762,MyOwnSoftware,2013-05-10 09:48:00,
2013-05-10 10:49:00,59.8,43.1,29.58,SW,225,4.0,10.0,54,0.00,,,0.00,762,MyOwnSoftware,2013-05-10 09:49:00,
2013-05-10 10:50:00,59.8,43.1,29.58,WSW,248,6.0,11.0,54,0.00,,,0.00,194,MyOwnSoftware,2013-05-10 09:50:00,
2013-05-10 10:51:00,59.8,43.1,29.58,South,180,3.0,10.0,54,0.00,,,0.00,194,MyOwnSoftware,2013-05-10 09:51:00,
2013-05-10 10:52:00,59.8,43.6,29.58,SW,225,1.0,6.0,55,0.00,,,0.00,823,MyOwnSoftware,2013-05-10 09:52:00,
2013-05-10 10:53:00,59.8,43.6,29.58,SW,225,0.0,2.0,55,0.00,,,0.00,234,MyOwnSoftware,2013-05-10 09:53:00,
2013-05-10 10:54:00,59.8,43.6,29.58,West,270,1.0,6.0,55,0.00,,,0.00,262,MyOwnSoftware,2013-05-10 09:54:00,
2013-05-10 10:55:00,59.8,43.6,29.58,SW,225,5.0,8.0,55,0.00,,,0.00,262,MyOwnSoftware,2013-05-10 09:55:00,
2013-05-10 10:56:00,59.9,43.7,29.58,North,0,2.0,6.0,55,0.00,,,0.00,762,MyOwnSoftware,2013-05-10 09:56:00,
2013-05-10 10:57:00,59.9,43.2,29.58,NW,315,2.0,5.0,54,0.00,,,0.00,744,MyOwnSoftware,2013-05-10 09:57:00,
2013-05-10 10:58:00,59.9,43.2,29.58,North,0,3.0,7.0,54,0.00,,,0.00,730,MyOwnSoftware,2013-05-10 09:58:00,
2013-05-10 10:59:00,59.9,43.2,29.58,West,270,2.0,6.0,54,0.00,,,0.00,728,MyOwnSoftware,2013-05-10 09:59:00,
2013-05-10 11:00:00,59.9,42.7,29.58,West,270,2.0,5.0,53,0.00,,,0.00,728,MyOwnSoftware,2013-05-10 10:00:00,
2013-05-10 11:01:00,59.9,42.7,29.58,North,0,3.0,5.0,53,0.00,,,0.00,728,MyOwnSoftware,2013-05-10 10:01:00,
2013-05-10 11:02:00,59.9,43.2,29.58,WNW,292,2.0,5.0,54,0.00,,,0.00,728,MyOwnSoftware,2013-05-10 10:02:00,
2013-05-10 11:03:00,59.9,42.7,29.58,SSW,202,4.0,6.0,53,0.00,,,0.00,728,MyOwnSoftware,2013-05-10 10:03:00,
2013-05-10 11:04:00,60.1,43.0,29.58,West,267,3.0,-999.0,53,-99.99,,,0.05,728,weatherlink.com 1.10,2013-05-10 10:04:00,
2013-05-10 11:05:00,60.1,42.4,29.58,WNW,292,1.0,3.0,52,0.00,,,0.00,776,MyOwnSoftware,2013-05-10 10:05:00,
2013-05-10 11:06:00,60.1,42.4,29.58,West,270,2.0,4.0,52,0.00,,,0.00,778,MyOwnSoftware,2013-05-10 10:06:00,
2013-05-10 11:07:00,60.2,42.5,29.58,NNW,338,2.0,3.0,52,0.00,,,0.00,778,MyOwnSoftware,2013-05-10 10:07:00,
2013-05-10 11:08:00,60.2,42.5,29.58,NW,315,3.0,6.0,52,0.00,,,0.00,793,MyOwnSoftware,2013-05-10 10:08:00,
2013-05-10 11:09:00,60.4,42.7,29.58,NW,315,4.0,8.0,52,0.00,,,0.00,804,MyOwnSoftware,2013-05-10 10:09:00,
2013-05-10 11:10:00,60.4,42.7,29.58,WNW,292,3.0,6.0,52,0.00,,,0.00,790,MyOwnSoftware,2013-05-10 10:10:00,
2013-05-10 11:11:00,60.5,42.8,29.58,WNW,292,2.0,5.0,52,0.00,,,0.00,790,MyOwnSoftware,2013-05-10 10:11:00,
2013-05-10 11:12:00,60.5,42.8,29.58,West,270,4.0,8.0,52,0.00,,,0.00,802,MyOwnSoftware,2013-05-10 10:12:00,
2013-05-10 11:13:00,60.4,42.2,29.58,West,270,4.0,7.0,51,0.00,,,0.00,802,MyOwnSoftware,2013-05-10 10:13:00,
2013-05-10 11:14:00,60.4,42.7,29.58,West,270,2.0,5.0,52,0.00,,,0.00,802,MyOwnSoftware,2013-05-10 10:14:00,
2013-05-10 11:15:00,60.4,42.2,29.59,SW,225,3.0,7.0,51,0.00,,,0.00,144,MyOwnSoftware,2013-05-10 10:15:00,
2013-05-10 11:16:00,60.2,42.5,29.58,NNW,338,2.0,3.0,52,0.00,,,0.00,778,MyOwnSoftware,2013-05-10 10:16:00,
2013-05-10 11:17:00,60.4,41.7,29.59,SW,225,5.0,10.0,50,0.00,,,0.00,150,MyOwnSoftware,2013-05-10 10:17:00,
2013-05-10 11:18:00,60.2,41.5,29.59,SSW,202,7.0,11.0,50,0.00,,,0.00,181,MyOwnSoftware,2013-05-10 10:18:00,
2013-05-10 11:19:00,60.2,41.5,29.59,SSW,202,4.0,6.0,50,0.00,,,0.00,188,MyOwnSoftware,2013-05-10 10:19:00,
2013-05-10 11:20:00,60.1,41.4,29.59,SSW,202,4.0,11.0,50,0.00,,,0.00,862,MyOwnSoftware,2013-05-10 10:20:00,
2013-05-10 11:21:00,60.1,42.4,29.59,West,270,0.0,2.0,52,0.00,,,0.00,899,MyOwnSoftware,2013-05-10 10:21:00,
2013-05-10 11:22:00,60.1,42.4,29.59,WNW,292,2.0,6.0,52,0.00,,,0.00,899,MyOwnSoftware,2013-05-10 10:22:00,
2013-05-10 11:23:00,60.1,41.9,29.59,WNW,292,2.0,4.0,51,0.00,,,0.00,899,MyOwnSoftware,2013-05-10 10:23:00,
2013-05-10 11:24:00,59.9,41.7,29.59,WNW,292,2.0,5.0,51,0.00,,,0.00,899,MyOwnSoftware,2013-05-10 10:24:00,
2013-05-10 11:25:00,59.9,41.2,29.59,West,270,3.0,7.0,50,0.00,,,0.00,899,MyOwnSoftware,2013-05-10 10:25:00,
2013-05-10 11:26:00,59.9,41.7,29.59,NNW,338,1.0,3.0,51,0.00,,,0.00,899,MyOwnSoftware,2013-05-10 10:26:00,
2013-05-10 11:27:00,59.9,42.2,29.59,WSW,248,3.0,8.0,52,0.00,,,0.00,859,MyOwnSoftware,2013-05-10 10:27:00,
2013-05-10 11:28:00,59.9,41.7,29.59,WNW,292,3.0,7.0,51,0.00,,,0.00,859,MyOwnSoftware,2013-05-10 10:28:00,
2013-05-10 11:29:00,59.9,42.2,29.59,WSW,248,5.0,7.0,52,0.00,,,0.00,859,MyOwnSoftware,2013-05-10 10:29:00,
2013-05-10 11:30:00,60.1,41.9,29.59,SW,225,5.0,10.0,51,0.00,,,0.00,859,MyOwnSoftware,2013-05-10 10:30:00,
2013-05-10 11:31:00,60.1,41.9,29.59,NW,315,2.0,3.0,51,0.00,,,0.00,859,MyOwnSoftware,2013-05-10 10:31:00,
2013-05-10 11:32:00,60.2,41.5,29.59,NNW,338,2.0,5.0,50,0.00,,,0.00,859,MyOwnSoftware,2013-05-10 10:32:00,
2013-05-10 11:33:00,60.4,42.2,29.59,SW,225,3.0,6.0,51,0.00,,,0.00,859,MyOwnSoftware,2013-05-10 10:33:00,
2013-05-10 11:34:00,60.4,41.0,29.59,ENE,76,2.0,-999.0,50,-99.99,,,0.05,859,weatherlink.com 1.10,2013-05-10 10:34:00,
2013-05-10 11:35:00,60.4,41.7,29.59,North,0,3.0,5.0,50,0.00,,,0.00,859,MyOwnSoftware,2013-05-10 10:35:00,
2013-05-10 11:36:00,60.4,42.2,29.59,SW,225,3.0,7.0,51,0.00,,,0.00,859,MyOwnSoftware,2013-05-10 10:36:00,
2013-05-10 11:37:00,60.4,42.2,29.59,SW,225,3.0,6.0,51,0.00,,,0.00,859,MyOwnSoftware,2013-05-10 10:37:00,
2013-05-10 11:38:00,60.4,41.7,29.59,SW,225,4.0,6.0,50,0.00,,,0.00,859,MyOwnSoftware,2013-05-10 10:38:00,
2013-05-10 11:39:00,60.4,41.7,29.59,NNE,22,4.0,8.0,50,0.00,,,0.00,859,MyOwnSoftware,2013-05-10 10:39:00,
2013-05-10 11:40:00,60.5,41.8,29.59,SSW,202,5.0,7.0,50,0.00,,,0.00,827,MyOwnSoftware,2013-05-10 10:40:00,
2013-05-10 11:41:00,60.5,41.8,29.59,SSW,202,4.0,7.0,50,0.00,,,0.00,823,MyOwnSoftware,2013-05-10 10:41:00,
2013-05-10 11:42:00,60.5,42.3,29.59,WNW,292,3.0,10.0,51,0.00,,,0.00,816,MyOwnSoftware,2013-05-10 10:42:00,
2013-05-10 11:43:00,60.7,43.0,29.59,NNE,22,3.0,8.0,52,0.00,,,0.00,818,MyOwnSoftware,2013-05-10 10:43:00,
2013-05-10 11:44:00,60.7,42.5,29.59,WNW,292,3.0,8.0,51,0.00,,,0.00,818,MyOwnSoftware,2013-05-10 10:44:00,
2013-05-10 11:45:00,60.7,43.0,29.59,SSW,202,6.0,11.0,52,0.00,,,0.00,832,MyOwnSoftware,2013-05-10 10:45:00,
2013-05-10 11:46:00,60.4,42.2,29.59,SW,225,3.0,6.0,51,0.00,,,0.00,859,MyOwnSoftware,2013-05-10 10:46:00,
2013-05-10 11:47:00,60.9,42.6,29.59,SW,225,4.0,6.0,51,0.00,,,0.00,859,MyOwnSoftware,2013-05-10 10:47:00,
2013-05-10 11:48:00,60.9,42.6,29.59,SSE,158,3.0,7.0,51,0.00,,,0.00,880,MyOwnSoftware,2013-05-10 10:48:00,
2013-05-10 11:49:00,60.9,42.1,29.59,WSW,248,3.0,11.0,50,0.00,,,0.00,880,MyOwnSoftware,2013-05-10 10:49:00,
2013-05-10 11:50:00,60.9,42.1,29.59,ENE,68,3.0,8.0,50,0.00,,,0.00,880,MyOwnSoftware,2013-05-10 10:50:00,
2013-05-10 11:51:00,60.9,42.1,29.59,West,270,3.0,6.0,50,0.00,,,0.00,880,MyOwnSoftware,2013-05-10 10:51:00,
2013-05-10 11:52:00,60.9,42.1,29.59,SSW,202,3.0,8.0,50,0.00,,,0.00,880,MyOwnSoftware,2013-05-10 10:52:00,
2013-05-10 11:53:00,60.9,42.6,29.59,WSW,248,3.0,5.0,51,0.00,,,0.00,880,MyOwnSoftware,2013-05-10 10:53:00,
2013-05-10 11:54:00,60.9,42.6,29.59,NW,315,3.0,5.0,51,0.00,,,0.00,880,MyOwnSoftware,2013-05-10 10:54:00,
2013-05-10 11:55:00,60.9,42.1,29.59,SW,225,5.0,7.0,50,0.00,,,0.00,303,MyOwnSoftware,2013-05-10 10:55:00,
2013-05-10 11:56:00,60.9,42.6,29.59,SW,225,4.0,6.0,51,0.00,,,0.00,859,MyOwnSoftware,2013-05-10 10:56:00,
2013-05-10 11:57:00,60.7,41.9,29.59,West,270,4.0,11.0,50,0.00,,,0.00,303,MyOwnSoftware,2013-05-10 10:57:00,
2013-05-10 11:58:00,60.9,42.1,29.59,SSW,202,5.0,13.0,50,0.00,,,0.00,895,MyOwnSoftware,2013-05-10 10:58:00,
2013-05-10 11:59:00,60.9,42.1,29.59,SSW,202,4.0,7.0,50,0.00,,,0.00,882,MyOwnSoftware,2013-05-10 10:59:00,
2013-05-10 12:00:00,60.9,42.6,29.60,WNW,292,2.0,7.0,51,0.00,,,0.00,855,MyOwnSoftware,2013-05-10 11:00:00,
2013-05-10 12:01:00,60.9,42.6,29.60,SW,225,2.0,7.0,51,0.00,,,0.00,838,MyOwnSoftware,2013-05-10 11:01:00,
2013-05-10 12:02:00,61.0,42.7,29.60,NE,45,2.0,5.0,51,0.00,,,0.00,838,MyOwnSoftware,2013-05-10 11:02:00,
2013-05-10 12:03:00,61.0,42.2,29.60,NNW,338,2.0,3.0,50,0.00,,,0.00,850,MyOwnSoftware,2013-05-10 11:03:00,
2013-05-10 12:04:00,61.0,41.0,29.60,North,3,3.0,-999.0,49,-99.99,,,0.05,850,weatherlink.com 1.10,2013-05-10 11:04:00,
2013-05-10 12:05:00,61.0,41.7,29.60,North,0,3.0,5.0,49,0.00,,,0.00,850,MyOwnSoftware,2013-05-10 11:05:00,
2013-05-10 12:06:00,60.9,42.1,29.60,WNW,292,3.0,7.0,50,0.00,,,0.00,850,MyOwnSoftware,2013-05-10 11:06:00,
2013-05-10 12:07:00,60.9,42.6,29.60,WSW,248,4.0,8.0,51,0.00,,,0.00,850,MyOwnSoftware,2013-05-10 11:07:00,
2013-05-10 12:08:00,60.7,42.5,29.60,WSW,248,3.0,6.0,51,0.00,,,0.00,952,MyOwnSoftware,2013-05-10 11:08:00,
2013-05-10 12:09:00,60.7,43.0,29.60,SW,225,6.0,11.0,52,0.00,,,0.00,940,MyOwnSoftware,2013-05-10 11:09:00,
2013-05-10 12:10:00,60.9,43.2,29.60,WNW,292,4.0,7.0,52,0.00,,,0.00,926,MyOwnSoftware,2013-05-10 11:10:00,
2013-05-10 12:11:00,60.9,43.2,29.60,WNW,292,3.0,6.0,52,0.00,,,0.00,926,MyOwnSoftware,2013-05-10 11:11:00,
2013-05-10 12:12:00,61.0,42.7,29.60,WSW,248,3.0,7.0,51,0.00,,,0.00,852,MyOwnSoftware,2013-05-10 11:12:00,
2013-05-10 12:13:00,61.0,43.7,29.60,NW,315,4.0,10.0,53,0.00,,,0.00,818,MyOwnSoftware,2013-05-10 11:13:00,
2013-05-10 12:14:00,61.2,43.9,29.60,West,270,2.0,7.0,53,0.00,,,0.00,818,MyOwnSoftware,2013-05-10 11:14:00,
2013-05-10 12:15:00,61.2,43.4,29.60,WNW,292,6.0,12.0,52,0.00,,,0.00,853,MyOwnSoftware,2013-05-10 11:15:00,
2013-05-10 12:16:00,60.9,42.6,29.60,WSW,248,4.0,8.0,51,0.00,,,0.00,850,MyOwnSoftware,2013-05-10 11:16:00,
2013-05-10 12:17:00,61.3,43.0,29.60,SSW,202,4.0,6.0,51,0.00,,,0.00,867,MyOwnSoftware,2013-05-10 11:17:00,
2013-05-10 12:18:00,61.3,43.0,29.60,South,180,5.0,7.0,51,0.00,,,0.00,922,MyOwnSoftware,2013-05-10 11:18:00,
2013-05-10 12:19:00,61.3,43.0,29.60,South,180,7.0,11.0,51,0.00,,,0.00,533,MyOwnSoftware,2013-05-10 11:19:00,
2013-05-10 12:20:00,61.5,43.2,29.60,SW,225,4.0,7.0,51,0.00,,,0.00,533,MyOwnSoftware,2013-05-10 11:20:00,
2013-05-10 12:21:00,61.5,43.2,29.60,SW,225,5.0,9.0,51,0.00,,,0.00,273,MyOwnSoftware,2013-05-10 11:21:00,
2013-05-10 12:22:00,61.5,43.2,29.60,North,0,2.0,6.0,51,0.00,,,0.00,264,MyOwnSoftware,2013-05-10 11:22:00,
2013-05-10 12:23:00,61.3,42.5,29.60,SW,225,3.0,7.0,50,0.00,,,0.00,255,MyOwnSoftware,2013-05-10 11:23:00,
2013-05-10 12:24:00,61.2,42.4,29.60,NNW,338,4.0,10.0,50,0.00,,,0.00,245,MyOwnSoftware,2013-05-10 11:24:00,
2013-05-10 12:25:00,61.0,42.7,29.60,WNW,292,4.0,7.0,51,0.00,,,0.00,238,MyOwnSoftware,2013-05-10 11:25:00,
2013-05-10 12:26:00,60.9,42.6,29.60,SSW,202,3.0,8.0,51,0.00,,,0.00,239,MyOwnSoftware,2013-05-10 11:26:00,
2013-05-10 12:27:00,60.7,42.5,29.60,WNW,292,4.0,8.0,51,0.00,,,0.00,252,MyOwnSoftware,2013-05-10 11:27:00,
2013-05-10 12:28:00,60.4,42.2,29.60,SSE,158,2.0,5.0,51,0.00,,,0.00,276,MyOwnSoftware,2013-05-10 11:28:00,
2013-05-10 12:29:00,60.2,42.0,29.60,SW,225,6.0,11.0,51,0.00,,,0.00,311,MyOwnSoftware,2013-05-10 11:29:00,
2013-05-10 12:30:00,59.9,41.2,29.60,SSW,202,4.0,10.0,50,0.00,,,0.00,338,MyOwnSoftware,2013-05-10 11:30:00,
2013-05-10 12:31:00,59.9,41.7,29.60,WSW,248,1.0,3.0,51,0.00,,,0.00,385,MyOwnSoftware,2013-05-10 11:31:00,
2013-05-10 12:32:00,59.8,42.1,29.60,SSW,202,1.0,3.0,52,0.00,,,0.00,406,MyOwnSoftware,2013-05-10 11:32:00,
2013-05-10 12:33:00,59.6,42.0,29.60,South,180,3.0,6.0,52,0.00,,,0.00,406,MyOwnSoftware,2013-05-10 11:33:00,
2013-05-10 12:34:00,59.6,42.0,29.60,SW,230,2.0,-999.0,52,-99.99,,,0.05,317,weatherlink.com 1.10,2013-05-10 11:34:00,
2013-05-10 12:35:00,59.5,41.9,29.60,WNW,292,3.0,6.0,52,0.00,,,0.00,317,MyOwnSoftware,2013-05-10 11:35:00,
2013-05-10 12:36:00,59.5,41.9,29.60,West,270,2.0,5.0,52,0.00,,,0.00,317,MyOwnSoftware,2013-05-10 11:36:00,
2013-05-10 12:37:00,59.5,42.4,29.60,West,270,3.0,6.0,53,0.00,,,0.00,317,MyOwnSoftware,2013-05-10 11:37:00,
2013-05-10 12:38:00,59.5,42.4,29.60,SW,225,7.0,12.0,53,0.00,,,0.00,317,MyOwnSoftware,2013-05-10 11:38:00,
2013-05-10 12:39:00,59.5,41.9,29.60,WSW,248,3.0,7.0,52,0.00,,,0.00,317,MyOwnSoftware,2013-05-10 11:39:00,
2013-05-10 12:40:00,59.5,42.4,29.60,WNW,292,4.0,11.0,53,0.00,,,0.00,317,MyOwnSoftware,2013-05-10 11:40:00,
2013-05-10 12:41:00,59.5,41.9,29.60,North,0,3.0,6.0,52,0.00,,,0.00,317,MyOwnSoftware,2013-05-10 11:41:00,
2013-05-10 12:42:00,59.6,42.0,29.60,SW,225,6.0,11.0,52,0.00,,,0.00,317,MyOwnSoftware,2013-05-10 11:42:00,
2013-05-10 12:43:00,59.6,42.0,29.60,WSW,248,3.0,7.0,52,0.00,,,0.00,317,MyOwnSoftware,2013-05-10 11:43:00,
2013-05-10 12:44:00,59.8,42.1,29.60,SW,225,5.0,7.0,52,0.00,,,0.00,317,MyOwnSoftware,2013-05-10 11:44:00,
2013-05-10 12:45:00,59.9,41.7,29.61,SSW,202,4.0,7.0,51,0.00,,,0.00,234,MyOwnSoftware,2013-05-10 11:45:00,
2013-05-10 12:46:00,59.5,42.4,29.60,West,270,3.0,6.0,53,0.00,,,0.00,317,MyOwnSoftware,2013-05-10 11:46:00,
2013-05-10 12:47:00,60.1,42.4,29.61,SW,225,3.0,7.0,52,0.00,,,0.00,188,MyOwnSoftware,2013-05-10 11:47:00,
2013-05-10 12:48:00,60.1,41.9,29.61,SW,225,0.0,2.0,51,0.00,,,0.00,160,MyOwnSoftware,2013-05-10 11:48:00,
2013-05-10 12:49:00,60.1,42.4,29.61,SSW,202,2.0,7.0,52,0.00,,,0.00,151,MyOwnSoftware,2013-05-10 11:49:00,
2013-05-10 12:50:00,60.1,42.4,29.61,South,180,4.0,10.0,52,0.00,,,0.00,155,MyOwnSoftware,2013-05-10 11:50:00,
2013-05-10 12:51:00,59.9,41.7,29.61,SSW,202,7.0,12.0,51,0.00,,,0.00,169,MyOwnSoftware,2013-05-10 11:51:00,
2013-05-10 12:52:00,59.8,42.1,29.61,NW,315,3.0,7.0,52,0.00,,,0.00,183,MyOwnSoftware,2013-05-10 11:52:00,
2013-05-10 12:53:00,59.6,42.0,29.61,SSW,202,6.0,13.0,52,0.00,,,0.00,210,MyOwnSoftware,2013-05-10 11:53:00,
2013-05-10 12:54:00,59.5,41.9,29.61,WSW,248,3.0,8.0,52,0.00,,,0.00,222,MyOwnSoftware,2013-05-10 11:54:00,
2013-05-10 12:55:00,59.5,42.4,29.61,SW,225,2.0,7.0,53,0.00,,,0.00,222,MyOwnSoftware,2013-05-10 11:55:00,
2013-05-10 12:56:00,60.1,42.4,29.61,SW,225,3.0,7.0,52,0.00,,,0.00,188,MyOwnSoftware,2013-05-10 11:56:00,
2013-05-10 12:57:00,59.3,42.7,29.61,SSW,202,0.0,1.0,54,0.00,,,0.00,364,MyOwnSoftware,2013-05-10 11:57:00,
2013-05-10 12:58:00,59.3,42.7,29.61,SW,225,2.0,5.0,54,0.00,,,0.00,364,MyOwnSoftware,2013-05-10 11:58:00,
2013-05-10 12:59:00,59.3,43.1,29.61,SSW,202,3.0,11.0,55,0.00,,,0.00,364,MyOwnSoftware,2013-05-10 11:59:00,
2013-05-10 13:00:00,59.5,43.3,29.61,SW,225,8.0,14.0,55,0.00,,,0.00,977,MyOwnSoftware,2013-05-10 12:00:00,
2013-05-10 13:01:00,59.5,41.9,29.61,WSW,248,5.0,12.0,52,0.00,,,0.00,977,MyOwnSoftware,2013-05-10 12:01:00,
2013-05-10 13:02:00,59.6,42.0,29.61,SSE,158,5.0,8.0,52,0.00,,,0.00,977,MyOwnSoftware,2013-05-10 12:02:00,
2013-05-10 13:03:00,59.8,41.6,29.61,SW,225,5.0,7.0,51,0.00,,,0.00,503,MyOwnSoftware,2013-05-10 12:03:00,
2013-05-10 13:04:00,59.8,41.6,29.61,SW,225,4.0,7.0,51,0.00,,,0.00,503,MyOwnSoftware,2013-05-10 12:04:00,
2013-05-10 13:05:00,59.9,42.0,29.61,SSW,212,5.0,-999.0,51,-99.99,,,0.05,503,weatherlink.com 1.10,2013-05-10 12:05:00,
2013-05-10 13:06:00,59.9,41.7,29.61,SW,225,4.0,8.0,51,0.00,,,0.00,503,MyOwnSoftware,2013-05-10 12:06:00,
2013-05-10 13:07:00,59.9,41.7,29.61,WNW,292,2.0,7.0,51,0.00,,,0.00,503,MyOwnSoftware,2013-05-10 12:07:00,
2013-05-10 13:08:00,59.9,41.7,29.61,North,0,3.0,6.0,51,0.00,,,0.00,394,MyOwnSoftware,2013-05-10 12:08:00,
2013-05-10 13:09:00,59.9,42.2,29.61,SSW,202,3.0,7.0,52,0.00,,,0.00,412,MyOwnSoftware,2013-05-10 12:09:00,
2013-05-10 13:10:00,59.8,42.1,29.61,North,0,5.0,7.0,52,0.00,,,0.00,436,MyOwnSoftware,2013-05-10 12:10:00,
2013-05-10 13:11:00,59.6,42.0,29.61,North,0,5.0,8.0,52,0.00,,,0.00,436,MyOwnSoftware,2013-05-10 12:11:00,
2013-05-10 13:12:00,59.5,41.9,29.61,WNW,292,4.0,8.0,52,0.00,,,0.00,512,MyOwnSoftware,2013-05-10 12:12:00,
2013-05-10 13:13:00,59.5,41.9,29.61,NW,315,4.0,7.0,52,0.00,,,0.00,882,MyOwnSoftware,2013-05-10 12:13:00,
2013-05-10 13:14:00,59.5,41.9,29.61,WSW,248,4.0,6.0,52,0.00,,,0.00,838,MyOwnSoftware,2013-05-10 12:14:00,
2013-05-10 13:15:00,59.5,41.9,29.61,West,270,5.0,10.0,52,0.00,,,0.00,838,MyOwnSoftware,2013-05-10 12:15:00,
2013-05-10 13:16:00,59.9,41.7,29.61,WNW,292,2.0,7.0,51,0.00,,,0.00,503,MyOwnSoftware,2013-05-10 12:16:00,
2013-05-10 13:17:00,59.5,41.4,29.61,NNW,338,2.0,3.0,51,0.00,,,0.00,774,MyOwnSoftware,2013-05-10 12:17:00,
2013-05-10 13:18:00,59.6,41.4,29.61,West,270,4.0,7.0,51,0.00,,,0.00,774,MyOwnSoftware,2013-05-10 12:18:00,
2013-05-10 13:19:00,59.6,41.4,29.61,North,0,4.0,6.0,51,0.00,,,0.00,774,MyOwnSoftware,2013-05-10 12:19:00,
2013-05-10 13:20:00,59.6,42.0,29.61,North,0,3.0,6.0,52,0.00,,,0.00,774,MyOwnSoftware,2013-05-10 12:20:00,
2013-05-10 13:21:00,59.6,40.9,29.61,SSW,202,6.0,10.0,50,0.00,,,0.00,774,MyOwnSoftware,2013-05-10 12:21:00,
2013-05-10 13:22:00,59.6,40.9,29.61,WNW,292,5.0,13.0,50,0.00,,,0.00,774,MyOwnSoftware,2013-05-10 12:22:00,
2013-05-10 13:23:00,59.6,40.9,29.61,SW,225,6.0,12.0,50,0.00,,,0.00,752,MyOwnSoftware,2013-05-10 12:23:00,
2013-05-10 13:24:00,59.6,40.9,29.61,North,0,5.0,7.0,50,0.00,,,0.00,744,MyOwnSoftware,2013-05-10 12:24:00,
2013-05-10 13:25:00,59.6,41.4,29.61,North,0,4.0,6.0,51,0.00,,,0.00,714,MyOwnSoftware,2013-05-10 12:25:00,
2013-05-10 13:26:00,59.6,40.9,29.61,North,0,4.0,6.0,50,0.00,,,0.00,746,MyOwnSoftware,2013-05-10 12:26:00,
2013-05-10 13:27:00,59.5,41.4,29.61,West,270,4.0,6.0,51,0.00,,,0.00,746,MyOwnSoftware,2013-05-10 12:27:00,
2013-05-10 13:28:00,59.5,41.4,29.61,North,0,4.0,7.0,51,0.00,,,0.00,747,MyOwnSoftware,2013-05-10 12:28:00,
2013-05-10 13:29:00,59.5,41.4,29.61,North,0,4.0,6.0,51,0.00,,,0.00,746,MyOwnSoftware,2013-05-10 12:29:00,
2013-05-10 13:30:00,59.5,41.4,29.61,North,0,3.0,6.0,51,0.00,,,0.00,746,MyOwnSoftware,2013-05-10 12:30:00,
2013-05-10 13:31:00,59.6,40.9,29.61,WNW,292,4.0,7.0,50,0.00,,,0.00,691,MyOwnSoftware,2013-05-10 12:31:00,
2013-05-10 13:32:00,59.6,40.9,29.61,SSW,202,8.0,16.0,50,0.00,,,0.00,714,MyOwnSoftware,2013-05-10 12:32:00,
2013-05-10 13:33:00,59.6,40.4,29.61,SW,225,6.0,14.0,49,0.00,,,0.00,616,MyOwnSoftware,2013-05-10 12:33:00,
2013-05-10 13:34:00,59.6,40.9,29.61,NNW,338,2.0,6.0,50,0.00,,,0.00,665,MyOwnSoftware,2013-05-10 12:34:00,
2013-05-10 13:35:00,59.6,41.0,29.61,South,181,4.0,-999.0,50,-99.99,,,0.05,665,weatherlink.com 1.10,2013-05-10 12:35:00,
2013-05-10 13:36:00,59.6,40.9,29.61,West,270,4.0,6.0,50,0.00,,,0.00,741,MyOwnSoftware,2013-05-10 12:36:00,
2013-05-10 13:37:00,59.6,40.9,29.61,West,270,4.0,11.0,50,0.00,,,0.00,741,MyOwnSoftware,2013-05-10 12:37:00,
2013-05-10 13:38:00,59.6,40.9,29.61,SSW,202,5.0,8.0,50,0.00,,,0.00,567,MyOwnSoftware,2013-05-10 12:38:00,
2013-05-10 13:39:00,59.8,41.1,29.61,WSW,248,5.0,8.0,50,0.00,,,0.00,567,MyOwnSoftware,2013-05-10 12:39:00,
2013-05-10 13:40:00,59.8,41.1,29.61,SSW,202,4.0,10.0,50,0.00,,,0.00,567,MyOwnSoftware,2013-05-10 12:40:00,
2013-05-10 13:41:00,59.9,41.2,29.61,SW,225,4.0,13.0,50,0.00,,,0.00,567,MyOwnSoftware,2013-05-10 12:41:00,
2013-05-10 13:42:00,59.9,41.7,29.61,SSW,202,6.0,13.0,51,0.00,,,0.00,567,MyOwnSoftware,2013-05-10 12:42:00,
2013-05-10 13:43:00,59.9,41.7,29.61,SSW,202,6.0,13.0,51,0.00,,,0.00,549,MyOwnSoftware,2013-05-10 12:43:00,
2013-05-10 13:44:00,59.9,41.7,29.61,WNW,292,4.0,6.0,51,0.00,,,0.00,549,MyOwnSoftware,2013-05-10 12:44:00,
2013-05-10 13:45:00,59.9,42.2,29.62,NW,315,4.0,6.0,52,0.00,,,0.00,549,MyOwnSoftware,2013-05-10 12:45:00,
2013-05-10 13:46:00,59.6,40.9,29.61,West,270,4.0,11.0,50,0.00,,,0.00,741,MyOwnSoftware,2013-05-10 12:46:00,
2013-05-10 13:47:00,59.8,42.1,29.62,WNW,292,4.0,6.0,52,0.00,,,0.00,626,MyOwnSoftware,2013-05-10 12:47:00,
2013-05-10 13:48:00,59.8,42.1,29.62,North,0,3.0,6.0,52,0.00,,,0.00,660,MyOwnSoftware,2013-05-10 12:48:00,
2013-05-10 13:49:00,59.6,42.0,29.62,NNW,338,4.0,11.0,52,0.00,,,0.00,660,MyOwnSoftware,2013-05-10 12:49:00,
2013-05-10 13:50:00,59.6,42.0,29.62,SSE,158,6.0,11.0,52,0.00,,,0.00,660,MyOwnSoftware,2013-05-10 12:50:00,
2013-05-10 13:51:00,59.6,42.0,29.62,West,270,5.0,10.0,52,0.00,,,0.00,660,MyOwnSoftware,2013-05-10 12:51:00,
2013-05-10 13:52:00,59.5,41.4,29.62,North,0,4.0,7.0,51,0.00,,,0.00,660,MyOwnSoftware,2013-05-10 12:52:00,
2013-05-10 13:53:00,59.3,41.2,29.62,South,180,6.0,11.0,51,0.00,,,0.00,660,MyOwnSoftware,2013-05-10 12:53:00,
2013-05-10 13:54:00,59.3,41.2,29.62,NW,315,5.0,12.0,51,0.00,,,0.00,660,MyOwnSoftware,2013-05-10 12:54:00,
2013-05-10 13:55:00,59.3,41.7,29.62,NNE,22,3.0,6.0,52,0.00,,,0.00,581,MyOwnSoftware,2013-05-10 12:55:00,
2013-05-10 13:56:00,59.8,42.1,29.62,WNW,292,4.0,6.0,52,0.00,,,0.00,626,MyOwnSoftware,2013-05-10 12:56:00,
2013-05-10 13:57:00,59.2,42.1,29.62,WNW,292,4.0,7.0,53,0.00,,,0.00,540,MyOwnSoftware,2013-05-10 12:57:00,
2013-05-10 13:58:00,59.2,41.6,29.62,NE,45,4.0,6.0,52,0.00,,,0.00,507,MyOwnSoftware,2013-05-10 12:58:00,
2013-05-10 13:59:00,59.2,41.6,29.62,WNW,292,3.0,6.0,52,0.00,,,0.00,593,MyOwnSoftware,2013-05-10 12:59:00,
2013-05-10 14:00:00,59.2,41.6,29.62,North,0,4.0,7.0,52,0.00,,,0.00,593,MyOwnSoftware,2013-05-10 13:00:00,
2013-05-10 14:01:00,59.0,41.9,29.62,North,0,4.0,6.0,53,0.00,,,0.00,593,MyOwnSoftware,2013-05-10 13:01:00,
2013-05-10 14:02:00,59.0,41.9,29.62,SW,225,4.0,7.0,53,0.00,,,0.00,593,MyOwnSoftware,2013-05-10 13:02:00,
2013-05-10 14:03:00,59.0,41.9,29.62,SSW,202,6.0,11.0,53,0.00,,,0.00,413,MyOwnSoftware,2013-05-10 13:03:00,
2013-05-10 14:04:00,59.0,41.9,29.62,SW,225,4.0,7.0,53,0.00,,,0.00,394,MyOwnSoftware,2013-05-10 13:04:00,
2013-05-10 14:05:00,58.9,42.0,29.62,North,0,5.0,-999.0,54,-99.99,,,0.05,429,weatherlink.com 1.10,2013-05-10 13:05:00,
2013-05-10 14:06:00,58.9,42.3,29.62,North,0,3.0,6.0,54,0.00,,,0.00,429,MyOwnSoftware,2013-05-10 13:06:00,
2013-05-10 14:07:00,58.9,42.3,29.62,SW,225,4.0,7.0,54,0.00,,,0.00,419,MyOwnSoftware,2013-05-10 13:07:00,
2013-05-10 14:08:00,58.9,42.3,29.62,South,180,1.0,3.0,54,0.00,,,0.00,422,MyOwnSoftware,2013-05-10 13:08:00,
2013-05-10 14:09:00,58.9,42.8,29.62,SW,225,4.0,7.0,55,0.00,,,0.00,366,MyOwnSoftware,2013-05-10 13:09:00,
2013-05-10 14:10:00,58.9,42.8,29.62,West,270,5.0,10.0,55,0.00,,,0.00,362,MyOwnSoftware,2013-05-10 13:10:00,
2013-05-10 14:11:00,58.9,42.3,29.62,SW,225,4.0,7.0,54,0.00,,,0.00,341,MyOwnSoftware,2013-05-10 13:11:00,
2013-05-10 14:12:00,58.9,42.8,29.62,NNW,338,2.0,5.0,55,0.00,,,0.00,320,MyOwnSoftware,2013-05-10 13:12:00,
2013-05-10 14:13:00,58.7,42.1,29.62,South,180,6.0,11.0,54,0.00,,,0.00,310,MyOwnSoftware,2013-05-10 13:13:00,
2013-05-10 14:14:00,58.7,41.6,29.62,West,270,3.0,6.0,53,0.00,,,0.00,310,MyOwnSoftware,2013-05-10 13:14:00,
2013-05-10 14:15:00,58.7,41.6,29.62,North,0,6.0,14.0,53,0.00,,,0.00,371,MyOwnSoftware,2013-05-10 13:15:00,
2013-05-10 14:16:00,58.9,42.3,29.62,SW,225,4.0,7.0,54,0.00,,,0.00,419,MyOwnSoftware,2013-05-10 13:16:00,
2013-05-10 14:17:00,58.6,41.0,29.62,WNW,292,3.0,6.0,52,0.00,,,0.00,382,MyOwnSoftware,2013-05-10 13:17:00,
2013-05-10 14:18:00,58.4,40.8,29.62,WNW,292,4.0,10.0,52,0.00,,,0.00,350,MyOwnSoftware,2013-05-10 13:18:00,
2013-05-10 14:19:00,58.4,41.3,29.62,SSW,202,4.0,12.0,53,0.00,,,0.00,352,MyOwnSoftware,2013-05-10 13:19:00,
2013-05-10 14:20:00,58.3,41.2,29.62,SW,225,5.0,12.0,53,0.00,,,0.00,352,MyOwnSoftware,2013-05-10 13:20:00,
2013-05-10 14:21:00,58.3,41.2,29.62,SSW,202,5.0,13.0,53,0.00,,,0.00,266,MyOwnSoftware,2013-05-10 13:21:00,
2013-05-10 14:22:00,58.3,40.8,29.62,SW,225,6.0,8.0,52,0.00,,,0.00,248,MyOwnSoftware,2013-05-10 13:22:00,
2013-05-10 14:23:00,58.3,40.8,29.62,WSW,248,5.0,6.0,52,0.00,,,0.00,232,MyOwnSoftware,2013-05-10 13:23:00,
2013-05-10 14:24:00,58.3,41.2,29.62,WSW,248,5.0,8.0,53,0.00,,,0.00,246,MyOwnSoftware,2013-05-10 13:24:00,
2013-05-10 14:25:00,58.3,41.7,29.62,West,270,4.0,11.0,54,0.00,,,0.00,276,MyOwnSoftware,2013-05-10 13:25:00,
2013-05-10 14:26:00,58.3,41.7,29.62,WNW,292,2.0,7.0,54,0.00,,,0.00,310,MyOwnSoftware,2013-05-10 13:26:00,
2013-05-10 14:27:00,58.3,41.2,29.62,SSW,202,5.0,7.0,53,0.00,,,0.00,343,MyOwnSoftware,2013-05-10 13:27:00,
2013-05-10 14:28:00,58.1,41.5,29.62,NW,315,3.0,6.0,54,0.00,,,0.00,345,MyOwnSoftware,2013-05-10 13:28:00,
2013-05-10 14:29:00,58.1,41.5,29.62,NW,315,2.0,5.0,54,0.00,,,0.00,345,MyOwnSoftware,2013-05-10 13:29:00,
2013-05-10 14:30:00,58.1,41.5,29.62,South,180,7.0,9.0,54,0.00,,,0.00,396,MyOwnSoftware,2013-05-10 13:30:00,
2013-05-10 14:31:00,58.1,41.5,29.62,West,270,6.0,12.0,54,0.00,,,0.00,364,MyOwnSoftware,2013-05-10 13:31:00,
2013-05-10 14:32:00,58.0,41.4,29.62,WSW,248,5.0,10.0,54,0.00,,,0.00,327,MyOwnSoftware,2013-05-10 13:32:00,
2013-05-10 14:33:00,58.0,41.9,29.62,WSW,248,4.0,7.0,55,0.00,,,0.00,345,MyOwnSoftware,2013-05-10 13:33:00,
2013-05-10 14:34:00,58.0,41.9,29.62,North,0,5.0,10.0,55,0.00,,,0.00,345,MyOwnSoftware,2013-05-10 13:34:00,
2013-05-10 14:35:00,57.8,42.0,29.62,SSE,148,8.0,-999.0,56,-99.99,,,0.05,345,weatherlink.com 1.10,2013-05-10 13:35:00,
2013-05-10 14:36:00,57.8,42.2,29.62,SE,135,2.0,8.0,56,0.00,,,0.00,345,MyOwnSoftware,2013-05-10 13:36:00,
2013-05-10 14:37:00,57.8,42.2,29.62,SSE,158,2.0,6.0,56,0.00,,,0.00,228,MyOwnSoftware,2013-05-10 13:37:00,
2013-05-10 14:38:00,57.8,42.2,29.62,North,0,4.0,12.0,56,0.00,,,0.00,213,MyOwnSoftware,2013-05-10 13:38:00,
2013-05-10 14:39:00,58.0,41.4,29.62,SW,225,4.0,10.0,54,0.00,,,0.00,252,MyOwnSoftware,2013-05-10 13:39:00,
2013-05-10 14:40:00,58.0,41.4,29.62,SSW,202,2.0,5.0,54,0.00,,,0.00,222,MyOwnSoftware,2013-05-10 13:40:00,
2013-05-10 14:41:00,58.0,41.4,29.62,SSW,202,3.0,7.0,54,0.00,,,0.00,227,MyOwnSoftware,2013-05-10 13:41:00,
2013-05-10 14:42:00,58.0,41.4,29.62,SW,225,3.0,7.0,54,0.00,,,0.00,205,MyOwnSoftware,2013-05-10 13:42:00,
2013-05-10 14:43:00,58.0,41.0,29.62,SSW,202,8.0,13.0,53,0.00,,,0.00,194,MyOwnSoftware,2013-05-10 13:43:00,
2013-05-10 14:44:00,58.0,41.0,29.62,NW,315,3.0,10.0,53,0.00,,,0.00,195,MyOwnSoftware,2013-05-10 13:44:00,
2013-05-10 14:45:00,58.0,41.0,29.63,West,270,5.0,12.0,53,0.00,,,0.00,188,MyOwnSoftware,2013-05-10 13:45:00,
2013-05-10 14:46:00,57.8,42.2,29.62,SSE,158,2.0,6.0,56,0.00,,,0.00,228,MyOwnSoftware,2013-05-10 13:46:00,
2013-05-10 14:47:00,57.8,41.7,29.63,NW,315,3.0,6.0,55,0.00,,,0.00,214,MyOwnSoftware,2013-05-10 13:47:00,
2013-05-10 14:48:00,57.8,41.7,29.63,SW,225,3.0,5.0,55,0.00,,,0.00,253,MyOwnSoftware,2013-05-10 13:48:00,
2013-05-10 14:49:00,57.8,42.2,29.63,SW,225,7.0,11.0,56,0.00,,,0.00,287,MyOwnSoftware,2013-05-10 13:49:00,
2013-05-10 14:50:00,57.6,42.0,29.63,SSW,202,6.0,10.0,56,0.00,,,0.00,318,MyOwnSoftware,2013-05-10 13:50:00,
2013-05-10 14:51:00,57.6,42.0,29.63,SSW,202,8.0,14.0,56,0.00,,,0.00,324,MyOwnSoftware,2013-05-10 13:51:00,
2013-05-10 14:52:00,57.5,42.4,29.63,SSW,202,5.0,11.0,57,0.00,,,0.00,336,MyOwnSoftware,2013-05-10 13:52:00,
2013-05-10 14:53:00,57.5,42.4,29.63,SSW,202,7.0,14.0,57,0.00,,,0.00,345,MyOwnSoftware,2013-05-10 13:53:00,
2013-05-10 14:54:00,57.5,42.4,29.63,SSW,202,5.0,10.0,57,0.00,,,0.00,354,MyOwnSoftware,2013-05-10 13:54:00,
2013-05-10 14:55:00,57.3,42.2,29.63,SSW,202,7.0,14.0,57,0.00,,,0.00,355,MyOwnSoftware,2013-05-10 13:55:00,
2013-05-10 14:56:00,57.8,41.7,29.63,NW,315,3.0,6.0,55,0.00,,,0.00,214,MyOwnSoftware,2013-05-10 13:56:00,
2013-05-10 14:57:00,57.3,42.2,29.63,North,0,4.0,7.0,57,0.00,,,0.00,335,MyOwnSoftware,2013-05-10 13:57:00,
2013-05-10 14:58:00,57.3,42.6,29.63,West,270,2.0,6.0,58,0.00,,,0.00,317,MyOwnSoftware,2013-05-10 13:58:00,
2013-05-10 14:59:00,57.2,42.6,29.63,ESE,112,1.0,3.0,58,0.00,,,0.00,308,MyOwnSoftware,2013-05-10 13:59:00,
2013-05-10 15:00:00,57.2,42.6,29.63,WNW,292,4.0,7.0,58,0.00,,,0.00,292,MyOwnSoftware,2013-05-10 14:00:00,
2013-05-10 15:01:00,57.2,43.0,29.63,NW,315,4.0,8.0,59,0.00,,,0.00,276,MyOwnSoftware,2013-05-10 14:01:00,
2013-05-10 15:02:00,57.2,43.4,29.63,West,270,5.0,8.0,60,0.00,,,0.00,268,MyOwnSoftware,2013-05-10 14:02:00,
2013-05-10 15:03:00,57.0,43.7,29.63,WSW,248,6.0,13.0,61,0.00,,,0.00,262,MyOwnSoftware,2013-05-10 14:03:00,
2013-05-10 15:04:00,57.0,44.1,29.63,WSW,248,6.0,8.0,62,0.00,,,0.00,262,MyOwnSoftware,2013-05-10 14:04:00,
2013-05-10 15:05:00,56.9,45.0,29.63,SSW,203,11.0,-999.0,64,-99.99,,,0.05,278,weatherlink.com 1.10,2013-05-10 14:05:00,
2013-05-10 15:06:00,56.7,45.1,29.63,SSW,202,6.0,12.0,65,0.00,,,0.00,278,MyOwnSoftware,2013-05-10 14:06:00,
2013-05-10 15:07:00,56.7,45.5,29.63,SSW,202,3.0,8.0,66,0.00,,,0.00,276,MyOwnSoftware,2013-05-10 14:07:00,
2013-05-10 15:08:00,56.6,45.4,29.63,SSW,202,5.0,11.0,66,0.00,,,0.00,269,MyOwnSoftware,2013-05-10 14:08:00,
2013-05-10 15:09:00,56.6,45.4,29.63,WNW,292,2.0,5.0,66,0.00,,,0.00,260,MyOwnSoftware,2013-05-10 14:09:00,
2013-05-10 15:10:00,56.5,45.7,29.63,WSW,248,5.0,7.0,67,0.00,,,0.00,253,MyOwnSoftware,2013-05-10 14:10:00,
2013-05-10 15:11:00,56.3,45.9,29.63,WNW,292,4.0,7.0,68,0.00,,,0.00,248,MyOwnSoftware,2013-05-10 14:11:00,
2013-05-10 15:12:00,56.3,46.3,29.63,SSW,202,4.0,11.0,69,0.00,,,0.00,239,MyOwnSoftware,2013-05-10 14:12:00,
2013-05-10 15:13:00,56.2,46.2,29.63,SW,225,3.0,6.0,69,0.00,,,0.00,230,MyOwnSoftware,2013-05-10 14:13:00,
2013-05-10 15:14:00,56.2,46.2,29.63,NNW,338,4.0,6.0,69,0.00,,,0.00,232,MyOwnSoftware,2013-05-10 14:14:00,
2013-05-10 15:15:00,56.0,46.4,29.63,NW,315,2.0,7.0,70,0.00,,,0.00,229,MyOwnSoftware,2013-05-10 14:15:00,
2013-05-10 15:16:00,56.7,45.5,29.63,SSW,202,3.0,8.0,66,0.00,,,0.00,276,MyOwnSoftware,2013-05-10 14:16:00,
2013-05-10 15:17:00,55.9,46.6,29.63,SW,225,3.0,6.0,71,0.00,,,0.00,239,MyOwnSoftware,2013-05-10 14:17:00,
2013-05-10 15:18:00,55.9,46.6,29.63,SSW,202,5.0,8.0,71,0.00,,,0.00,248,MyOwnSoftware,2013-05-10 14:18:00,
2013-05-10 15:19:00,55.7,46.8,29.63,SSW,202,4.0,10.0,72,0.00,,,0.00,250,MyOwnSoftware,2013-05-10 14:19:00,
2013-05-10 15:20:00,55.6,46.7,29.63,South,180,4.0,10.0,72,0.00,,,0.00,252,MyOwnSoftware,2013-05-10 14:20:00,
2013-05-10 15:21:00,55.6,47.1,29.63,West,270,2.0,7.0,73,0.00,,,0.00,250,MyOwnSoftware,2013-05-10 14:21:00,
2013-05-10 15:22:00,55.6,47.1,29.63,WSW,248,3.0,7.0,73,0.00,,,0.00,240,MyOwnSoftware,2013-05-10 14:22:00,
2013-05-10 15:23:00,55.4,47.3,29.63,SSE,158,6.0,11.0,74,0.00,,,0.00,223,MyOwnSoftware,2013-05-10 14:23:00,
2013-05-10 15:24:00,55.4,47.3,29.63,WSW,248,3.0,6.0,74,0.00,,,0.00,215,MyOwnSoftware,2013-05-10 14:24:00,
2013-05-10 15:25:00,55.3,46.8,29.63,WSW,248,3.0,7.0,73,0.00,,,0.00,216,MyOwnSoftware,2013-05-10 14:25:00,
2013-05-10 15:26:00,55.3,47.2,29.63,SW,225,5.0,12.0,74,0.00,,,0.00,216,MyOwnSoftware,2013-05-10 14:26:00,
2013-05-10 15:27:00,55.1,47.0,29.63,South,180,4.0,10.0,74,0.00,,,0.00,202,MyOwnSoftware,2013-05-10 14:27:00,
2013-05-10 15:28:00,55.1,47.0,29.63,SSW,202,4.0,7.0,74,0.00,,,0.00,202,MyOwnSoftware,2013-05-10 14:28:00,
2013-05-10 15:29:00,55.0,46.9,29.63,West,270,4.0,8.0,74,0.00,,,0.00,192,MyOwnSoftware,2013-05-10 14:29:00,
2013-05-10 15:30:00,54.8,47.0,29.63,NNW,338,2.0,4.0,75,0.00,,,0.00,208,MyOwnSoftware,2013-05-10 14:30:00,
2013-05-10 15:31:00,54.8,47.0,29.63,SSW,202,3.0,7.0,75,0.00,,,0.00,211,MyOwnSoftware,2013-05-10 14:31:00,
2013-05-10 15:32:00,54.8,47.0,29.63,SSW,202,6.0,13.0,75,0.00,,,0.00,207,MyOwnSoftware,2013-05-10 14:32:00,
2013-05-10 15:33:00,54.7,46.9,29.63,WSW,248,4.0,7.0,75,0.00,,,0.00,218,MyOwnSoftware,2013-05-10 14:33:00,
2013-05-10 15:34:00,54.5,47.1,29.63,SSW,202,5.0,7.0,76,0.00,,,0.00,227,MyOwnSoftware,2013-05-10 14:34:00,
2013-05-10 15:35:00,54.5,47.1,29.63,SSW,202,4.0,8.0,76,0.00,,,0.00,253,MyOwnSoftware,2013-05-10 14:35:00,
2013-05-10 15:36:00,54.5,47.0,29.63,South,191,6.0,-999.0,77,-99.99,,,0.06,259,weatherlink.com 1.10,2013-05-10 14:36:00,
2013-05-10 15:37:00,54.4,47.3,29.63,SW,225,3.0,6.0,77,0.00,,,0.01,263,MyOwnSoftware,2013-05-10 14:37:00,
2013-05-10 15:38:00,54.4,47.3,29.63,West,270,4.0,7.0,77,0.00,,,0.01,273,MyOwnSoftware,2013-05-10 14:38:00,
2013-05-10 15:39:00,54.4,47.3,29.63,West,270,2.0,10.0,77,0.00,,,0.01,273,MyOwnSoftware,2013-05-10 14:39:00,
2013-05-10 15:40:00,54.4,47.7,29.63,SSW,202,3.0,7.0,78,0.00,,,0.01,267,MyOwnSoftware,2013-05-10 14:40:00,
2013-05-10 15:41:00,54.2,47.8,29.63,West,270,2.0,3.0,79,0.00,,,0.01,259,MyOwnSoftware,2013-05-10 14:41:00,
2013-05-10 15:42:00,54.2,47.8,29.63,West,270,2.0,5.0,79,0.00,,,0.01,245,MyOwnSoftware,2013-05-10 14:42:00,
2013-05-10 15:43:00,54.2,47.8,29.63,WNW,292,2.0,4.0,79,0.00,,,0.01,241,MyOwnSoftware,2013-05-10 14:43:00,
2013-05-10 15:44:00,54.1,48.1,29.63,NW,315,3.0,10.0,80,0.00,,,0.01,243,MyOwnSoftware,2013-05-10 14:44:00,
2013-05-10 15:45:00,54.1,48.4,29.64,NNW,338,5.0,11.0,81,0.00,,,0.01,239,MyOwnSoftware,2013-05-10 14:45:00,
2013-05-10 15:46:00,54.4,47.3,29.63,SW,225,3.0,6.0,77,0.00,,,0.01,263,MyOwnSoftware,2013-05-10 14:46:00,
2013-05-10 15:47:00,54.1,48.7,29.64,WSW,248,3.0,7.0,82,0.00,,,0.01,244,MyOwnSoftware,2013-05-10 14:47:00,
2013-05-10 15:48:00,53.9,48.5,29.64,NW,315,3.0,11.0,82,0.00,,,0.01,245,MyOwnSoftware,2013-05-10 14:48:00,
2013-05-10 15:49:00,53.9,48.9,29.64,WSW,248,1.0,5.0,83,0.00,,,0.01,248,MyOwnSoftware,2013-05-10 14:49:00,
2013-05-10 15:50:00,53.9,48.9,29.64,SSW,202,6.0,11.0,83,0.00,,,0.01,253,MyOwnSoftware,2013-05-10 14:50:00,
2013-05-10 15:51:00,53.9,49.2,29.64,SW,225,2.0,6.0,84,0.00,,,0.01,259,MyOwnSoftware,2013-05-10 14:51:00,
2013-05-10 15:52:00,53.9,49.5,29.64,WSW,248,2.0,4.0,85,0.00,,,0.01,271,MyOwnSoftware,2013-05-10 14:52:00,
2013-05-10 15:53:00,53.8,49.4,29.64,NE,45,2.0,5.0,85,0.00,,,0.01,280,MyOwnSoftware,2013-05-10 14:53:00,
2013-05-10 15:54:00,53.8,49.4,29.64,SW,225,4.0,8.0,85,0.00,,,0.01,283,MyOwnSoftware,2013-05-10 14:54:00,
2013-05-10 15:55:00,53.8,49.7,29.64,WNW,292,2.0,4.0,86,0.00,,,0.01,287,MyOwnSoftware,2013-05-10 14:55:00,
2013-05-10 15:56:00,54.1,48.7,29.64,WSW,248,3.0,7.0,82,0.00,,,0.01,244,MyOwnSoftware,2013-05-10 14:56:00,
2013-05-10 15:57:00,53.8,49.7,29.64,WNW,292,2.0,5.0,86,0.00,,,0.01,289,MyOwnSoftware,2013-05-10 14:57:00,
2013-05-10 15:58:00,53.8,49.7,29.64,SSW,202,3.0,10.0,86,0.00,,,0.01,280,MyOwnSoftware,2013-05-10 14:58:00,
2013-05-10 15:59:00,53.8,50.0,29.64,South,180,3.0,8.0,87,0.00,,,0.02,271,MyOwnSoftware,2013-05-10 14:59:00,
2013-05-10 16:00:00,53.6,49.8,29.64,SSW,202,3.0,6.0,87,0.00,,,0.02,262,MyOwnSoftware,2013-05-10 15:00:00,
2013-05-10 16:01:00,53.6,50.1,29.64,SW,225,2.0,4.0,88,0.00,,,0.02,262,MyOwnSoftware,2013-05-10 15:01:00,
2013-05-10 16:02:00,53.6,50.1,29.64,WNW,292,1.0,3.0,88,0.00,,,0.02,264,MyOwnSoftware,2013-05-10 15:02:00,
2013-05-10 16:03:00,53.8,50.6,29.64,SW,225,3.0,5.0,89,0.00,,,0.02,259,MyOwnSoftware,2013-05-10 15:03:00,
2013-05-10 16:04:00,53.8,50.6,29.64,SW,225,3.0,5.0,89,0.00,,,0.02,262,MyOwnSoftware,2013-05-10 15:04:00,
2013-05-10 16:05:00,53.8,50.6,29.64,SW,225,4.0,6.0,89,0.00,,,0.02,266,MyOwnSoftware,2013-05-10 15:05:00,
2013-05-10 16:06:00,53.8,51.0,29.64,SSW,212,2.0,-999.0,90,-99.99,,,0.07,313,weatherlink.com 1.10,2013-05-10 15:06:00,
2013-05-10 16:07:00,53.8,50.9,29.64,SSW,202,3.0,6.0,90,0.00,,,0.04,337,MyOwnSoftware,2013-05-10 15:07:00,
2013-05-10 16:08:00,53.8,50.9,29.64,SSW,202,4.0,8.0,90,0.00,,,0.04,361,MyOwnSoftware,2013-05-10 15:08:00,
2013-05-10 16:09:00,53.6,50.7,29.64,WSW,248,1.0,3.0,90,0.00,,,0.04,320,MyOwnSoftware,2013-05-10 15:09:00,
2013-05-10 16:10:00,53.6,50.7,29.64,SSW,202,2.0,6.0,90,0.00,,,0.04,343,MyOwnSoftware,2013-05-10 15:10:00,
2013-05-10 16:11:00,53.6,50.7,29.64,WSW,248,1.0,3.0,90,0.00,,,0.04,311,MyOwnSoftware,2013-05-10 15:11:00,
2013-05-10 16:12:00,53.6,50.7,29.64,ESE,112,3.0,7.0,90,0.00,,,0.04,315,MyOwnSoftware,2013-05-10 15:12:00,
2013-05-10 16:13:00,53.6,51.0,29.64,SSE,158,0.0,2.0,91,0.00,,,0.04,297,MyOwnSoftware,2013-05-10 15:13:00,
2013-05-10 16:14:00,53.6,51.0,29.64,SSW,202,1.0,2.0,91,0.00,,,0.04,287,MyOwnSoftware,2013-05-10 15:14:00,
2013-05-10 16:15:00,53.6,51.0,29.64,SW,225,1.0,3.0,91,0.00,,,0.04,283,MyOwnSoftware,2013-05-10 15:15:00,
2013-05-10 16:16:00,53.8,50.9,29.64,SSW,202,3.0,6.0,90,0.00,,,0.02,337,MyOwnSoftware,2013-05-10 15:16:00,
2013-05-10 16:17:00,53.6,51.0,29.64,WSW,248,1.0,3.0,91,0.00,,,0.04,241,MyOwnSoftware,2013-05-10 15:17:00,
2013-05-10 16:18:00,53.8,51.2,29.64,WSW,248,0.0,1.0,91,0.00,,,0.04,218,MyOwnSoftware,2013-05-10 15:18:00,
2013-05-10 16:19:00,53.8,51.5,29.64,WSW,248,1.0,2.0,92,0.00,,,0.04,213,MyOwnSoftware,2013-05-10 15:19:00,
2013-05-10 16:20:00,53.8,51.5,29.64,NW,315,1.0,3.0,92,0.00,,,0.04,208,MyOwnSoftware,2013-05-10 15:20:00,
2013-05-10 16:21:00,53.9,51.6,29.64,NW,315,0.0,1.0,92,0.00,,,0.04,188,MyOwnSoftware,2013-05-10 15:21:00,
2013-05-10 16:22:00,53.9,51.6,29.64,SW,225,1.0,5.0,92,0.00,,,0.04,166,MyOwnSoftware,2013-05-10 15:22:00,
2013-05-10 16:23:00,53.9,51.3,29.64,SW,225,1.0,4.0,91,0.00,,,0.04,167,MyOwnSoftware,2013-05-10 15:23:00,
2013-05-10 16:24:00,53.9,51.3,29.64,SSW,202,1.0,6.0,91,0.00,,,0.04,179,MyOwnSoftware,2013-05-10 15:24:00,
2013-05-10 16:25:00,53.9,51.3,29.64,WSW,248,4.0,11.0,91,0.00,,,0.04,179,MyOwnSoftware,2013-05-10 15:25:00,
2013-05-10 16:26:00,53.9,51.0,29.64,WSW,248,2.0,7.0,90,0.00,,,0.04,164,MyOwnSoftware,2013-05-10 15:26:00,
2013-05-10 16:27:00,53.9,51.0,29.64,SE,135,1.0,3.0,90,0.00,,,0.04,145,MyOwnSoftware,2013-05-10 15:27:00,
2013-05-10 16:28:00,53.9,51.0,29.64,SSW,202,3.0,5.0,90,0.00,,,0.04,130,MyOwnSoftware,2013-05-10 15:28:00,
2013-05-10 16:29:00,53.9,51.0,29.64,SW,225,1.0,3.0,90,0.00,,,0.02,128,MyOwnSoftware,2013-05-10 15:29:00,
2013-05-10 16:30:00,53.9,51.0,29.63,West,270,1.0,5.0,90,0.00,,,0.02,128,MyOwnSoftware,2013-05-10 15:30:00,
2013-05-10 16:31:00,53.9,51.0,29.63,West,270,0.0,2.0,90,0.00,,,0.02,130,MyOwnSoftware,2013-05-10 15:31:00,
2013-05-10 16:32:00,53.9,50.7,29.63,SW,225,1.0,5.0,89,0.00,,,0.02,132,MyOwnSoftware,2013-05-10 15:32:00,
2013-05-10 16:33:00,53.9,50.7,29.63,West,270,2.0,3.0,89,0.00,,,0.02,132,MyOwnSoftware,2013-05-10 15:33:00,
2013-05-10 16:34:00,53.9,50.7,29.63,SSW,202,1.0,3.0,89,0.00,,,0.02,139,MyOwnSoftware,2013-05-10 15:34:00,
2013-05-10 16:35:00,53.9,50.7,29.63,SSW,202,1.0,3.0,89,0.00,,,0.02,139,MyOwnSoftware,2013-05-10 15:35:00,
2013-05-10 16:36:00,53.9,51.0,29.63,SW,219,0.0,-999.0,89,-99.99,,,0.07,120,weatherlink.com 1.10,2013-05-10 15:36:00,
2013-05-10 16:37:00,53.9,50.7,29.63,SW,225,0.0,3.0,89,0.00,,,0.02,110,MyOwnSoftware,2013-05-10 15:37:00,
2013-05-10 16:38:00,53.9,50.4,29.63,NW,315,2.0,4.0,88,0.00,,,0.02,79,MyOwnSoftware,2013-05-10 15:38:00,
2013-05-10 16:39:00,53.9,50.1,29.63,WSW,248,3.0,6.0,87,0.00,,,0.02,69,MyOwnSoftware,2013-05-10 15:39:00,
2013-05-10 16:40:00,53.9,50.1,29.63,WSW,248,1.0,5.0,87,0.00,,,0.02,70,MyOwnSoftware,2013-05-10 15:40:00,
2013-05-10 16:41:00,53.9,50.1,29.63,ESE,112,2.0,3.0,87,0.00,,,0.02,76,MyOwnSoftware,2013-05-10 15:41:00,
2013-05-10 16:42:00,53.9,49.8,29.63,WNW,292,2.0,6.0,86,0.00,,,0.02,70,MyOwnSoftware,2013-05-10 15:42:00,
2013-05-10 16:43:00,53.9,49.8,29.63,WNW,292,0.0,1.0,86,0.00,,,0.02,67,MyOwnSoftware,2013-05-10 15:43:00,
2013-05-10 16:44:00,53.9,49.8,29.63,NW,315,1.0,2.0,86,0.00,,,0.02,67,MyOwnSoftware,2013-05-10 15:44:00,
2013-05-10 16:45:00,53.8,49.7,29.63,SW,225,0.0,2.0,86,0.00,,,0.02,62,MyOwnSoftware,2013-05-10 15:45:00,
2013-05-10 16:46:00,53.9,50.7,29.63,SW,225,0.0,3.0,89,0.00,,,0.02,110,MyOwnSoftware,2013-05-10 15:46:00,
2013-05-10 16:47:00,53.8,49.7,29.63,SE,135,4.0,10.0,86,0.00,,,0.01,68,MyOwnSoftware,2013-05-10 15:47:00,
2013-05-10 16:48:00,53.8,49.4,29.63,NW,315,2.0,6.0,85,0.00,,,0.01,81,MyOwnSoftware,2013-05-10 15:48:00,
2013-05-10 16:49:00,53.8,49.4,29.63,West,270,0.0,2.0,85,0.00,,,0.01,95,MyOwnSoftware,2013-05-10 15:49:00,
2013-05-10 16:50:00,53.8,49.7,29.63,West,270,0.0,1.0,86,0.00,,,0.01,113,MyOwnSoftware,2013-05-10 15:50:00,
2013-05-10 16:51:00,53.8,49.7,29.63,SSW,202,0.0,2.0,86,0.00,,,0.01,127,MyOwnSoftware,2013-05-10 15:51:00,
2013-05-10 16:52:00,53.8,49.7,29.63,SSW,202,0.0,1.0,86,0.00,,,0.01,126,MyOwnSoftware,2013-05-10 15:52:00,
2013-05-10 16:53:00,53.8,50.0,29.63,WSW,248,1.0,5.0,87,0.00,,,0.01,107,MyOwnSoftware,2013-05-10 15:53:00,
2013-05-10 16:54:00,53.9,49.8,29.63,WSW,248,0.0,1.0,86,0.00,,,0.01,104,MyOwnSoftware,2013-05-10 15:54:00,
2013-05-10 16:55:00,53.9,49.8,29.63,WSW,248,2.0,4.0,86,0.00,,,0.01,104,MyOwnSoftware,2013-05-10 15:55:00,
2013-05-10 16:56:00,53.8,49.7,29.63,SE,135,4.0,10.0,86,0.00,,,0.02,68,MyOwnSoftware,2013-05-10 15:56:00,
2013-05-10 16:57:00,53.9,49.8,29.63,North,0,1.0,3.0,86,0.00,,,0.01,129,MyOwnSoftware,2013-05-10 15:57:00,
2013-05-10 16:58:00,53.9,49.8,29.63,SW,225,1.0,2.0,86,0.00,,,0.01,137,MyOwnSoftware,2013-05-10 15:58:00,
2013-05-10 16:59:00,53.9,49.5,29.63,NW,315,1.0,3.0,85,0.00,,,0.01,125,MyOwnSoftware,2013-05-10 15:59:00,
2013-05-10 17:00:00,53.9,49.5,29.63,NNW,338,2.0,5.0,85,0.00,,,0.01,109,MyOwnSoftware,2013-05-10 16:00:00,
2013-05-10 17:01:00,53.9,49.5,29.63,West,270,0.0,2.0,85,0.00,,,0.01,86,MyOwnSoftware,2013-05-10 16:01:00,
2013-05-10 17:02:00,54.1,49.7,29.63,West,270,1.0,2.0,85,0.00,,,0.01,68,MyOwnSoftware,2013-05-10 16:02:00,
2013-05-10 17:03:00,54.1,49.7,29.63,West,270,0.0,1.0,85,0.00,,,0.01,63,MyOwnSoftware,2013-05-10 16:03:00,
2013-05-10 17:04:00,54.1,49.7,29.63,SW,225,0.0,1.0,85,0.00,,,0.01,63,MyOwnSoftware,2013-05-10 16:04:00,
2013-05-10 17:05:00,54.1,49.7,29.63,NNE,22,3.0,5.0,85,0.00,,,0.01,62,MyOwnSoftware,2013-05-10 16:05:00,
2013-05-10 17:06:00,54.1,50.0,29.63,SSE,164,6.0,-999.0,85,-99.99,,,0.07,51,weatherlink.com 1.10,2013-05-10 16:06:00,
2013-05-10 17:07:00,54.1,49.7,29.63,SSE,158,2.0,6.0,85,0.00,,,0.00,51,MyOwnSoftware,2013-05-10 16:07:00,
2013-05-10 17:08:00,54.1,49.7,29.63,WSW,248,1.0,2.0,85,0.00,,,0.00,58,MyOwnSoftware,2013-05-10 16:08:00,
2013-05-10 17:09:00,54.1,49.4,29.63,West,270,4.0,12.0,84,0.00,,,0.00,69,MyOwnSoftware,2013-05-10 16:09:00,
2013-05-10 17:10:00,54.1,49.4,29.63,North,0,4.0,6.0,84,0.00,,,0.00,76,MyOwnSoftware,2013-05-10 16:10:00,
2013-05-10 17:11:00,54.1,49.4,29.63,WSW,248,2.0,5.0,84,0.00,,,0.00,86,MyOwnSoftware,2013-05-10 16:11:00,
2013-05-10 17:12:00,54.1,49.4,29.63,South,180,2.0,6.0,84,0.00,,,0.00,89,MyOwnSoftware,2013-05-10 16:12:00,
2013-05-10 17:13:00,54.1,49.4,29.63,SW,225,5.0,6.0,84,0.00,,,0.00,93,MyOwnSoftware,2013-05-10 16:13:00,
2013-05-10 17:14:00,54.1,49.4,29.63,SW,225,3.0,5.0,84,0.00,,,0.00,100,MyOwnSoftware,2013-05-10 16:14:00,
2013-05-10 17:15:00,54.1,49.4,29.63,West,270,1.0,3.0,84,0.00,,,0.00,104,MyOwnSoftware,2013-05-10 16:15:00,
2013-05-10 17:16:00,54.1,49.7,29.63,SSE,158,2.0,6.0,85,0.00,,,0.01,51,MyOwnSoftware,2013-05-10 16:16:00,
2013-05-10 17:17:00,54.1,49.7,29.63,SW,225,1.0,3.0,85,0.00,,,0.00,101,MyOwnSoftware,2013-05-10 16:17:00,
2013-05-10 17:18:00,54.1,49.7,29.63,South,180,3.0,5.0,85,0.00,,,0.00,106,MyOwnSoftware,2013-05-10 16:18:00,
2013-05-10 17:19:00,54.1,50.0,29.63,SSW,202,1.0,3.0,86,0.00,,,0.00,106,MyOwnSoftware,2013-05-10 16:19:00,
2013-05-10 17:20:00,54.1,49.7,29.63,SW,225,1.0,3.0,85,0.00,,,0.00,100,MyOwnSoftware,2013-05-10 16:20:00,
2013-05-10 17:21:00,54.1,50.0,29.63,SSW,202,3.0,8.0,86,0.00,,,0.00,93,MyOwnSoftware,2013-05-10 16:21:00,
2013-05-10 17:22:00,54.1,50.0,29.63,SW,225,2.0,3.0,86,0.00,,,0.00,88,MyOwnSoftware,2013-05-10 16:22:00,
2013-05-10 17:23:00,54.1,50.0,29.63,SSW,202,2.0,6.0,86,0.00,,,0.00,93,MyOwnSoftware,2013-05-10 16:23:00,
2013-05-10 17:24:00,54.1,50.0,29.63,WSW,248,0.0,1.0,86,0.00,,,0.00,102,MyOwnSoftware,2013-05-10 16:24:00,
2013-05-10 17:25:00,54.1,50.0,29.63,NNW,338,1.0,3.0,86,0.00,,,0.00,111,MyOwnSoftware,2013-05-10 16:25:00,
2013-05-10 17:26:00,54.1,50.3,29.63,SE,135,2.0,5.0,87,0.00,,,0.00,121,MyOwnSoftware,2013-05-10 16:26:00,
2013-05-10 17:27:00,54.1,50.6,29.63,WSW,248,0.0,3.0,88,0.00,,,0.00,136,MyOwnSoftware,2013-05-10 16:27:00,
2013-05-10 17:28:00,54.1,50.9,29.63,WNW,292,1.0,3.0,89,0.00,,,0.00,157,MyOwnSoftware,2013-05-10 16:28:00,
2013-05-10 17:29:00,54.1,50.6,29.63,West,270,2.0,5.0,88,0.00,,,0.00,181,MyOwnSoftware,2013-05-10 16:29:00,
2013-05-10 17:30:00,54.1,50.6,29.62,NW,315,1.0,6.0,88,0.00,,,0.00,208,MyOwnSoftware,2013-05-10 16:30:00,
2013-05-10 17:31:00,54.1,50.6,29.62,WNW,292,3.0,6.0,88,0.00,,,0.00,225,MyOwnSoftware,2013-05-10 16:31:00,
2013-05-10 17:32:00,54.1,50.6,29.62,South,180,1.0,4.0,88,0.00,,,0.00,218,MyOwnSoftware,2013-05-10 16:32:00,
2013-05-10 17:33:00,54.1,50.6,29.62,SSW,202,1.0,4.0,88,0.00,,,0.00,187,MyOwnSoftware,2013-05-10 16:33:00,
2013-05-10 17:34:00,54.1,50.6,29.62,SW,225,3.0,4.0,88,0.00,,,0.00,179,MyOwnSoftware,2013-05-10 16:34:00,
2013-05-10 17:35:00,54.2,50.7,29.62,South,180,3.0,6.0,88,0.00,,,0.00,187,MyOwnSoftware,2013-05-10 16:35:00,
2013-05-10 17:36:00,54.2,51.0,29.62,WSW,253,2.0,-999.0,88,-99.99,,,0.07,178,weatherlink.com 1.10,2013-05-10 16:36:00,
2013-05-10 17:37:00,54.2,50.7,29.62,SE,135,2.0,4.0,88,0.00,,,0.00,182,MyOwnSoftware,2013-05-10 16:37:00,
2013-05-10 17:38:00,54.2,50.7,29.62,West,270,1.0,3.0,88,0.00,,,0.00,183,MyOwnSoftware,2013-05-10 16:38:00,
2013-05-10 17:39:00,54.2,50.4,29.62,South,180,3.0,6.0,87,0.00,,,0.00,195,MyOwnSoftware,2013-05-10 16:39:00,
2013-05-10 17:40:00,54.4,50.6,29.62,SSW,202,2.0,4.0,87,0.00,,,0.00,192,MyOwnSoftware,2013-05-10 16:40:00,
2013-05-10 17:41:00,54.4,50.6,29.62,WNW,292,1.0,4.0,87,0.00,,,0.00,192,MyOwnSoftware,2013-05-10 16:41:00,
2013-05-10 17:42:00,54.4,50.6,29.62,WSW,248,2.0,5.0,87,0.00,,,0.00,168,MyOwnSoftware,2013-05-10 16:42:00,
2013-05-10 17:43:00,54.5,50.7,29.62,West,270,2.0,7.0,87,0.00,,,0.00,157,MyOwnSoftware,2013-05-10 16:43:00,
2013-05-10 17:44:00,54.5,50.7,29.62,WSW,248,3.0,8.0,87,0.00,,,0.00,144,MyOwnSoftware,2013-05-10 16:44:00,
2013-05-10 17:45:00,54.5,50.7,29.62,SW,225,4.0,6.0,87,0.00,,,0.00,144,MyOwnSoftware,2013-05-10 16:45:00,
2013-05-10 17:46:00,54.2,50.7,29.62,SE,135,2.0,4.0,88,0.00,,,0.00,182,MyOwnSoftware,2013-05-10 16:46:00,
2013-05-10 17:47:00,54.7,50.6,29.62,West,270,1.0,4.0,86,0.00,,,0.00,117,MyOwnSoftware,2013-05-10 16:47:00,
2013-05-10 17:48:00,54.8,50.7,29.62,WNW,292,1.0,3.0,86,0.00,,,0.00,100,MyOwnSoftware,2013-05-10 16:48:00,
2013-05-10 17:49:00,54.8,50.7,29.62,NW,315,0.0,1.0,86,0.00,,,0.00,90,MyOwnSoftware,2013-05-10 16:49:00,
2013-05-10 17:50:00,55.0,50.9,29.62,NNW,338,1.0,3.0,86,0.00,,,0.00,95,MyOwnSoftware,2013-05-10 16:50:00,
2013-05-10 17:51:00,55.0,51.0,29.62,West,280,2.0,-999.0,85,-99.99,,,0.07,132,weatherlink.com 1.10,2013-05-10 16:51:00,
2013-05-10 17:52:00,55.0,50.6,29.62,SSW,202,2.0,4.0,85,0.00,,,0.00,138,MyOwnSoftware,2013-05-10 16:52:00,
2013-05-10 17:53:00,55.1,50.7,29.62,East,90,2.0,5.0,85,0.00,,,0.00,153,MyOwnSoftware,2013-05-10 16:53:00,
2013-05-10 17:54:00,55.1,50.7,29.62,WSW,248,2.0,4.0,85,0.00,,,0.00,141,MyOwnSoftware,2013-05-10 16:54:00,
2013-05-10 17:55:00,55.1,50.4,29.62,WSW,248,3.0,7.0,84,0.00,,,0.00,114,MyOwnSoftware,2013-05-10 16:55:00,
2013-05-10 17:56:00,55.3,50.5,29.62,ENE,68,2.0,5.0,84,0.00,,,0.00,109,MyOwnSoftware,2013-05-10 16:56:00,
2013-05-10 17:57:00,55.3,50.2,29.62,WNW,292,1.0,2.0,83,0.00,,,0.00,117,MyOwnSoftware,2013-05-10 16:57:00,
2013-05-10 17:58:00,55.3,50.2,29.62,West,270,1.0,6.0,83,0.00,,,0.00,128,MyOwnSoftware,2013-05-10 16:58:00,
2013-05-10 17:59:00,55.3,50.2,29.62,West,270,2.0,3.0,83,0.00,,,0.00,125,MyOwnSoftware,2013-05-10 16:59:00,
2013-05-10 18:00:00,55.3,50.2,29.62,West,270,2.0,8.0,83,0.00,,,0.00,113,MyOwnSoftware,2013-05-10 17:00:00,
2013-05-10 18:01:00,55.4,50.0,29.62,SSW,202,3.0,9.0,82,0.00,,,0.00,114,MyOwnSoftware,2013-05-10 17:01:00,
2013-05-10 18:02:00,55.4,50.0,29.62,South,180,3.0,6.0,82,0.00,,,0.00,106,MyOwnSoftware,2013-05-10 17:02:00,
2013-05-10 18:03:00,55.4,50.0,29.62,WNW,292,3.0,7.0,82,0.00,,,0.00,79,MyOwnSoftware,2013-05-10 17:03:00,
2013-05-10 18:04:00,55.4,49.7,29.62,WSW,248,3.0,4.0,81,0.00,,,0.00,67,MyOwnSoftware,2013-05-10 17:04:00,
2013-05-10 18:05:00,55.4,49.7,29.62,NW,315,3.0,7.0,81,0.00,,,0.00,58,MyOwnSoftware,2013-05-10 17:05:00,
2013-05-10 18:06:00,55.4,49.3,29.62,North,0,3.0,6.0,80,0.00,,,0.00,51,MyOwnSoftware,2013-05-10 17:06:00,
2013-05-10 18:07:00,55.4,49.0,29.62,WSW,244,3.0,-999.0,80,-99.99,,,0.07,48,weatherlink.com 1.10,2013-05-10 17:07:00,
2013-05-10 18:08:00,55.4,49.3,29.62,West,270,2.0,6.0,80,0.00,,,0.00,42,MyOwnSoftware,2013-05-10 17:08:00,
2013-05-10 18:09:00,55.4,49.3,29.62,SW,225,0.0,2.0,80,0.00,,,0.00,40,MyOwnSoftware,2013-05-10 17:09:00,
2013-05-10 18:10:00,55.4,49.3,29.62,NNE,22,2.0,2.0,80,0.00,,,0.00,42,MyOwnSoftware,2013-05-10 17:10:00,
2013-05-10 18:11:00,55.4,49.3,29.62,North,0,0.0,0.0,80,0.00,,,0.00,40,MyOwnSoftware,2013-05-10 17:11:00,
2013-05-10 18:12:00,55.4,49.3,29.62,NNW,338,1.0,3.0,80,0.00,,,0.00,33,MyOwnSoftware,2013-05-10 17:12:00,
2013-05-10 18:13:00,55.4,49.7,29.62,NNW,338,2.0,3.0,81,0.00,,,0.00,28,MyOwnSoftware,2013-05-10 17:13:00,
2013-05-10 18:14:00,55.4,49.3,29.62,SSE,158,2.0,5.0,80,0.00,,,0.00,28,MyOwnSoftware,2013-05-10 17:14:00,
2013-05-10 18:15:00,55.4,49.7,29.62,South,180,3.0,6.0,81,0.00,,,0.00,28,MyOwnSoftware,2013-05-10 17:15:00,
2013-05-10 18:16:00,55.4,49.3,29.62,WSW,248,1.0,3.0,80,0.00,,,0.00,46,MyOwnSoftware,2013-05-10 17:16:00,
2013-05-10 18:17:00,55.3,49.6,29.62,WSW,248,3.0,6.0,81,0.00,,,0.00,31,MyOwnSoftware,2013-05-10 17:17:00,
2013-05-10 18:18:00,55.3,49.9,29.62,SW,225,4.0,7.0,82,0.00,,,0.00,32,MyOwnSoftware,2013-05-10 17:18:00,
2013-05-10 18:19:00,55.3,49.9,29.62,North,0,5.0,7.0,82,0.00,,,0.00,32,MyOwnSoftware,2013-05-10 17:19:00,
2013-05-10 18:20:00,55.1,49.7,29.62,North,0,5.0,7.0,82,0.00,,,0.00,32,MyOwnSoftware,2013-05-10 17:20:00,
2013-05-10 18:21:00,55.1,50.4,29.62,WNW,292,4.0,7.0,84,0.00,,,0.00,32,MyOwnSoftware,2013-05-10 17:21:00,
2013-05-10 18:22:00,55.0,50.0,29.62,West,261,6.0,-999.0,84,-99.99,,,0.07,46,weatherlink.com 1.10,2013-05-10 17:22:00,
2013-05-10 18:23:00,55.0,50.6,29.62,North,0,4.0,7.0,85,0.00,,,0.00,46,MyOwnSoftware,2013-05-10 17:23:00,
2013-05-10 18:24:00,54.8,50.7,29.62,WSW,248,3.0,7.0,86,0.00,,,0.00,46,MyOwnSoftware,2013-05-10 17:24:00,
2013-05-10 18:25:00,54.7,50.9,29.62,SW,225,3.0,7.0,87,0.00,,,0.00,46,MyOwnSoftware,2013-05-10 17:25:00,
2013-05-10 18:26:00,54.7,51.2,29.62,WNW,292,1.0,2.0,88,0.00,,,0.00,39,MyOwnSoftware,2013-05-10 17:26:00,
2013-05-10 18:27:00,54.5,51.3,29.62,NE,45,3.0,6.0,89,0.00,,,0.00,39,MyOwnSoftware,2013-05-10 17:27:00,
2013-05-10 18:28:00,54.4,51.2,29.62,WSW,248,2.0,4.0,89,0.00,,,0.00,39,MyOwnSoftware,2013-05-10 17:28:00,
2013-05-10 18:29:00,54.4,51.5,29.62,SSW,202,3.0,5.0,90,0.00,,,0.00,39,MyOwnSoftware,2013-05-10 17:29:00,
2013-05-10 18:30:00,54.4,51.5,29.63,SW,225,1.0,3.0,90,0.00,,,0.00,60,MyOwnSoftware,2013-05-10 17:30:00,
2013-05-10 18:31:00,54.2,51.3,29.63,SE,135,0.0,1.0,90,0.00,,,0.00,55,MyOwnSoftware,2013-05-10 17:31:00,
2013-05-10 18:32:00,54.2,51.6,29.63,SSW,202,0.0,1.0,91,0.00,,,0.00,50,MyOwnSoftware,2013-05-10 17:32:00,
2013-05-10 18:33:00,54.1,51.5,29.63,North,0,0.0,0.0,91,0.00,,,0.00,51,MyOwnSoftware,2013-05-10 17:33:00,
2013-05-10 18:34:00,54.1,51.5,29.63,SW,225,0.0,1.0,91,0.00,,,0.00,56,MyOwnSoftware,2013-05-10 17:34:00,
2013-05-10 18:35:00,54.1,51.5,29.63,SW,225,2.0,5.0,91,0.00,,,0.00,62,MyOwnSoftware,2013-05-10 17:35:00,
2013-05-10 18:36:00,54.1,51.5,29.63,WSW,248,3.0,6.0,91,0.00,,,0.01,63,MyOwnSoftware,2013-05-10 17:36:00,
2013-05-10 18:37:00,53.9,51.0,29.63,SSW,193,10.0,-999.0,91,-99.99,,,0.08,58,weatherlink.com 1.10,2013-05-10 17:37:00,
2013-05-10 18:38:00,53.9,51.3,29.63,WSW,248,6.0,12.0,91,0.00,,,0.01,58,MyOwnSoftware,2013-05-10 17:38:00,
2013-05-10 18:39:00,53.9,51.3,29.63,SSW,202,3.0,7.0,91,0.00,,,0.01,58,MyOwnSoftware,2013-05-10 17:39:00,
2013-05-10 18:40:00,53.8,51.2,29.63,SSW,202,3.0,5.0,91,0.00,,,0.01,60,MyOwnSoftware,2013-05-10 17:40:00,
2013-05-10 18:41:00,53.8,51.2,29.63,SW,225,4.0,7.0,91,0.00,,,0.01,60,MyOwnSoftware,2013-05-10 17:41:00,
2013-05-10 18:42:00,53.8,51.5,29.63,SSW,202,4.0,8.0,92,0.00,,,0.01,44,MyOwnSoftware,2013-05-10 17:42:00,
2013-05-10 18:43:00,53.8,51.5,29.63,WNW,292,2.0,6.0,92,0.00,,,0.01,14,MyOwnSoftware,2013-05-10 17:43:00,
2013-05-10 18:44:00,53.6,51.3,29.63,North,0,3.0,7.0,92,0.00,,,0.01,12,MyOwnSoftware,2013-05-10 17:44:00,
2013-05-10 18:45:00,53.6,51.3,29.64,SW,225,5.0,11.0,92,0.00,,,0.01,12,MyOwnSoftware,2013-05-10 17:45:00,
2013-05-10 18:46:00,53.9,51.3,29.63,SW,225,3.0,6.0,91,0.00,,,0.01,60,MyOwnSoftware,2013-05-10 17:46:00,
2013-05-10 18:47:00,53.3,51.0,29.64,WNW,292,6.0,12.0,92,0.00,,,0.01,28,MyOwnSoftware,2013-05-10 17:47:00,
2013-05-10 18:48:00,53.2,50.9,29.64,SSW,202,6.0,14.0,92,0.00,,,0.01,37,MyOwnSoftware,2013-05-10 17:48:00,
2013-05-10 18:49:00,52.9,50.3,29.64,SW,225,7.0,11.0,91,0.00,,,0.01,39,MyOwnSoftware,2013-05-10 17:49:00,
2013-05-10 18:50:00,52.6,50.0,29.64,SW,225,7.0,11.0,91,0.04,,,0.02,42,MyOwnSoftware,2013-05-10 17:50:00,
2013-05-10 18:51:00,52.3,49.8,29.64,SSW,202,9.0,19.0,91,0.04,,,0.02,44,MyOwnSoftware,2013-05-10 17:51:00,
2013-05-10 18:52:00,52.0,50.0,29.64,WSW,253,2.0,-999.0,92,-99.99,,,0.09,42,weatherlink.com 1.10,2013-05-10 17:52:00,
2013-05-10 18:53:00,51.9,49.6,29.64,NW,315,4.0,7.0,92,0.04,,,0.02,40,MyOwnSoftware,2013-05-10 17:53:00,
2013-05-10 18:54:00,51.6,49.4,29.64,SSW,202,7.0,12.0,92,0.04,,,0.02,40,MyOwnSoftware,2013-05-10 17:54:00,
2013-05-10 18:55:00,51.4,49.2,29.64,SW,225,5.0,12.0,92,0.04,,,0.02,40,MyOwnSoftware,2013-05-10 17:55:00,
2013-05-10 18:56:00,51.1,49.1,29.64,SSW,202,6.0,11.0,93,0.04,,,0.02,40,MyOwnSoftware,2013-05-10 17:56:00,
2013-05-10 18:57:00,51.0,49.0,29.64,SW,225,5.0,11.0,93,0.04,,,0.02,39,MyOwnSoftware,2013-05-10 17:57:00,
2013-05-10 18:58:00,50.8,48.8,29.64,SSW,202,5.0,10.0,93,0.04,,,0.02,37,MyOwnSoftware,2013-05-10 17:58:00,
2013-05-10 18:59:00,50.7,49.0,29.64,SW,225,5.0,7.0,94,0.04,,,0.02,37,MyOwnSoftware,2013-05-10 17:59:00,
2013-05-10 19:00:00,50.7,49.0,29.65,West,270,4.0,10.0,94,0.04,,,0.02,37,MyOwnSoftware,2013-05-10 18:00:00,
2013-05-10 19:01:00,50.5,48.8,29.65,SW,225,4.0,8.0,94,0.04,,,0.02,37,MyOwnSoftware,2013-05-10 18:01:00,
2013-05-10 19:02:00,50.4,49.0,29.65,NNE,22,4.0,7.0,95,0.04,,,0.02,44,MyOwnSoftware,2013-05-10 18:02:00,
2013-05-10 19:03:00,50.4,49.0,29.65,SSW,202,6.0,11.0,95,0.04,,,0.02,44,MyOwnSoftware,2013-05-10 18:03:00,
2013-05-10 19:04:00,50.2,48.8,29.65,SW,225,8.0,16.0,95,0.04,,,0.02,44,MyOwnSoftware,2013-05-10 18:04:00,
2013-05-10 19:05:00,50.1,48.7,29.65,SSW,202,6.0,10.0,95,0.04,,,0.02,44,MyOwnSoftware,2013-05-10 18:05:00,
2013-05-10 19:06:00,50.1,48.7,29.65,South,180,8.0,20.0,95,0.04,,,0.02,35,MyOwnSoftware,2013-05-10 18:06:00,
2013-05-10 19:07:00,49.8,49.0,29.65,SSW,212,5.0,-999.0,95,-99.99,,,0.09,35,weatherlink.com 1.10,2013-05-10 18:07:00,
2013-05-10 19:08:00,49.8,48.1,29.65,WSW,248,4.0,9.0,94,0.00,,,0.04,35,MyOwnSoftware,2013-05-10 18:08:00,
2013-05-10 19:09:00,49.8,48.1,29.65,SW,225,7.0,12.0,94,0.00,,,0.04,35,MyOwnSoftware,2013-05-10 18:09:00,
2013-05-10 19:10:00,49.6,47.9,29.65,SSW,202,7.0,13.0,94,0.00,,,0.04,42,MyOwnSoftware,2013-05-10 18:10:00,
2013-05-10 19:11:00,49.6,47.9,29.65,SSW,202,4.0,11.0,94,0.00,,,0.04,42,MyOwnSoftware,2013-05-10 18:11:00,
2013-05-10 19:12:00,49.5,47.8,29.65,West,270,7.0,16.0,94,0.00,,,0.04,42,MyOwnSoftware,2013-05-10 18:12:00,
2013-05-10 19:13:00,49.5,47.8,29.65,SSW,202,7.0,13.0,94,0.00,,,0.04,42,MyOwnSoftware,2013-05-10 18:13:00,
2013-05-10 19:14:00,49.4,47.7,29.65,SW,225,5.0,14.0,94,0.00,,,0.04,51,MyOwnSoftware,2013-05-10 18:14:00,
2013-05-10 19:15:00,49.4,47.7,29.66,SSW,202,7.0,11.0,94,0.00,,,0.04,51,MyOwnSoftware,2013-05-10 18:15:00,
2013-05-10 19:16:00,49.9,48.5,29.65,North,0,7.0,10.0,95,0.00,,,0.02,35,MyOwnSoftware,2013-05-10 18:16:00,
2013-05-10 19:17:00,49.4,47.7,29.66,West,270,5.0,7.0,94,0.00,,,0.04,51,MyOwnSoftware,2013-05-10 18:17:00,
2013-05-10 19:18:00,49.2,47.5,29.66,SW,225,3.0,6.0,94,0.00,,,0.04,56,MyOwnSoftware,2013-05-10 18:18:00,
2013-05-10 19:19:00,49.2,47.8,29.66,West,270,2.0,4.0,95,0.00,,,0.04,55,MyOwnSoftware,2013-05-10 18:19:00,
2013-05-10 19:20:00,49.2,47.8,29.66,North,0,2.0,5.0,95,0.00,,,0.04,53,MyOwnSoftware,2013-05-10 18:20:00,
2013-05-10 19:21:00,49.2,47.8,29.66,NW,315,2.0,5.0,95,0.00,,,0.04,55,MyOwnSoftware,2013-05-10 18:21:00,
2013-05-10 19:22:00,49.2,48.0,29.66,WSW,256,6.0,-999.0,95,-99.99,,,0.09,58,weatherlink.com 1.10,2013-05-10 18:22:00,
2013-05-10 19:23:00,49.2,47.8,29.66,SW,225,4.0,8.0,95,0.00,,,0.04,62,MyOwnSoftware,2013-05-10 18:23:00,
2013-05-10 19:24:00,49.2,47.8,29.66,SSW,202,4.0,8.0,95,0.00,,,0.04,65,MyOwnSoftware,2013-05-10 18:24:00,
2013-05-10 19:25:00,49.1,47.4,29.66,SW,225,4.0,8.0,94,0.00,,,0.04,67,MyOwnSoftware,2013-05-10 18:25:00,
2013-05-10 19:26:00,49.1,47.7,29.66,SW,225,4.0,8.0,95,0.00,,,0.05,69,MyOwnSoftware,2013-05-10 18:26:00,
2013-05-10 19:27:00,49.1,47.7,29.66,SW,225,2.0,5.0,95,0.00,,,0.05,68,MyOwnSoftware,2013-05-10 18:27:00,
2013-05-10 19:28:00,49.1,47.7,29.66,North,0,3.0,6.0,95,0.00,,,0.03,65,MyOwnSoftware,2013-05-10 18:28:00,
2013-05-10 19:29:00,49.1,47.7,29.66,WNW,292,1.0,5.0,95,0.00,,,0.03,65,MyOwnSoftware,2013-05-10 18:29:00,
2013-05-10 19:30:00,49.2,47.8,29.66,WSW,248,2.0,5.0,95,0.00,,,0.03,63,MyOwnSoftware,2013-05-10 18:30:00,
2013-05-10 19:31:00,49.1,47.7,29.66,North,0,3.0,7.0,95,0.00,,,0.03,62,MyOwnSoftware,2013-05-10 18:31:00,
2013-05-10 19:32:00,49.1,47.7,29.66,SSW,202,3.0,10.0,95,0.00,,,0.03,61,MyOwnSoftware,2013-05-10 18:32:00,
2013-05-10 19:33:00,49.1,47.7,29.66,WSW,248,3.0,7.0,95,0.00,,,0.03,58,MyOwnSoftware,2013-05-10 18:33:00,
2013-05-10 19:34:00,49.1,47.4,29.66,SSW,202,3.0,5.0,94,0.00,,,0.03,56,MyOwnSoftware,2013-05-10 18:34:00,
2013-05-10 19:35:00,49.1,47.7,29.66,SW,225,2.0,3.0,95,0.00,,,0.03,56,MyOwnSoftware,2013-05-10 18:35:00,
2013-05-10 19:36:00,49.1,47.4,29.66,West,270,3.0,7.0,94,0.00,,,0.03,55,MyOwnSoftware,2013-05-10 18:36:00,
2013-05-10 19:37:00,49.1,48.0,29.66,WNW,296,1.0,-999.0,94,-99.99,,,0.10,53,weatherlink.com 1.10,2013-05-10 18:37:00,
2013-05-10 19:38:00,49.1,47.4,29.66,WNW,292,2.0,8.0,94,0.00,,,0.03,51,MyOwnSoftware,2013-05-10 18:38:00,
2013-05-10 19:39:00,49.1,47.4,29.66,SSW,202,4.0,7.0,94,0.00,,,0.03,51,MyOwnSoftware,2013-05-10 18:39:00,
2013-05-10 19:40:00,49.1,47.4,29.66,WSW,248,2.0,3.0,94,0.00,,,0.03,49,MyOwnSoftware,2013-05-10 18:40:00,
2013-05-10 19:41:00,49.1,47.4,29.66,SSW,202,4.0,7.0,94,0.00,,,0.03,48,MyOwnSoftware,2013-05-10 18:41:00,
2013-05-10 19:42:00,49.1,47.4,29.66,WSW,248,4.0,6.0,94,0.00,,,0.03,47,MyOwnSoftware,2013-05-10 18:42:00,
2013-05-10 19:43:00,49.1,47.4,29.66,West,270,3.0,8.0,94,0.00,,,0.03,44,MyOwnSoftware,2013-05-10 18:43:00,
2013-05-10 19:44:00,49.1,47.4,29.66,SW,225,5.0,10.0,94,0.00,,,0.03,42,MyOwnSoftware,2013-05-10 18:44:00,
2013-05-10 19:45:00,49.1,47.4,29.66,SSW,202,7.0,12.0,94,0.00,,,0.03,40,MyOwnSoftware,2013-05-10 18:45:00,
2013-05-10 19:46:00,49.1,47.4,29.66,WSW,248,4.0,10.0,94,0.00,,,0.03,54,MyOwnSoftware,2013-05-10 18:46:00,
2013-05-10 19:47:00,49.1,47.4,29.66,SW,225,3.0,10.0,94,0.00,,,0.02,39,MyOwnSoftware,2013-05-10 18:47:00,
2013-05-10 19:48:00,49.1,47.4,29.66,SW,225,2.0,7.0,94,0.00,,,0.02,39,MyOwnSoftware,2013-05-10 18:48:00,
2013-05-10 19:49:00,49.1,47.4,29.66,SW,225,3.0,7.0,94,0.00,,,0.02,39,MyOwnSoftware,2013-05-10 18:49:00,
2013-05-10 19:50:00,49.1,47.4,29.66,SW,225,4.0,6.0,94,0.00,,,0.02,39,MyOwnSoftware,2013-05-10 18:50:00,
2013-05-10 19:51:00,49.1,47.4,29.66,NNW,338,4.0,7.0,94,0.00,,,0.02,39,MyOwnSoftware,2013-05-10 18:51:00,
2013-05-10 19:52:00,49.1,48.0,29.66,SW,224,2.0,-999.0,94,-99.99,,,0.10,37,weatherlink.com 1.10,2013-05-10 18:52:00,
2013-05-10 19:53:00,49.1,47.4,29.66,SW,225,4.0,8.0,94,0.00,,,0.02,37,MyOwnSoftware,2013-05-10 18:53:00,
2013-05-10 19:54:00,49.1,47.4,29.66,SW,225,5.0,8.0,94,0.00,,,0.02,37,MyOwnSoftware,2013-05-10 18:54:00,
2013-05-10 19:55:00,49.1,47.2,29.66,West,270,4.0,8.0,93,0.00,,,0.02,37,MyOwnSoftware,2013-05-10 18:55:00,
2013-05-10 19:56:00,49.1,47.2,29.66,WSW,248,4.0,8.0,93,0.00,,,0.02,39,MyOwnSoftware,2013-05-10 18:56:00,
2013-05-10 19:57:00,49.1,47.2,29.66,West,270,4.0,10.0,93,0.00,,,0.02,39,MyOwnSoftware,2013-05-10 18:57:00,
2013-05-10 19:58:00,49.1,46.9,29.66,West,270,1.0,2.0,92,0.00,,,0.02,39,MyOwnSoftware,2013-05-10 18:58:00,
2013-05-10 19:59:00,49.1,46.9,29.66,SW,225,3.0,6.0,92,0.00,,,0.02,39,MyOwnSoftware,2013-05-10 18:59:00,
2013-05-10 20:00:00,49.1,47.2,29.66,WNW,292,3.0,9.0,93,0.00,,,0.02,40,MyOwnSoftware,2013-05-10 19:00:00,
2013-05-10 20:01:00,49.1,46.9,29.66,WNW,292,2.0,4.0,92,0.00,,,0.02,40,MyOwnSoftware,2013-05-10 19:01:00,
2013-05-10 20:02:00,49.1,46.9,29.66,WSW,248,2.0,5.0,92,0.00,,,0.02,40,MyOwnSoftware,2013-05-10 19:02:00,
2013-05-10 20:03:00,49.1,46.9,29.66,ENE,68,4.0,8.0,92,0.00,,,0.02,40,MyOwnSoftware,2013-05-10 19:03:00,
2013-05-10 20:04:00,49.1,46.9,29.66,SW,225,4.0,7.0,92,0.00,,,0.02,42,MyOwnSoftware,2013-05-10 19:04:00,
2013-05-10 20:05:00,49.1,46.9,29.66,SW,225,3.0,10.0,92,0.00,,,0.02,42,MyOwnSoftware,2013-05-10 19:05:00,
2013-05-10 20:06:00,49.1,46.6,29.66,SW,225,6.0,10.0,91,0.00,,,0.02,42,MyOwnSoftware,2013-05-10 19:06:00,
2013-05-10 20:07:00,49.1,47.0,29.66,SW,226,6.0,-999.0,91,-99.99,,,0.10,42,weatherlink.com 1.10,2013-05-10 19:07:00,
2013-05-10 20:08:00,49.1,46.6,29.66,SSW,202,5.0,7.0,91,0.00,,,0.02,35,MyOwnSoftware,2013-05-10 19:08:00,
2013-05-10 20:09:00,49.1,46.6,29.66,West,270,3.0,6.0,91,0.00,,,0.02,35,MyOwnSoftware,2013-05-10 19:09:00,
2013-05-10 20:10:00,49.1,46.6,29.66,SSW,202,5.0,7.0,91,0.00,,,0.02,35,MyOwnSoftware,2013-05-10 19:10:00,
2013-05-10 20:11:00,48.9,46.4,29.66,SW,225,3.0,5.0,91,0.00,,,0.02,35,MyOwnSoftware,2013-05-10 19:11:00,
2013-05-10 20:12:00,48.9,46.4,29.66,SSW,202,3.0,6.0,91,0.00,,,0.02,31,MyOwnSoftware,2013-05-10 19:12:00,
2013-05-10 20:13:00,48.9,46.4,29.66,SSW,202,4.0,8.0,91,0.00,,,0.02,26,MyOwnSoftware,2013-05-10 19:13:00,
2013-05-10 20:14:00,48.9,46.4,29.66,SW,225,2.0,6.0,91,0.00,,,0.02,26,MyOwnSoftware,2013-05-10 19:14:00,
2013-05-10 20:15:00,48.9,46.4,29.67,SW,225,3.0,7.0,91,0.00,,,0.02,26,MyOwnSoftware,2013-05-10 19:15:00,
2013-05-10 20:16:00,49.1,46.6,29.66,North,0,2.0,4.0,91,0.00,,,0.02,42,MyOwnSoftware,2013-05-10 19:16:00,
2013-05-10 20:17:00,48.9,46.4,29.67,SW,225,2.0,7.0,91,0.00,,,0.02,19,MyOwnSoftware,2013-05-10 19:17:00,
2013-05-10 20:18:00,48.9,46.4,29.67,SW,225,2.0,7.0,91,0.00,,,0.02,19,MyOwnSoftware,2013-05-10 19:18:00,
2013-05-10 20:19:00,48.9,46.4,29.67,NW,315,3.0,5.0,91,0.00,,,0.02,19,MyOwnSoftware,2013-05-10 19:19:00,
2013-05-10 20:20:00,48.9,46.4,29.67,West,270,4.0,7.0,91,0.00,,,0.02,19,MyOwnSoftware,2013-05-10 19:20:00,
2013-05-10 20:21:00,48.9,46.4,29.67,WNW,292,4.0,8.0,91,0.00,,,0.02,16,MyOwnSoftware,2013-05-10 19:21:00,
2013-05-10 20:22:00,48.9,46.4,29.67,SSW,202,3.0,6.0,91,0.00,,,0.02,16,MyOwnSoftware,2013-05-10 19:22:00,
2013-05-10 20:23:00,48.9,46.0,29.67,West,275,2.0,-999.0,91,-99.99,,,0.10,16,weatherlink.com 1.10,2013-05-10 19:23:00,
2013-05-10 20:24:00,48.8,46.3,29.67,West,270,3.0,6.0,91,0.00,,,0.02,16,MyOwnSoftware,2013-05-10 19:24:00,
2013-05-10 20:25:00,48.8,46.3,29.67,SSW,202,3.0,6.0,91,0.00,,,0.02,16,MyOwnSoftware,2013-05-10 19:25:00,
2013-05-10 20:26:00,48.8,46.3,29.67,SW,225,3.0,5.0,91,0.00,,,0.02,16,MyOwnSoftware,2013-05-10 19:26:00,
2013-05-10 20:27:00,48.8,46.3,29.67,SSW,202,2.0,3.0,91,0.00,,,0.02,16,MyOwnSoftware,2013-05-10 19:27:00,
2013-05-10 20:28:00,48.8,46.3,29.67,WNW,292,1.0,2.0,91,0.00,,,0.02,16,MyOwnSoftware,2013-05-10 19:28:00,
2013-05-10 20:29:00,48.8,46.3,29.67,WNW,292,0.0,2.0,91,0.00,,,0.01,25,MyOwnSoftware,2013-05-10 19:29:00,
2013-05-10 20:30:00,48.8,46.3,29.67,SW,225,2.0,3.0,91,0.00,,,0.01,25,MyOwnSoftware,2013-05-10 19:30:00,
2013-05-10 20:31:00,48.8,46.3,29.67,SSW,202,2.0,5.0,91,0.00,,,0.01,25,MyOwnSoftware,2013-05-10 19:31:00,
2013-05-10 20:32:00,48.8,46.3,29.67,SW,225,0.0,1.0,91,0.00,,,0.01,25,MyOwnSoftware,2013-05-10 19:32:00,
2013-05-10 20:33:00,48.8,46.3,29.67,NW,315,2.0,4.0,91,0.00,,,0.01,16,MyOwnSoftware,2013-05-10 19:33:00,
2013-05-10 20:34:00,48.8,46.3,29.67,SW,225,1.0,5.0,91,0.00,,,0.01,16,MyOwnSoftware,2013-05-10 19:34:00,
2013-05-10 20:35:00,48.8,46.3,29.67,SW,225,1.0,2.0,91,0.00,,,0.01,16,MyOwnSoftware,2013-05-10 19:35:00,
2013-05-10 20:36:00,48.6,46.1,29.67,SW,225,1.0,4.0,91,0.00,,,0.01,16,MyOwnSoftware,2013-05-10 19:36:00,
2013-05-10 20:37:00,48.6,46.1,29.67,SSW,202,2.0,5.0,91,0.00,,,0.00,16,MyOwnSoftware,2013-05-10 19:37:00,
2013-05-10 20:38:00,48.6,46.0,29.67,WSW,243,3.0,-999.0,91,-99.99,,,0.10,14,weatherlink.com 1.10,2013-05-10 19:38:00,
2013-05-10 20:39:00,48.6,46.1,29.67,WSW,248,2.0,4.0,91,0.00,,,0.00,14,MyOwnSoftware,2013-05-10 19:39:00,
2013-05-10 20:40:00,48.6,46.1,29.67,SW,225,2.0,3.0,91,0.00,,,0.00,14,MyOwnSoftware,2013-05-10 19:40:00,
2013-05-10 20:41:00,48.5,45.7,29.67,SSW,202,1.0,3.0,90,0.00,,,0.00,14,MyOwnSoftware,2013-05-10 19:41:00,
2013-05-10 20:42:00,48.5,45.7,29.67,WSW,248,1.0,3.0,90,0.00,,,0.00,12,MyOwnSoftware,2013-05-10 19:42:00,
2013-05-10 20:43:00,48.5,45.7,29.67,NW,315,2.0,6.0,90,0.00,,,0.00,12,MyOwnSoftware,2013-05-10 19:43:00,
2013-05-10 20:44:00,48.5,45.7,29.67,West,270,0.0,1.0,90,0.00,,,0.00,12,MyOwnSoftware,2013-05-10 19:44:00,
2013-05-10 20:45:00,48.5,45.7,29.67,WNW,292,1.0,3.0,90,0.00,,,0.00,12,MyOwnSoftware,2013-05-10 19:45:00,
2013-05-10 20:46:00,48.6,46.1,29.67,SSW,202,2.0,5.0,91,0.00,,,0.01,16,MyOwnSoftware,2013-05-10 19:46:00,
2013-05-10 20:47:00,48.5,45.7,29.67,SW,225,2.0,3.0,90,0.00,,,0.00,11,MyOwnSoftware,2013-05-10 19:47:00,
2013-05-10 20:48:00,48.5,45.7,29.67,WSW,248,3.0,7.0,90,0.00,,,0.00,11,MyOwnSoftware,2013-05-10 19:48:00,
2013-05-10 20:49:00,48.3,45.5,29.67,West,270,3.0,7.0,90,0.00,,,0.00,11,MyOwnSoftware,2013-05-10 19:49:00,
2013-05-10 20:50:00,48.3,45.5,29.67,WSW,248,2.0,5.0,90,0.00,,,0.00,9,MyOwnSoftware,2013-05-10 19:50:00,
2013-05-10 20:51:00,48.3,45.5,29.67,SW,225,4.0,7.0,90,0.00,,,0.00,9,MyOwnSoftware,2013-05-10 19:51:00,
2013-05-10 20:52:00,48.2,45.4,29.67,SW,225,3.0,8.0,90,0.00,,,0.00,9,MyOwnSoftware,2013-05-10 19:52:00,
2013-05-10 20:53:00,48.2,46.0,29.67,SSW,206,2.0,-999.0,90,-99.99,,,0.10,9,weatherlink.com 1.10,2013-05-10 19:53:00,
2013-05-10 20:54:00,48.2,45.4,29.67,WNW,292,2.0,3.0,90,0.00,,,0.00,7,MyOwnSoftware,2013-05-10 19:54:00,
2013-05-10 20:55:00,48.2,45.4,29.67,SSW,202,0.0,1.0,90,0.00,,,0.00,7,MyOwnSoftware,2013-05-10 19:55:00,
2013-05-10 20:56:00,48.2,45.4,29.67,SW,225,2.0,5.0,90,0.00,,,0.00,7,MyOwnSoftware,2013-05-10 19:56:00,
2013-05-10 20:57:00,48.0,45.2,29.67,West,270,1.0,2.0,90,0.00,,,0.00,7,MyOwnSoftware,2013-05-10 19:57:00,
2013-05-10 20:58:00,48.0,45.2,29.67,SW,225,3.0,6.0,90,0.00,,,0.00,7,MyOwnSoftware,2013-05-10 19:58:00,
2013-05-10 20:59:00,48.0,45.2,29.67,SSW,202,2.0,8.0,90,0.00,,,0.00,7,MyOwnSoftware,2013-05-10 19:59:00,
2013-05-10 21:00:00,48.0,45.2,29.67,ENE,68,1.0,2.0,90,0.00,,,0.00,7,MyOwnSoftware,2013-05-10 20:00:00,
2013-05-10 21:01:00,47.9,45.1,29.67,SSW,202,3.0,7.0,90,0.00,,,0.00,7,MyOwnSoftware,2013-05-10 20:01:00,
2013-05-10 21:02:00,47.9,45.1,29.67,SSW,202,3.0,8.0,90,0.00,,,0.00,6,MyOwnSoftware,2013-05-10 20:02:00,
2013-05-10 21:03:00,47.9,45.1,29.67,SSW,202,2.0,5.0,90,0.00,,,0.00,5,MyOwnSoftware,2013-05-10 20:03:00,
2013-05-10 21:04:00,47.9,45.1,29.67,WSW,248,1.0,2.0,90,0.00,,,0.00,5,MyOwnSoftware,2013-05-10 20:04:00,
2013-05-10 21:05:00,47.9,45.1,29.67,NW,315,2.0,5.0,90,0.00,,,0.00,5,MyOwnSoftware,2013-05-10 20:05:00,
2013-05-10 21:06:00,47.7,45.2,29.67,SW,225,2.0,3.0,91,0.00,,,0.00,5,MyOwnSoftware,2013-05-10 20:06:00,
2013-05-10 21:07:00,47.7,45.2,29.67,WSW,248,1.0,2.0,91,0.00,,,0.00,5,MyOwnSoftware,2013-05-10 20:07:00,
2013-05-10 21:08:00,47.7,45.0,29.67,SW,220,2.0,-999.0,91,-99.99,,,0.10,5,weatherlink.com 1.10,2013-05-10 20:08:00,
2013-05-10 21:09:00,47.7,45.2,29.67,SW,225,1.0,3.0,91,0.00,,,0.00,5,MyOwnSoftware,2013-05-10 20:09:00,
2013-05-10 21:10:00,47.7,45.2,29.67,SW,225,3.0,5.0,91,0.00,,,0.00,5,MyOwnSoftware,2013-05-10 20:10:00,
2013-05-10 21:11:00,47.7,45.2,29.67,SW,225,0.0,1.0,91,0.00,,,0.00,0,MyOwnSoftware,2013-05-10 20:11:00,
2013-05-10 21:12:00,47.6,45.1,29.67,SW,225,3.0,6.0,91,0.00,,,0.00,0,MyOwnSoftware,2013-05-10 20:12:00,
2013-05-10 21:13:00,47.6,45.1,29.67,SW,225,1.0,3.0,91,0.00,,,0.00,0,MyOwnSoftware,2013-05-10 20:13:00,
2013-05-10 21:14:00,47.6,45.1,29.67,SW,225,0.0,2.0,91,0.00,,,0.00,0,MyOwnSoftware,2013-05-10 20:14:00,
2013-05-10 21:15:00,47.6,45.1,29.68,SW,225,0.0,2.0,91,0.00,,,0.00,0,MyOwnSoftware,2013-05-10 20:15:00,
2013-05-10 21:16:00,47.7,45.2,29.67,WSW,248,1.0,2.0,91,0.00,,,0.00,5,MyOwnSoftware,2013-05-10 20:16:00,
2013-05-10 21:17:00,47.6,45.1,29.68,SW,225,0.0,2.0,91,0.00,,,0.00,0,MyOwnSoftware,2013-05-10 20:17:00,
2013-05-10 21:18:00,47.4,44.9,29.68,South,180,2.0,4.0,91,0.00,,,0.00,0,MyOwnSoftware,2013-05-10 20:18:00,
2013-05-10 21:19:00,47.4,44.9,29.68,SSW,202,0.0,2.0,91,0.00,,,0.00,0,MyOwnSoftware,2013-05-10 20:19:00,
2013-05-10 21:20:00,47.4,44.9,29.68,SSW,202,2.0,3.0,91,0.00,,,0.00,0,MyOwnSoftware,2013-05-10 20:20:00,
2013-05-10 21:21:00,47.4,44.9,29.68,SW,225,2.0,3.0,91,0.00,,,0.00,0,MyOwnSoftware,2013-05-10 20:21:00,
2013-05-10 21:22:00,47.4,44.9,29.68,SW,225,1.0,3.0,91,0.00,,,0.00,0,MyOwnSoftware,2013-05-10 20:22:00,
2013-05-10 21:23:00,47.4,45.0,29.68,SSW,196,1.0,-999.0,91,-99.99,,,0.10,0,weatherlink.com 1.10,2013-05-10 20:23:00,
2013-05-10 21:24:00,47.3,44.8,29.68,SSW,202,1.0,3.0,91,0.00,,,0.00,0,MyOwnSoftware,2013-05-10 20:24:00,
2013-05-10 21:25:00,47.3,44.8,29.68,SW,225,0.0,2.0,91,0.00,,,0.00,0,MyOwnSoftware,2013-05-10 20:25:00,
2013-05-10 21:26:00,47.3,44.8,29.68,North,0,0.0,0.0,91,0.00,,,0.00,0,MyOwnSoftware,2013-05-10 20:26:00,
2013-05-10 21:27:00,47.3,44.8,29.68,SW,225,0.0,2.0,91,0.00,,,0.00,0,MyOwnSoftware,2013-05-10 20:27:00,
2013-05-10 21:28:00,47.3,44.8,29.68,North,0,0.0,0.0,91,0.00,,,0.00,0,MyOwnSoftware,2013-05-10 20:28:00,
2013-05-10 21:29:00,47.3,45.1,29.68,SW,225,1.0,3.0,92,0.00,,,0.00,0,MyOwnSoftware,2013-05-10 20:29:00,
2013-05-10 21:30:00,47.3,45.1,29.68,SW,225,1.0,3.0,92,0.00,,,0.00,0,MyOwnSoftware,2013-05-10 20:30:00,
2013-05-10 21:31:00,47.1,44.9,29.68,North,0,3.0,7.0,92,0.00,,,0.00,0,MyOwnSoftware,2013-05-10 20:31:00,
2013-05-10 21:32:00,47.1,44.9,29.68,WSW,248,1.0,3.0,92,0.00,,,0.00,0,MyOwnSoftware,2013-05-10 20:32:00,
2013-05-10 21:33:00,47.1,44.9,29.68,WSW,248,0.0,1.0,92,0.00,,,0.00,0,MyOwnSoftware,2013-05-10 20:33:00,
2013-05-10 21:34:00,47.1,44.9,29.68,North,0,0.0,0.0,92,0.00,,,0.00,0,MyOwnSoftware,2013-05-10 20:34:00,
2013-05-10 21:35:00,47.1,44.9,29.68,North,0,0.0,0.0,92,0.00,,,0.00,0,MyOwnSoftware,2013-05-10 20:35:00,
2013-05-10 21:36:00,47.1,44.9,29.68,North,0,0.0,0.0,92,0.00,,,0.00,0,MyOwnSoftware,2013-05-10 20:36:00,
2013-05-10 21:37:00,47.1,44.9,29.68,SW,225,1.0,3.0,92,0.00,,,0.00,0,MyOwnSoftware,2013-05-10 20:37:00,
2013-05-10 21:38:00,47.3,45.1,29.68,SW,225,1.0,3.0,92,0.00,,,0.00,0,MyOwnSoftware,2013-05-10 20:38:00,
2013-05-10 21:39:00,47.1,45.2,29.68,SSW,202,1.0,2.0,93,0.00,,,0.00,0,MyOwnSoftware,2013-05-10 20:39:00,
2013-05-10 21:40:00,47.1,44.9,29.68,SSE,158,1.0,3.0,92,0.00,,,0.00,0,MyOwnSoftware,2013-05-10 20:40:00,
2013-05-10 21:41:00,47.1,44.9,29.68,SSW,202,2.0,5.0,92,0.00,,,0.00,0,MyOwnSoftware,2013-05-10 20:41:00,
2013-05-10 21:42:00,47.1,44.9,29.68,SW,225,1.0,4.0,92,0.00,,,0.00,0,MyOwnSoftware,2013-05-10 20:42:00,
2013-05-10 21:43:00,47.0,44.8,29.68,SW,225,1.0,3.0,92,0.00,,,0.00,0,MyOwnSoftware,2013-05-10 20:43:00,
2013-05-10 21:44:00,47.0,45.1,29.68,SW,225,1.0,3.0,93,0.00,,,0.00,0,MyOwnSoftware,2013-05-10 20:44:00,
2013-05-10 21:45:00,47.0,45.1,29.68,SW,225,0.0,2.0,93,0.00,,,0.00,0,MyOwnSoftware,2013-05-10 20:45:00,
2013-05-10 21:46:00,47.1,44.9,29.68,SW,225,1.0,3.0,92,0.00,,,0.00,0,MyOwnSoftware,2013-05-10 20:46:00,
2013-05-10 21:47:00,47.0,45.1,29.68,SW,225,1.0,2.0,93,0.00,,,0.00,0,MyOwnSoftware,2013-05-10 20:47:00,
2013-05-10 21:48:00,47.0,45.1,29.68,SW,225,0.0,1.0,93,0.00,,,0.00,0,MyOwnSoftware,2013-05-10 20:48:00,
2013-05-10 21:49:00,47.0,45.1,29.68,South,180,0.0,1.0,93,0.00,,,0.00,0,MyOwnSoftware,2013-05-10 20:49:00,
2013-05-10 21:50:00,47.0,45.1,29.68,North,0,0.0,0.0,93,0.00,,,0.00,0,MyOwnSoftware,2013-05-10 20:50:00,
2013-05-10 21:51:00,47.0,45.1,29.68,SW,225,0.0,1.0,93,0.00,,,0.00,0,MyOwnSoftware,2013-05-10 20:51:00,
2013-05-10 21:52:00,47.0,45.1,29.68,WSW,248,1.0,2.0,93,0.00,,,0.00,0,MyOwnSoftware,2013-05-10 20:52:00,
2013-05-10 21:53:00,47.0,45.0,29.68,SW,219,0.0,-999.0,93,-99.99,,,0.10,0,weatherlink.com 1.10,2013-05-10 20:53:00,
2013-05-10 21:54:00,47.0,45.1,29.68,North,0,0.0,0.0,93,0.00,,,0.00,0,MyOwnSoftware,2013-05-10 20:54:00,
2013-05-10 21:55:00,46.8,44.9,29.68,North,0,0.0,0.0,93,0.00,,,0.00,0,MyOwnSoftware,2013-05-10 20:55:00,
2013-05-10 21:56:00,46.8,44.9,29.68,SW,225,0.0,1.0,93,0.00,,,0.00,0,MyOwnSoftware,2013-05-10 20:56:00,
2013-05-10 21:57:00,46.8,44.9,29.68,SW,225,0.0,1.0,93,0.00,,,0.00,0,MyOwnSoftware,2013-05-10 20:57:00,
2013-05-10 21:58:00,46.8,44.9,29.68,SW,225,0.0,1.0,93,0.00,,,0.00,0,MyOwnSoftware,2013-05-10 20:58:00,
2013-05-10 21:59:00,46.8,44.9,29.68,North,0,0.0,0.0,93,0.00,,,0.00,0,MyOwnSoftware,2013-05-10 20:59:00,
2013-05-10 22:00:00,46.8,44.9,29.68,SW,225,0.0,1.0,93,0.00,,,0.00,0,MyOwnSoftware,2013-05-10 21:00:00,
2013-05-10 22:01:00,46.8,44.9,29.68,SW,225,0.0,2.0,93,0.00,,,0.00,0,MyOwnSoftware,2013-05-10 21:01:00,
2013-05-10 22:02:00,46.8,44.9,29.68,SW,225,0.0,1.0,93,0.00,,,0.00,0,MyOwnSoftware,2013-05-10 21:02:00,
2013-05-10 22:03:00,46.7,44.8,29.68,North,0,0.0,0.0,93,0.00,,,0.00,0,MyOwnSoftware,2013-05-10 21:03:00,
2013-05-10 22:04:00,46.7,44.8,29.68,SW,225,1.0,2.0,93,0.00,,,0.00,0,MyOwnSoftware,2013-05-10 21:04:00,
2013-05-10 22:05:00,46.7,44.8,29.68,SW,225,0.0,1.0,93,0.00,,,0.00,0,MyOwnSoftware,2013-05-10 21:05:00,
2013-05-10 22:06:00,46.7,44.8,29.68,North,0,0.0,0.0,93,0.00,,,0.00,0,MyOwnSoftware,2013-05-10 21:06:00,
2013-05-10 22:07:00,46.7,44.8,29.68,North,0,0.0,0.0,93,0.00,,,0.00,0,MyOwnSoftware,2013-05-10 21:07:00,
2013-05-10 22:08:00,46.7,45.0,29.68,SW,223,0.0,-999.0,93,-99.99,,,0.10,0,weatherlink.com 1.10,2013-05-10 21:08:00,
2013-05-10 22:09:00,46.7,44.8,29.68,SW,225,0.0,2.0,93,0.00,,,0.00,0,MyOwnSoftware,2013-05-10 21:09:00,
2013-05-10 22:10:00,46.7,44.8,29.68,SW,225,0.0,1.0,93,0.00,,,0.00,0,MyOwnSoftware,2013-05-10 21:10:00,
2013-05-10 22:11:00,46.7,44.8,29.68,SW,225,0.0,1.0,93,0.00,,,0.00,0,MyOwnSoftware,2013-05-10 21:11:00,
2013-05-10 22:12:00,46.7,44.8,29.68,West,270,1.0,2.0,93,0.00,,,0.00,0,MyOwnSoftware,2013-05-10 21:12:00,
2013-05-10 22:13:00,46.7,45.1,29.68,West,270,1.0,3.0,94,0.00,,,0.00,0,MyOwnSoftware,2013-05-10 21:13:00,
2013-05-10 22:14:00,46.7,45.1,29.68,WSW,248,1.0,3.0,94,0.00,,,0.00,0,MyOwnSoftware,2013-05-10 21:14:00,
2013-05-10 22:15:00,46.7,45.1,29.69,East,90,2.0,3.0,94,0.00,,,0.00,0,MyOwnSoftware,2013-05-10 21:15:00,
2013-05-10 22:16:00,46.7,44.8,29.68,North,0,0.0,0.0,93,0.00,,,0.00,0,MyOwnSoftware,2013-05-10 21:16:00,
2013-05-10 22:17:00,46.7,45.1,29.69,SSW,202,3.0,6.0,94,0.00,,,0.00,0,MyOwnSoftware,2013-05-10 21:17:00,
2013-05-10 22:18:00,46.7,45.1,29.69,WNW,292,4.0,7.0,94,0.00,,,0.00,0,MyOwnSoftware,2013-05-10 21:18:00,
2013-05-10 22:19:00,46.7,45.1,29.69,SW,225,3.0,10.0,94,0.00,,,0.00,0,MyOwnSoftware,2013-05-10 21:19:00,
2013-05-10 22:20:00,46.7,45.1,29.69,SW,225,3.0,5.0,94,0.00,,,0.00,0,MyOwnSoftware,2013-05-10 21:20:00,
2013-05-10 22:21:00,46.7,44.8,29.69,NW,315,3.0,6.0,93,0.00,,,0.00,0,MyOwnSoftware,2013-05-10 21:21:00,
2013-05-10 22:22:00,46.7,44.8,29.69,WNW,292,2.0,4.0,93,0.00,,,0.00,0,MyOwnSoftware,2013-05-10 21:22:00,
2013-05-10 22:23:00,46.7,45.0,29.69,South,179,2.0,-999.0,93,-99.99,,,0.10,0,weatherlink.com 1.10,2013-05-10 21:23:00,
2013-05-10 22:24:00,46.7,44.8,29.69,SW,225,3.0,6.0,93,0.00,,,0.00,0,MyOwnSoftware,2013-05-10 21:24:00,
2013-05-10 22:25:00,46.7,44.8,29.69,SW,225,3.0,6.0,93,0.00,,,0.00,0,MyOwnSoftware,2013-05-10 21:25:00,
2013-05-10 22:26:00,46.7,44.5,29.69,South,180,1.0,5.0,92,0.00,,,0.00,0,MyOwnSoftware,2013-05-10 21:26:00,
2013-05-10 22:27:00,46.5,44.3,29.69,WNW,292,1.0,3.0,92,0.00,,,0.00,0,MyOwnSoftware,2013-05-10 21:27:00,
2013-05-10 22:28:00,46.5,44.3,29.69,WSW,248,1.0,3.0,92,0.00,,,0.00,0,MyOwnSoftware,2013-05-10 21:28:00,
2013-05-10 22:29:00,46.5,44.3,29.69,WNW,292,1.0,3.0,92,0.00,,,0.00,0,MyOwnSoftware,2013-05-10 21:29:00,
2013-05-10 22:30:00,46.5,44.0,29.68,SW,225,1.0,2.0,91,0.00,,,0.00,0,MyOwnSoftware,2013-05-10 21:30:00,
2013-05-10 22:31:00,46.5,44.0,29.68,SSW,202,2.0,6.0,91,0.00,,,0.00,0,MyOwnSoftware,2013-05-10 21:31:00,
2013-05-10 22:32:00,46.5,44.0,29.68,SW,225,1.0,5.0,91,0.00,,,0.00,0,MyOwnSoftware,2013-05-10 21:32:00,
2013-05-10 22:33:00,46.5,44.0,29.68,SSW,202,2.0,5.0,91,0.00,,,0.00,0,MyOwnSoftware,2013-05-10 21:33:00,
2013-05-10 22:34:00,46.5,44.0,29.68,SSW,202,2.0,5.0,91,0.00,,,0.00,0,MyOwnSoftware,2013-05-10 21:34:00,
2013-05-10 22:35:00,46.5,43.7,29.68,WNW,292,1.0,2.0,90,0.00,,,0.00,0,MyOwnSoftware,2013-05-10 21:35:00,
2013-05-10 22:36:00,46.5,43.7,29.68,NW,315,1.0,4.0,90,0.00,,,0.00,0,MyOwnSoftware,2013-05-10 21:36:00,
2013-05-10 22:37:00,46.5,44.3,29.69,WSW,248,1.0,3.0,92,0.00,,,0.00,0,MyOwnSoftware,2013-05-10 21:37:00,
2013-05-10 22:38:00,46.4,43.3,29.68,ESE,112,2.0,5.0,89,0.00,,,0.00,0,MyOwnSoftware,2013-05-10 21:38:00,
2013-05-10 22:39:00,46.4,43.3,29.68,SW,225,1.0,3.0,89,0.00,,,0.00,0,MyOwnSoftware,2013-05-10 21:39:00,
2013-05-10 22:40:00,46.4,43.3,29.68,SSW,202,1.0,4.0,89,0.00,,,0.00,0,MyOwnSoftware,2013-05-10 21:40:00,
2013-05-10 22:41:00,46.4,43.3,29.68,WSW,248,3.0,6.0,89,0.00,,,0.00,0,MyOwnSoftware,2013-05-10 21:41:00,
2013-05-10 22:42:00,46.4,43.0,29.68,SE,135,2.0,6.0,88,0.00,,,0.00,0,MyOwnSoftware,2013-05-10 21:42:00,
2013-05-10 22:43:00,46.4,43.0,29.68,South,180,1.0,4.0,88,0.00,,,0.00,0,MyOwnSoftware,2013-05-10 21:43:00,
2013-05-10 22:44:00,46.4,43.0,29.68,South,180,0.0,2.0,88,0.00,,,0.00,0,MyOwnSoftware,2013-05-10 21:44:00,
2013-05-10 22:45:00,46.4,43.0,29.69,ESE,112,1.0,3.0,88,0.00,,,0.00,0,MyOwnSoftware,2013-05-10 21:45:00,
2013-05-10 22:46:00,46.4,43.6,29.68,WNW,292,1.0,2.0,90,0.00,,,0.00,0,MyOwnSoftware,2013-05-10 21:46:00,
2013-05-10 22:47:00,46.4,43.0,29.69,SE,135,0.0,1.0,88,0.00,,,0.00,0,MyOwnSoftware,2013-05-10 21:47:00,
2013-05-10 22:48:00,46.4,43.0,29.69,SSW,202,2.0,5.0,88,0.00,,,0.00,0,MyOwnSoftware,2013-05-10 21:48:00,
2013-05-10 22:49:00,46.4,43.0,29.69,North,0,0.0,0.0,88,0.00,,,0.00,0,MyOwnSoftware,2013-05-10 21:49:00,
2013-05-10 22:50:00,46.4,43.0,29.69,SSW,202,0.0,2.0,88,0.00,,,0.00,0,MyOwnSoftware,2013-05-10 21:50:00,
2013-05-10 22:51:00,46.4,43.0,29.69,SSW,202,0.0,1.0,88,0.00,,,0.00,0,MyOwnSoftware,2013-05-10 21:51:00,
2013-05-10 22:52:00,46.4,43.0,29.69,SSW,202,1.0,2.0,88,0.00,,,0.00,0,MyOwnSoftware,2013-05-10 21:52:00,
2013-05-10 22:53:00,46.2,42.8,29.69,South,180,0.0,1.0,88,0.00,,,0.00,0,MyOwnSoftware,2013-05-10 21:53:00,
2013-05-10 22:54:00,46.2,43.0,29.69,SW,215,1.0,-999.0,88,-99.99,,,0.10,0,weatherlink.com 1.10,2013-05-10 21:54:00,
2013-05-10 22:55:00,46.2,42.8,29.69,North,0,0.0,0.0,88,0.00,,,0.00,0,MyOwnSoftware,2013-05-10 21:55:00,
2013-05-10 22:56:00,46.2,42.8,29.69,SW,225,0.0,2.0,88,0.00,,,0.00,0,MyOwnSoftware,2013-05-10 21:56:00,
2013-05-10 22:57:00,46.2,42.8,29.69,North,0,0.0,0.0,88,0.00,,,0.00,0,MyOwnSoftware,2013-05-10 21:57:00,
2013-05-10 22:58:00,46.2,42.8,29.69,North,0,0.0,0.0,88,0.00,,,0.00,0,MyOwnSoftware,2013-05-10 21:58:00,
2013-05-10 22:59:00,46.2,42.8,29.69,SSW,202,0.0,1.0,88,0.00,,,0.00,0,MyOwnSoftware,2013-05-10 21:59:00,
2013-05-10 23:00:00,46.2,42.8,29.69,SW,225,2.0,5.0,88,0.00,,,0.00,0,MyOwnSoftware,2013-05-10 22:00:00,
2013-05-10 23:01:00,46.2,42.8,29.69,SW,225,1.0,5.0,88,0.00,,,0.00,0,MyOwnSoftware,2013-05-10 22:01:00,
2013-05-10 23:02:00,46.2,42.8,29.69,WNW,292,1.0,3.0,88,0.00,,,0.00,0,MyOwnSoftware,2013-05-10 22:02:00,
2013-05-10 23:03:00,46.1,42.7,29.69,West,270,1.0,3.0,88,0.00,,,0.00,0,MyOwnSoftware,2013-05-10 22:03:00,
2013-05-10 23:04:00,46.1,42.7,29.69,SW,225,1.0,3.0,88,0.00,,,0.00,0,MyOwnSoftware,2013-05-10 22:04:00,
2013-05-10 23:05:00,46.1,42.7,29.69,North,0,0.0,0.0,88,0.00,,,0.00,0,MyOwnSoftware,2013-05-10 22:05:00,
2013-05-10 23:06:00,46.1,42.7,29.69,SW,225,0.0,3.0,88,0.00,,,0.00,0,MyOwnSoftware,2013-05-10 22:06:00,
2013-05-10 23:07:00,46.1,42.7,29.69,SSW,202,1.0,2.0,88,0.00,,,0.00,0,MyOwnSoftware,2013-05-10 22:07:00,
2013-05-10 23:08:00,46.1,42.7,29.69,SSW,202,1.0,3.0,88,0.00,,,0.00,0,MyOwnSoftware,2013-05-10 22:08:00,
2013-05-10 23:09:00,46.1,43.0,29.69,SW,222,0.0,-999.0,88,-99.99,,,0.10,0,weatherlink.com 1.10,2013-05-10 22:09:00,
2013-05-10 23:10:00,46.1,42.7,29.69,SW,225,0.0,1.0,88,0.00,,,0.00,0,MyOwnSoftware,2013-05-10 22:10:00,
2013-05-10 23:11:00,46.0,42.6,29.69,SW,225,0.0,1.0,88,0.00,,,0.00,0,MyOwnSoftware,2013-05-10 22:11:00,
2013-05-10 23:12:00,46.0,42.6,29.69,North,0,0.0,0.0,88,0.00,,,0.00,0,MyOwnSoftware,2013-05-10 22:12:00,
2013-05-10 23:13:00,46.0,42.6,29.69,SSW,202,1.0,3.0,88,0.00,,,0.00,0,MyOwnSoftware,2013-05-10 22:13:00,
2013-05-10 23:14:00,46.0,42.6,29.69,SSW,202,0.0,2.0,88,0.00,,,0.00,0,MyOwnSoftware,2013-05-10 22:14:00,
2013-05-10 23:15:00,46.0,42.6,29.69,SSW,202,0.0,2.0,88,0.00,,,0.00,0,MyOwnSoftware,2013-05-10 22:15:00,
2013-05-10 23:16:00,46.1,42.7,29.69,SSW,202,1.0,2.0,88,0.00,,,0.00,0,MyOwnSoftware,2013-05-10 22:16:00,
2013-05-10 23:17:00,45.8,42.5,29.69,North,0,0.0,0.0,88,0.00,,,0.00,0,MyOwnSoftware,2013-05-10 22:17:00,
2013-05-10 23:18:00,45.8,42.5,29.69,North,0,0.0,0.0,88,0.00,,,0.00,0,MyOwnSoftware,2013-05-10 22:18:00,
2013-05-10 23:19:00,45.8,42.5,29.69,SSW,202,0.0,1.0,88,0.00,,,0.00,0,MyOwnSoftware,2013-05-10 22:19:00,
2013-05-10 23:20:00,45.8,42.5,29.69,North,0,0.0,0.0,88,0.00,,,0.00,0,MyOwnSoftware,2013-05-10 22:20:00,
2013-05-10 23:21:00,45.8,42.5,29.69,SSW,202,0.0,2.0,88,0.00,,,0.00,0,MyOwnSoftware,2013-05-10 22:21:00,
2013-05-10 23:22:00,45.8,42.5,29.69,SSW,202,0.0,1.0,88,0.00,,,0.00,0,MyOwnSoftware,2013-05-10 22:22:00,
2013-05-10 23:23:00,45.7,42.0,29.69,SW,222,0.0,-999.0,88,-99.99,,,0.10,0,weatherlink.com 1.10,2013-05-10 22:23:00,
2013-05-10 23:24:00,45.7,42.4,29.69,WSW,248,1.0,3.0,88,0.00,,,0.00,0,MyOwnSoftware,2013-05-10 22:24:00,
2013-05-10 23:25:00,45.7,42.4,29.69,SSW,202,1.0,3.0,88,0.00,,,0.00,0,MyOwnSoftware,2013-05-10 22:25:00,
2013-05-10 23:26:00,45.7,42.4,29.69,SSW,202,1.0,2.0,88,0.00,,,0.00,0,MyOwnSoftware,2013-05-10 22:26:00,
2013-05-10 23:27:00,45.7,42.4,29.69,North,0,0.0,0.0,88,0.00,,,0.00,0,MyOwnSoftware,2013-05-10 22:27:00,
2013-05-10 23:28:00,45.7,42.4,29.69,SW,225,1.0,2.0,88,0.00,,,0.00,0,MyOwnSoftware,2013-05-10 22:28:00,
2013-05-10 23:29:00,45.5,42.2,29.69,SW,225,2.0,3.0,88,0.00,,,0.00,0,MyOwnSoftware,2013-05-10 22:29:00,
2013-05-10 23:30:00,45.5,42.2,29.68,WSW,248,2.0,6.0,88,0.00,,,0.00,0,MyOwnSoftware,2013-05-10 22:30:00,
2013-05-10 23:31:00,45.5,42.4,29.68,WSW,248,1.0,2.0,89,0.00,,,0.00,0,MyOwnSoftware,2013-05-10 22:31:00,
2013-05-10 23:32:00,45.5,42.4,29.68,NW,315,1.0,2.0,89,0.00,,,0.00,0,MyOwnSoftware,2013-05-10 22:32:00,
2013-05-10 23:33:00,45.5,42.2,29.68,North,0,2.0,3.0,88,0.00,,,0.00,0,MyOwnSoftware,2013-05-10 22:33:00,
2013-05-10 23:34:00,45.5,42.2,29.68,SSE,158,2.0,6.0,88,0.00,,,0.00,0,MyOwnSoftware,2013-05-10 22:34:00,
2013-05-10 23:35:00,45.5,42.2,29.68,SW,225,1.0,3.0,88,0.00,,,0.00,0,MyOwnSoftware,2013-05-10 22:35:00,
2013-05-10 23:36:00,45.5,42.2,29.68,NNW,338,2.0,3.0,88,0.00,,,0.00,0,MyOwnSoftware,2013-05-10 22:36:00,
2013-05-10 23:37:00,45.5,42.2,29.68,SW,225,1.0,2.0,88,0.00,,,0.00,0,MyOwnSoftware,2013-05-10 22:37:00,
2013-05-10 23:38:00,45.5,42.2,29.69,SW,225,2.0,3.0,88,0.00,,,0.00,0,MyOwnSoftware,2013-05-10 22:38:00,
2013-05-10 23:39:00,45.5,42.2,29.68,SSW,202,2.0,5.0,88,0.00,,,0.00,0,MyOwnSoftware,2013-05-10 22:39:00,
2013-05-10 23:40:00,45.5,42.2,29.68,South,180,2.0,6.0,88,0.00,,,0.00,0,MyOwnSoftware,2013-05-10 22:40:00,
2013-05-10 23:41:00,45.5,42.2,29.68,SSE,158,0.0,1.0,88,0.00,,,0.00,0,MyOwnSoftware,2013-05-10 22:41:00,
2013-05-10 23:42:00,45.5,42.2,29.68,WSW,248,1.0,2.0,88,0.00,,,0.00,0,MyOwnSoftware,2013-05-10 22:42:00,
2013-05-10 23:43:00,45.5,42.2,29.68,WSW,248,0.0,2.0,88,0.00,,,0.00,0,MyOwnSoftware,2013-05-10 22:43:00,
2013-05-10 23:44:00,45.5,42.2,29.68,SW,225,0.0,2.0,88,0.00,,,0.00,0,MyOwnSoftware,2013-05-10 22:44:00,
2013-05-10 23:45:00,45.5,42.2,29.68,SW,225,1.0,1.0,88,0.00,,,0.00,0,MyOwnSoftware,2013-05-10 22:45:00,
2013-05-10 23:46:00,45.5,42.2,29.68,SW,225,1.0,2.0,88,0.00,,,0.00,0,MyOwnSoftware,2013-05-10 22:46:00,
2013-05-10 23:47:00,45.5,42.4,29.68,NW,315,2.0,3.0,89,0.00,,,0.00,0,MyOwnSoftware,2013-05-10 22:47:00,
2013-05-10 23:48:00,45.5,42.4,29.68,ENE,68,1.0,2.0,89,0.00,,,0.00,0,MyOwnSoftware,2013-05-10 22:48:00,
2013-05-10 23:49:00,45.5,42.4,29.68,SSW,202,1.0,6.0,89,0.00,,,0.00,0,MyOwnSoftware,2013-05-10 22:49:00,
2013-05-10 23:50:00,45.5,42.4,29.68,SSW,202,2.0,4.0,89,0.00,,,0.00,0,MyOwnSoftware,2013-05-10 22:50:00,
2013-05-10 23:51:00,45.5,42.4,29.68,North,0,2.0,3.0,89,0.00,,,0.00,0,MyOwnSoftware,2013-05-10 22:51:00,
2013-05-10 23:52:00,45.5,42.4,29.68,North,0,1.0,5.0,89,0.00,,,0.00,0,MyOwnSoftware,2013-05-10 22:52:00,
2013-05-10 23:53:00,45.5,43.0,29.68,WSW,248,1.0,-999.0,89,-99.99,,,0.10,0,weatherlink.com 1.10,2013-05-10 22:53:00,
2013-05-10 23:54:00,45.5,42.4,29.68,WSW,248,1.0,3.0,89,0.00,,,0.00,0,MyOwnSoftware,2013-05-10 22:54:00,
2013-05-10 23:55:00,45.5,42.4,29.68,SSE,158,1.0,2.0,89,0.00,,,0.00,0,MyOwnSoftware,2013-05-10 22:55:00,
2013-05-10 23:56:00,45.5,42.4,29.68,SSE,158,1.0,2.0,89,0.00,,,0.00,0,MyOwnSoftware,2013-05-10 22:56:00,
2013-05-10 23:57:00,45.5,42.4,29.68,SW,225,2.0,6.0,89,0.00,,,0.00,0,MyOwnSoftware,2013-05-10 22:57:00,
2013-05-10 23:58:00,45.5,42.4,29.68,SW,225,1.0,2.0,89,0.00,,,0.00,0,MyOwnSoftware,2013-05-10 22:58:00,
2013-05-10 23:59:00,45.5,42.4,29.68,SW,225,2.0,4.0,89,0.00,,,0.00,0,MyOwnSoftware,2013-05-10 22:59:00,